GFSCGP_250_spd_000.txt.gz
Wind_Speed
20 17 13 8 6 8 8 7 2 5 6 8 8 7 7 9 11 11 10 8 11 13 11 12 12 12 11 12 14 14 13 14 15 17 18 19 20 23 25 26 28 27 29 28
28 24 20 14 11 8 8 9 8 4 2 2 3 2 4 9 8 8 8 8 11 11 12 12 14 15 15 14 14 15 18 17 18 20 21 22 24 25 28 30 31 32 34 35
35 30 27 23 19 14 11 8 8 11 8 6 4 5 6 6 5 5 4 4 5 7 9 11 11 13 13 14 15 16 17 19 20 22 23 26 28 28 30 32 33 35 37 40
42 34 32 29 25 21 17 13 11 11 10 8 10 6 6 5 4 10 7 5 6 9 12 13 15 14 15 15 17 20 23 23 25 26 26 26 27 29 33 36 38 39 39 40
46 42 39 35 30 26 24 20 16 15 15 11 8 13 11 7 9 11 12 11 13 13 16 15 19 18 18 19 20 21 23 24 26 28 30 31 32 36 37 39 42 44 47 49
48 46 42 41 35 32 32 26 24 19 18 20 13 14 12 13 13 14 15 14 17 15 18 19 22 22 22 23 23 23 26 28 29 30 31 33 34 37 39 40 42 45 48 50
49 44 44 46 43 40 36 33 32 26 25 24 19 18 18 15 16 16 17 18 20 22 23 20 23 26 26 27 28 28 29 33 33 36 37 36 36 38 39 41 45 50 54 57
55 50 46 48 47 47 45 42 35 33 32 29 23 23 24 20 22 21 24 25 24 24 25 27 27 30 32 33 33 33 34 37 38 39 40 41 43 43 43 44 49 53 56 59
56 51 52 52 51 49 48 43 43 41 37 33 33 30 27 26 28 30 29 32 32 35 35 38 38 37 38 38 35 38 40 40 40 41 43 44 46 44 47 49 53 58 60 62
63 61 62 59 58 53 49 48 45 43 42 40 39 34 33 32 33 35 39 36 31 36 40 43 44 43 43 42 42 42 44 45 45 44 44 48 46 48 51 54 57 60 62 64
69 66 65 66 58 56 54 51 49 51 46 43 44 41 39 37 40 39 41 40 37 38 42 43 45 46 47 48 49 49 48 48 48 48 49 50 53 54 56 58 58 63 65 67
74 72 72 63 63 61 61 58 53 53 49 47 47 46 44 43 44 42 42 44 46 43 43 46 46 47 50 52 54 52 52 52 52 51 53 54 55 59 64 61 62 64 66 68
79 74 76 72 68 65 64 60 57 56 54 51 54 49 51 47 47 46 47 48 49 49 47 47 49 49 50 52 55 56 56 56 56 55 54 55 60 65 64 61 66 65 69 69
85 77 78 75 70 70 71 68 63 63 60 63 59 56 52 51 49 49 51 49 50 48 47 49 53 53 52 54 56 55 56 58 59 58 59 60 59 62 55 73 74 68 73 70
80 76 77 75 76 77 74 72 71 67 64 67 67 62 56 55 54 51 50 49 53 54 53 55 57 56 55 56 58 59 59 58 58 60 55 56 58 63 74 72 72 74 73 74
78 76 74 73 75 77 74 71 71 71 72 70 70 64 62 60 61 59 54 49 57 58 56 56 59 59 57 59 59 60 60 61 60 60 64 59 64 72 73 72 76 76 72 78
78 74 75 74 73 73 72 68 71 72 71 73 69 65 68 65 67 63 60 60 62 62 60 61 64 61 60 62 63 64 64 63 61 63 64 61 70 72 75 74 73 72 79 81
78 76 76 75 73 74 70 67 68 69 69 70 70 71 71 71 70 68 67 68 68 67 67 69 72 67 63 63 65 65 67 65 63 64 67 72 75 74 73 74 71 80 86 90
83 79 80 79 74 72 73 72 74 77 76 72 69 66 66 67 71 71 70 71 71 72 73 74 74 72 71 71 68 66 67 65 64 66 66 69 74 77 78 75 79 83 84 86
88 89 84 85 83 78 72 76 78 79 81 78 75 71 70 70 72 72 74 76 74 75 78 80 81 80 77 73 72 69 68 67 68 68 71 72 75 69 70 74 74 72 72 62
89 91 88 86 82 79 79 80 80 79 82 79 78 80 77 78 78 78 77 74 75 74 76 79 78 82 75 76 77 75 70 70 69 68 65 70 74 79 73 79 74 70 54 49
87 85 87 87 88 87 82 82 82 81 81 83 81 79 79 77 81 80 77 80 76 70 70 73 73 69 77 80 78 75 67 63 64 58 61 69 61 67 68 72 60 54 52 61
79 80 85 86 85 83 82 83 84 85 84 84 82 82 83 77 82 83 80 80 71 73 76 71 74 76 78 73 70 69 66 66 63 59 53 63 58 39 4 51 70 81 80 94
70 76 78 77 77 79 81 83 84 84 81 81 77 74 76 78 75 75 73 74 77 81 77 79 81 75 65 59 62 63 61 62 63 66 54 60 58 37 54 79 81 86 97 109
72 70 67 72 68 57 63 65 75 74 77 75 62 56 56 65 73 73 72 77 78 77 70 75 71 67 70 68 67 67 66 67 68 71 74 79 77 76 73 87 93 97 105 112
73 68 61 66 68 70 73 71 67 59 65 64 66 74 79 79 76 74 76 79 79 84 80 72 73 77 68 65 60 64 69 72 65 64 70 74 81 81 87 87 89 97 98 100

GFSCGP_250_spd_003.txt.gz
Wind_Speed
24 23 17 11 6 2 4 6 5 4 5 4 3 5 6 9 9 7 7 11 11 11 13 13 13 13 12 12 12 13 14 14 15 16 16 17 17 19 22 24 25 28 29 31
32 33 23 18 12 9 7 3 4 5 7 5 5 3 2 4 5 3 5 6 8 8 10 11 11 10 10 12 13 13 15 16 17 19 20 20 22 23 24 26 28 30 30 33
40 40 26 26 22 18 15 10 6 6 8 9 8 7 5 10 3 5 2 3 5 6 9 10 11 11 12 13 15 15 16 18 20 21 22 24 26 24 26 28 30 30 33 37
44 43 32 33 29 25 22 18 14 11 8 11 10 9 9 6 9 8 9 5 9 12 12 15 13 15 14 15 17 19 21 23 24 26 29 29 29 30 30 32 31 33 34 39
44 45 37 39 39 32 30 23 20 18 15 10 13 12 14 10 11 13 13 13 12 13 14 16 17 18 18 18 20 22 25 27 27 29 31 33 34 34 34 35 36 36 39 43
54 49 42 40 44 36 34 27 26 22 22 20 15 18 14 14 17 16 15 15 18 16 18 21 20 18 20 22 24 26 29 31 33 32 31 34 37 37 37 39 38 40 44 46
56 52 44 45 45 39 39 35 32 29 26 29 19 23 19 18 20 20 20 20 18 18 20 24 24 22 24 27 30 33 34 34 34 35 36 37 37 38 39 42 39 41 45 49
62 59 48 46 47 45 48 43 39 38 35 34 24 24 28 25 24 27 27 28 28 28 27 29 31 32 32 32 32 35 36 37 38 38 40 42 42 42 40 39 41 45 44 48
66 61 59 54 54 55 52 46 47 42 38 36 31 31 34 32 31 33 35 36 34 35 36 35 35 37 37 35 36 38 40 41 42 42 42 45 45 46 45 45 46 48 50 53
70 69 67 62 62 57 55 54 48 43 38 36 36 37 38 38 36 38 40 42 39 40 41 42 41 41 40 40 40 42 44 45 45 45 45 45 45 47 49 49 48 52 56 57
75 71 72 71 65 61 60 56 51 49 43 39 39 37 41 40 39 40 41 43 43 42 44 45 47 46 45 45 46 46 46 47 48 46 45 47 47 51 52 54 55 55 58 55
73 74 80 70 68 67 64 61 59 56 50 49 46 42 40 40 43 43 43 43 46 44 45 43 46 48 49 50 51 50 50 51 49 49 51 52 50 51 54 54 55 58 60 62
76 76 79 77 77 71 65 62 62 58 58 54 49 44 49 47 45 45 45 46 49 48 47 50 51 51 52 54 57 54 51 53 51 52 55 56 57 57 59 59 59 63 64 65
84 80 80 78 71 71 71 67 67 64 62 58 53 53 53 51 48 47 48 44 48 52 55 55 56 57 59 59 56 55 58 58 57 58 59 61 61 62 61 63 62 65 64 66
84 80 78 76 77 79 78 77 74 70 66 65 61 60 58 56 53 53 51 50 49 54 57 58 57 59 58 59 61 62 61 61 62 60 62 65 67 64 64 64 66 69 70 72
84 79 78 77 79 83 81 78 76 74 70 70 65 61 61 58 57 57 57 56 56 59 62 60 57 59 60 63 64 62 64 65 64 61 64 64 59 53 70 70 75 75 75 72
83 79 78 74 77 81 84 77 75 74 75 71 67 64 68 65 61 61 63 62 61 63 65 65 61 63 65 67 68 68 68 69 65 66 66 67 76 61 60 72 81 79 74 71
84 80 78 74 78 84 81 77 74 75 76 72 61 66 69 69 65 64 63 61 62 65 67 68 69 70 72 72 70 70 73 74 71 69 66 61 43 53 83 80 75 78 76 75
85 83 82 79 80 79 78 78 76 78 75 71 67 67 67 66 64 60 59 62 62 64 68 67 67 71 74 72 71 72 72 71 71 68 60 50 68 84 84 75 75 77 79 80
87 85 85 82 83 83 79 78 76 72 74 67 64 63 61 66 64 64 65 65 66 69 69 68 69 70 70 70 70 67 67 70 68 63 57 62 61 70 73 72 71 75 75 79
85 85 86 86 86 84 80 79 77 75 71 66 67 69 71 72 72 71 72 71 73 73 73 71 74 73 74 73 71 71 70 67 66 67 69 64 63 67 67 65 68 65 70 59
81 87 85 87 87 86 83 81 79 79 76 73 72 74 76 76 77 78 78 75 74 75 74 74 72 74 72 75 73 67 68 70 66 65 58 56 60 55 63 61 59 51 57 40
84 82 79 84 85 83 83 81 79 80 81 80 79 82 83 81 80 81 81 81 81 79 77 78 76 77 79 74 69 67 68 67 64 56 50 47 47 52 59 55 56 47 21 40
84 80 80 79 79 78 77 80 80 80 78 79 81 84 86 86 85 83 81 81 81 83 83 80 78 75 72 72 74 68 64 65 48 43 45 47 54 55 59 68 69 75 70 86
84 82 83 77 74 78 74 75 74 75 79 77 80 81 82 83 84 82 81 86 86 88 83 78 73 69 74 74 68 61 58 55 55 47 46 59 64 66 76 80 80 81 89 86
78 77 80 74 72 73 76 80 81 81 81 81 81 80 83 85 87 84 80 81 75 72 70 68 67 69 72 73 68 60 33 60 63 63 66 71 70 77 77 81 87 98 104 100

GFSCGP_250_spd_006.txt.gz
Wind_Speed
29 26 21 17 13 7 3 1 3 2 4 2 3 5 6 4 6 6 10 12 12 14 13 12 13 13 13 12 12 11 13 14 15 14 15 16 19 19 18 21 23 23 24 25
34 38 27 19 21 15 11 8 6 5 3 3 0 2 2 2 3 5 6 6 7 8 9 8 9 10 10 11 11 11 13 14 15 16 18 19 20 23 22 21 23 25 27 29
45 46 34 27 24 25 20 16 13 9 10 6 4 2 2 5 3 3 2 2 1 3 4 6 10 9 8 10 11 12 13 15 19 20 22 24 26 26 27 28 29 29 30 30
48 48 37 35 32 31 30 24 18 18 13 9 9 6 4 5 5 7 6 9 9 11 10 9 8 12 12 12 13 14 16 19 22 23 25 27 29 31 31 32 34 33 34 33
48 51 43 39 40 40 40 30 22 21 20 17 14 11 8 8 11 11 11 10 15 15 15 14 14 13 14 15 17 19 21 24 26 25 26 29 30 32 34 35 37 35 36 34
57 59 48 45 45 42 42 35 27 24 26 26 21 18 15 11 13 14 15 14 15 17 16 15 13 15 18 21 24 26 26 26 28 28 29 31 35 37 37 37 39 40 39 37
62 62 55 49 47 46 41 33 31 30 24 34 26 24 23 18 18 19 19 18 17 18 18 19 21 22 24 27 29 31 32 32 33 33 34 36 36 37 40 41 43 44 43 42
70 66 61 53 48 49 48 42 37 36 36 38 30 31 27 26 27 28 27 26 25 26 25 26 27 29 30 33 34 35 36 36 36 37 39 40 42 42 42 43 44 46 47 46
75 71 69 64 61 58 51 47 45 42 42 41 36 36 31 32 33 34 33 34 32 34 34 34 36 36 36 38 39 40 40 40 40 40 43 44 45 46 46 47 48 48 49 50
82 80 77 74 70 63 56 55 53 46 43 40 40 38 40 35 37 36 39 36 38 39 40 40 40 40 41 42 44 44 44 45 46 47 48 50 49 49 47 50 52 53 54 54
85 83 84 82 72 67 64 61 56 52 48 42 42 39 42 43 42 39 42 41 41 42 43 44 45 44 44 45 46 47 48 50 51 51 53 54 51 51 50 53 55 57 60 58
89 88 87 81 78 77 74 67 64 62 52 49 46 42 48 46 47 45 44 43 45 45 46 45 49 48 49 50 50 50 51 52 53 54 55 54 54 56 56 58 60 60 65 55
94 89 85 87 85 77 71 66 65 65 61 54 50 45 50 47 46 45 47 48 46 46 49 51 52 50 53 55 54 54 54 54 54 55 55 56 57 57 59 61 61 58 53 50
97 91 86 84 75 74 71 68 67 68 64 56 52 53 55 54 53 50 51 50 48 51 53 53 54 55 57 58 57 57 58 57 57 58 58 60 62 62 64 64 66 61 65 56
98 92 87 82 84 82 76 75 74 73 66 68 60 59 57 57 56 52 52 53 51 54 56 58 58 59 61 63 63 62 64 63 63 63 64 65 65 66 67 69 65 55 62 61
99 90 89 84 87 86 83 78 78 77 74 70 66 62 62 60 58 56 57 56 57 59 62 64 63 64 66 65 65 66 68 67 66 66 68 68 65 62 64 50 48 46 69 59
96 91 91 86 85 86 89 81 80 78 77 73 68 65 67 64 61 62 62 61 62 65 65 67 68 70 70 68 69 69 70 68 66 64 66 66 61 57 48 44 48 66 68 67
98 93 94 88 91 95 83 83 83 81 79 76 71 69 69 67 67 69 67 67 69 71 70 71 72 72 72 71 71 67 65 63 63 63 65 65 61 54 50 45 60 66 70 77
97 95 95 90 91 87 85 85 85 83 80 77 73 72 70 69 75 71 69 72 75 74 74 72 72 71 67 65 66 67 67 69 68 68 69 64 58 53 44 48 56 62 72 79
92 94 93 89 93 92 85 82 84 83 79 75 72 72 69 72 75 73 75 76 77 76 72 70 69 64 62 66 70 69 71 71 68 68 67 66 64 49 42 49 55 61 70 76
88 93 93 92 91 90 86 85 85 83 77 74 69 71 72 74 75 77 77 78 74 73 67 66 69 68 68 73 71 69 70 72 69 69 67 62 54 49 46 44 50 56 63 71
82 83 89 93 92 90 87 84 84 80 79 73 70 72 71 73 74 75 77 73 72 71 70 70 73 73 74 75 74 74 75 77 72 68 59 52 47 42 39 46 49 52 59 63
84 81 79 86 89 86 86 84 82 80 78 74 75 74 72 74 73 74 76 78 76 76 75 74 75 79 79 80 80 78 76 75 70 60 51 42 44 40 41 48 51 56 62 70
71 75 75 83 87 85 84 82 81 80 79 76 75 76 77 77 78 79 81 79 79 78 79 80 78 81 81 80 79 78 74 70 62 48 42 36 45 42 50 59 57 62 68 69
79 81 67 71 77 79 82 80 79 79 82 82 80 78 77 78 79 81 81 84 86 86 85 83 81 79 82 81 78 75 71 65 65 54 42 42 51 53 49 57 64 69 77 84
68 69 77 72 69 66 55 79 79 79 82 82 82 80 80 80 81 83 86 86 86 83 80 81 80 79 79 74 72 73 69 70 64 52 47 47 52 61 67 73 80 79 79 82

GFSCGP_250_spd_009.txt.gz
Wind_Speed
31 29 27 18 15 10 9 4 3 1 4 8 7 7 7 6 6 11 16 15 16 14 13 13 12 11 10 10 10 10 10 11 11 11 12 13 16 18 19 18 19 21 22 25
36 38 35 26 22 17 14 11 7 5 2 0 3 3 4 6 9 11 9 7 6 7 8 8 8 8 7 7 6 6 7 10 12 13 14 15 17 18 20 22 23 23 25 26
39 47 39 33 31 25 21 19 14 11 10 9 7 6 6 8 10 10 8 3 2 1 3 1 4 5 6 6 5 7 8 11 14 16 18 18 20 21 24 27 28 28 28 28
46 50 42 37 37 36 33 28 21 18 16 12 13 13 10 9 14 12 10 8 7 7 5 3 5 6 8 8 9 10 13 16 19 20 21 24 26 26 28 30 32 33 33 33
53 55 47 41 44 45 44 36 29 25 22 20 18 16 13 15 14 12 10 11 11 9 9 8 9 8 9 9 12 14 16 19 22 23 25 27 30 31 31 33 36 36 35 35
61 63 54 48 48 46 49 38 33 31 27 24 27 23 21 19 20 15 14 14 16 15 13 11 11 13 15 17 19 20 21 24 26 28 30 32 32 33 35 35 37 37 36 38
67 66 62 57 53 49 46 45 35 32 31 30 29 30 26 23 23 21 19 19 18 18 17 16 18 21 23 24 26 27 27 29 31 32 33 35 35 36 39 41 40 41 41 43
74 73 69 63 59 55 51 50 44 38 35 38 37 36 28 29 28 29 27 23 23 24 23 24 25 26 29 31 31 32 33 33 35 36 37 38 41 42 42 40 41 44 46 48
81 78 77 73 68 65 58 53 49 46 39 40 40 40 32 32 35 33 32 31 29 30 29 30 30 32 35 36 37 37 37 38 37 39 40 43 45 44 43 43 44 46 48 48
88 86 83 81 78 71 66 62 59 50 44 42 44 45 42 37 38 38 37 36 34 35 35 34 34 36 37 38 38 38 40 41 41 42 43 43 45 46 47 47 47 49 52 54
96 93 89 87 83 76 71 69 64 55 49 46 46 46 50 45 44 41 43 41 40 40 39 38 39 41 41 41 43 42 42 43 43 44 45 46 47 49 50 52 54 57 57 57
101 99 96 88 83 85 80 76 70 64 54 52 52 51 57 54 46 45 45 45 46 45 42 42 43 45 45 45 45 45 46 46 44 45 47 49 51 52 54 55 57 57 57 49
106 102 98 96 93 88 82 75 71 68 64 57 54 51 57 57 53 49 49 47 50 49 46 46 48 48 49 49 48 49 49 49 48 50 51 53 54 54 55 55 54 56 48 46
105 105 101 97 90 85 85 80 75 71 68 62 53 53 62 59 56 54 53 52 53 52 52 51 51 52 52 53 51 52 54 54 54 54 55 55 53 49 46 50 58 54 47 54
96 103 104 98 94 94 89 85 81 75 66 64 57 60 64 62 60 59 57 55 55 55 57 56 56 56 55 56 57 58 59 58 58 57 56 53 49 47 46 50 51 48 50 62
91 96 104 101 99 99 94 90 88 82 75 71 67 62 64 66 63 60 57 55 57 60 61 61 59 58 58 59 62 63 63 64 64 62 57 52 51 51 52 49 47 43 44 50
87 90 99 100 103 102 105 97 93 86 80 74 71 65 71 68 65 63 62 60 60 62 63 63 62 62 61 63 66 68 69 67 64 59 56 54 55 58 54 52 46 43 45 52
82 85 93 100 104 110 94 92 91 88 83 83 77 73 75 73 71 68 64 63 64 66 68 69 68 67 64 67 70 72 71 71 67 61 57 57 58 59 59 57 53 48 47 51
77 75 80 93 105 101 96 96 94 92 85 84 80 78 79 76 75 71 68 70 72 73 74 75 74 69 69 71 73 74 73 69 63 59 58 61 63 63 65 61 58 51 51 59
69 69 76 80 95 99 95 96 96 94 90 86 83 83 81 79 77 75 74 75 75 77 78 77 75 72 71 72 74 74 72 66 62 64 63 67 70 70 68 64 60 53 54 58
63 65 71 75 87 93 96 96 96 97 87 85 84 81 80 79 79 79 80 79 78 79 80 79 78 74 74 72 72 69 67 66 64 65 67 71 73 74 72 70 61 52 48 54
62 62 68 72 79 86 93 96 95 92 90 89 84 78 80 79 81 81 80 80 79 77 79 79 78 75 72 69 68 65 66 67 69 71 73 74 77 71 70 61 60 55 50 51
56 58 64 73 78 83 90 93 93 91 92 89 83 84 82 80 79 77 77 75 75 74 75 77 76 74 73 70 68 67 69 71 72 73 75 76 75 68 65 57 62 56 58 60
55 56 59 60 54 72 85 87 91 90 90 86 83 83 80 77 77 76 75 72 72 75 76 76 78 77 75 72 70 71 75 75 76 76 72 71 69 69 65 60 61 61 62 64
50 58 64 60 47 45 51 68 87 85 86 84 82 82 80 80 78 78 77 74 74 77 76 77 80 80 77 75 72 73 76 76 75 73 70 71 73 71 63 59 59 56 55 57
61 67 66 70 65 57 47 52 67 79 86 83 81 81 79 79 78 79 77 76 77 79 78 81 80 79 78 76 78 78 78 75 73 74 77 73 72 68 63 63 63 62 67 70

GFSCGP_250_spd_012.txt.gz
Wind_Speed
36 33 33 22 17 14 9 7 7 6 3 5 8 14 17 14 13 13 15 16 15 16 15 14 13 12 11 9 8 8 8 8 8 9 9 11 13 15 16 18 19 20 21 23
36 41 40 31 24 22 17 14 11 10 9 8 9 10 10 9 11 17 14 11 8 8 8 9 8 8 7 5 4 4 3 4 6 9 12 15 16 18 20 22 23 24 25 25
43 45 45 37 32 30 27 22 18 14 13 14 12 12 11 11 12 15 13 9 8 6 3 2 4 4 2 1 1 1 3 5 9 11 13 16 19 20 22 25 27 28 26 26
51 50 48 42 38 37 34 32 25 20 20 17 16 14 13 13 18 18 17 14 11 11 8 7 6 6 5 5 5 5 7 9 12 15 17 19 22 24 26 28 29 31 28 28
58 56 54 47 45 43 45 40 33 28 27 19 21 19 16 17 17 22 20 19 18 16 14 12 10 9 9 8 8 9 12 15 18 19 21 23 25 26 28 31 30 30 30 31
67 62 61 54 53 50 50 42 38 33 32 25 27 25 21 23 18 21 23 24 24 21 17 13 13 13 13 13 15 17 18 21 23 24 25 27 27 28 31 32 32 33 36 36
77 69 68 61 56 58 56 45 39 34 33 30 34 31 29 27 24 23 23 24 24 23 20 17 16 17 17 19 21 23 25 27 29 29 30 29 29 31 33 34 36 38 40 41
82 76 74 69 62 62 61 54 46 43 39 38 42 36 38 33 29 30 29 27 27 26 24 23 21 20 23 25 27 29 29 30 31 31 32 32 32 34 35 37 40 41 43 45
87 83 85 79 75 70 66 63 53 51 47 45 44 45 44 35 35 39 37 34 32 31 30 30 29 28 30 31 33 33 33 33 32 33 34 34 34 36 38 40 42 44 46 48
92 90 88 87 85 79 71 69 66 56 51 45 47 46 48 42 41 42 39 38 38 35 35 34 33 33 34 35 36 36 36 37 35 35 35 35 36 38 41 43 45 48 49 50
90 95 94 94 90 84 79 75 71 63 57 51 49 49 55 45 46 47 46 42 41 41 41 38 36 38 39 39 40 40 40 39 39 37 37 37 40 43 45 48 50 49 48 47
84 92 98 94 93 93 90 85 82 74 60 55 52 54 61 51 47 49 50 48 48 46 46 43 41 43 44 43 43 41 41 41 42 41 39 41 42 45 48 50 52 46 44 45
83 82 93 99 99 99 94 88 82 77 70 62 57 56 59 64 55 53 53 50 49 47 48 47 45 46 47 46 45 43 44 45 45 43 43 44 46 47 51 53 48 43 45 48
79 81 84 93 98 99 99 93 89 86 78 69 59 62 62 65 66 63 57 53 52 51 51 50 49 50 48 47 48 48 48 49 49 49 48 48 49 50 50 49 43 45 43 48
69 78 80 90 96 102 102 98 96 93 84 77 68 63 65 66 75 71 64 57 54 53 56 55 55 51 51 50 51 51 53 54 52 53 54 53 54 53 49 44 43 45 43 49
60 69 76 84 91 101 106 103 100 97 93 86 79 69 70 72 76 73 66 63 60 59 60 60 57 54 55 54 54 55 58 58 57 58 59 58 58 53 49 47 43 44 44 47
60 61 72 75 89 96 105 103 100 96 95 92 84 73 78 79 79 76 72 67 66 65 64 63 61 58 57 57 57 60 63 61 63 64 64 61 57 54 53 49 48 47 48 51
62 59 63 71 82 91 89 100 104 102 97 95 90 86 78 80 84 83 75 70 68 68 68 67 65 62 61 60 61 63 67 64 68 70 68 64 61 57 53 52 53 53 57 54
64 61 61 62 73 80 83 96 104 106 100 94 90 85 83 85 86 85 77 75 72 71 72 72 70 66 64 63 67 68 70 69 71 71 70 67 64 60 58 56 56 60 62 62
64 60 60 60 64 69 82 83 91 103 100 95 91 88 85 90 88 87 82 80 77 76 76 76 74 72 69 70 71 73 72 72 73 72 72 68 64 62 61 62 63 65 67 70
64 60 58 58 63 65 69 78 86 96 95 98 96 92 92 90 93 92 85 84 81 80 80 81 79 77 75 75 76 75 75 74 72 70 69 68 64 63 63 67 69 70 71 68
65 63 60 61 60 59 61 66 78 86 88 96 97 95 94 90 90 91 88 86 85 84 83 85 83 81 78 78 78 79 76 72 70 67 68 70 69 68 70 71 73 72 71 66
66 63 58 60 60 52 54 59 67 72 79 92 96 95 95 93 92 89 87 87 86 87 85 83 83 82 80 80 79 79 74 70 67 67 67 69 71 74 73 74 74 73 71 64
65 62 59 57 52 48 54 56 60 67 73 83 92 94 94 92 91 88 85 85 84 82 82 82 81 78 79 78 78 77 75 71 69 69 68 72 74 75 75 74 74 72 73 74
61 62 59 49 48 47 52 51 58 61 65 71 83 89 90 88 87 86 86 85 82 80 79 79 78 76 77 78 78 79 74 73 71 70 73 74 73 73 73 74 74 74 77 75
53 55 54 49 44 40 37 45 47 53 56 68 75 83 85 84 84 83 81 83 80 79 78 79 78 75 77 78 80 80 75 73 74 76 78 76 74 77 75 73 76 78 78 78

GFSCGP_250_spd_018.txt.gz
Wind_Speed
39 35 34 33 26 21 19 15 11 7 6 6 15 14 2 12 12 15 15 17 16 15 14 15 15 15 15 12 11 9 7 7 6 7 8 9 11 13 14 16 18 20 20 19
45 37 43 39 32 28 25 21 18 13 10 11 16 19 14 11 9 11 12 15 15 16 17 15 13 12 10 10 9 7 5 3 2 5 9 9 10 14 17 18 20 19 19 19
49 50 48 43 34 32 31 29 25 20 16 13 16 17 12 9 12 12 15 15 15 15 15 15 14 13 11 9 7 5 4 4 4 7 10 13 13 16 17 19 21 20 22 24
55 56 52 50 42 38 35 37 33 29 22 21 20 19 18 16 15 17 19 18 13 12 11 13 13 13 12 10 8 7 7 6 7 10 11 13 16 18 19 19 20 23 25 28
61 61 57 55 51 48 42 43 42 36 30 29 24 23 23 20 19 21 22 21 18 15 16 15 14 13 13 11 10 9 9 9 10 12 14 15 17 19 19 19 21 24 28 30
56 65 62 61 59 56 54 47 47 41 38 32 31 26 27 24 26 25 26 27 26 24 20 18 18 16 15 15 13 12 13 12 14 16 18 19 20 21 21 21 23 26 31 34
45 55 66 66 65 62 59 57 49 48 38 35 37 32 29 28 29 26 28 32 33 30 28 24 22 19 18 18 18 17 17 17 19 19 20 21 22 22 23 25 26 29 32 35
40 40 55 69 69 70 68 65 59 51 48 46 45 38 36 38 33 32 31 31 31 33 32 31 28 24 22 22 21 22 21 22 23 24 23 24 23 23 24 28 29 31 33 36
50 40 49 55 70 77 70 73 63 61 57 55 46 46 45 45 42 40 35 33 33 33 32 33 31 27 26 24 24 25 26 27 29 28 26 26 27 26 26 29 31 34 37 38
55 53 47 50 59 71 79 75 75 71 65 55 55 53 49 50 50 47 40 38 40 37 34 36 34 31 30 28 28 29 30 31 31 31 30 29 30 30 30 32 33 35 39 42
63 60 56 52 42 54 77 83 79 78 74 67 61 54 55 55 55 51 47 43 46 45 38 41 39 37 35 35 34 34 34 34 34 34 34 33 33 34 34 36 35 37 42 43
70 69 65 56 54 60 57 75 86 85 77 73 68 59 60 61 62 60 54 49 51 52 47 45 42 40 39 40 39 39 39 38 37 37 37 37 38 39 39 40 40 41 44 46
76 73 71 66 55 50 53 54 79 90 85 85 80 63 67 73 67 64 61 57 55 58 49 47 45 44 45 44 43 42 42 41 42 41 41 41 43 43 43 44 45 45 46 48
86 81 74 67 66 73 65 62 67 81 92 85 83 74 76 78 71 76 67 63 55 59 53 50 51 48 50 49 49 46 44 44 45 46 45 45 47 47 48 48 48 49 49 50
92 87 81 73 74 75 71 67 64 66 82 93 83 85 81 83 76 77 76 67 64 65 61 58 56 54 52 53 52 51 48 47 48 51 51 49 50 52 53 52 53 52 52 55
99 92 90 81 74 78 73 71 60 59 61 82 88 90 88 86 85 84 80 79 72 67 64 61 60 58 60 57 56 55 53 52 53 56 56 53 55 57 57 56 56 56 56 57
106 100 96 88 78 81 78 46 63 64 63 69 85 88 92 96 95 91 87 82 74 75 70 64 64 66 65 63 62 60 60 57 57 61 61 58 61 62 61 59 58 58 60 61
109 91 86 82 80 82 49 68 63 65 65 67 70 79 92 96 97 94 92 86 85 78 75 71 71 70 69 67 65 63 63 64 62 65 65 64 64 67 65 64 62 63 64 65
104 83 78 80 71 61 68 65 68 69 55 62 65 74 81 91 98 100 98 91 87 87 76 82 83 76 70 69 71 68 66 68 68 71 69 68 66 68 69 67 68 69 70 70
102 88 72 70 67 61 55 68 72 67 59 60 70 65 71 84 94 95 96 95 94 92 89 86 91 86 68 76 76 73 72 71 73 76 73 72 72 72 72 71 72 73 74 74
94 79 69 66 61 60 64 72 70 67 52 58 60 64 68 74 83 87 99 103 103 95 91 90 98 91 73 82 79 76 77 75 76 77 76 77 79 78 76 76 78 77 77 77
86 77 70 70 69 72 70 66 69 62 55 57 56 59 63 67 74 84 94 103 100 98 97 96 96 98 76 83 85 80 79 78 79 80 80 81 83 83 81 82 83 81 79 77
81 75 74 69 65 63 64 69 64 67 61 56 53 58 60 58 61 74 85 88 96 102 101 98 98 101 85 85 88 83 83 82 81 82 83 84 86 85 84 83 85 83 79 75
75 76 73 74 71 70 64 66 68 66 56 56 55 54 55 53 54 61 73 81 91 98 101 102 101 95 90 89 88 87 87 86 85 83 86 87 86 86 85 84 81 77 76 73
74 68 68 64 63 64 67 67 69 63 58 58 54 49 46 38 37 40 51 72 81 87 96 102 101 97 95 91 87 89 89 86 84 86 86 86 85 86 84 82 78 76 76 76
69 69 66 61 62 64 64 67 56 55 55 57 51 46 38 25 29 28 37 43 58 77 89 94 97 98 95 91 89 87 84 84 82 81 81 82 83 83 80 80 78 77 77 73

GFSCGP_250_spd_021.txt.gz
Wind_Speed
41 35 35 34 28 23 24 20 18 13 8 6 12 13 4 6 8 13 16 15 18 16 13 15 17 18 19 18 15 13 11 10 8 6 6 5 6 9 12 14 15 15 15 18
45 43 43 40 33 29 28 26 24 19 14 11 14 10 6 9 12 13 16 15 12 13 15 16 17 18 15 13 12 9 8 6 3 2 5 7 8 11 13 14 15 14 17 21
50 52 46 43 39 34 32 33 29 25 21 14 16 17 13 11 10 12 12 14 14 16 18 17 16 15 14 13 11 9 7 5 2 3 6 7 11 13 15 14 14 17 21 25
50 53 52 48 44 43 35 40 37 31 27 24 19 20 17 15 12 14 14 17 17 16 16 16 15 14 13 12 10 9 7 6 6 5 7 10 13 15 14 15 17 19 23 27
44 51 55 54 50 48 49 42 43 39 32 30 22 22 25 22 18 17 21 19 18 14 14 13 14 14 13 13 12 10 9 10 9 7 9 12 14 14 15 15 17 20 24 28
29 34 49 58 57 52 56 50 46 45 37 30 30 25 23 22 25 23 24 23 23 20 17 14 14 14 13 14 12 11 13 12 11 11 12 15 14 15 15 18 21 23 25 27
34 26 28 44 59 60 59 56 53 48 41 33 36 30 30 27 27 25 25 26 30 27 24 22 19 15 16 16 16 15 15 16 15 15 16 19 18 18 17 19 22 25 28 29
38 34 34 32 34 59 61 62 57 54 49 48 48 37 38 37 34 32 30 30 32 32 31 30 26 24 22 19 20 20 17 17 20 20 21 23 22 22 21 21 23 26 30 32
49 42 44 33 31 40 54 58 64 66 62 56 47 45 45 46 38 38 35 35 35 33 33 33 32 33 29 25 26 23 22 20 22 25 25 25 24 24 24 24 24 28 30 35
56 52 52 43 39 29 33 45 65 64 63 59 54 52 45 50 46 43 44 42 39 34 33 31 37 36 33 29 28 28 27 24 26 28 28 27 27 27 27 26 27 30 33 36
65 59 58 54 46 44 41 36 43 65 69 65 62 53 56 57 55 51 51 51 46 40 37 42 37 34 33 32 30 31 32 31 32 32 31 31 31 31 31 30 30 33 37 39
70 69 63 56 58 50 47 39 43 52 53 69 72 57 65 64 66 60 57 56 54 49 45 45 41 39 39 37 34 35 37 36 36 36 35 35 35 35 35 33 35 37 40 42
76 71 71 63 57 53 52 48 49 43 46 62 72 60 71 74 71 63 60 59 60 57 52 47 45 45 42 43 40 40 40 40 40 41 41 41 39 39 39 38 39 41 42 44
86 79 73 69 70 75 62 59 55 54 43 44 51 62 69 79 76 71 68 69 63 66 62 51 49 47 47 45 46 44 44 43 44 46 46 47 45 43 44 45 46 46 45 46
93 87 79 74 77 81 72 68 61 49 46 46 44 52 58 77 81 79 77 73 74 71 66 60 51 52 53 50 50 48 49 47 48 50 50 52 49 49 48 50 51 51 51 50
99 93 88 83 79 82 79 74 65 60 57 49 50 50 42 57 80 86 84 82 78 76 71 66 60 57 55 57 55 56 54 53 51 54 56 56 57 54 53 55 57 55 54 55
107 101 97 85 85 85 90 66 71 68 61 56 44 44 57 51 64 80 87 87 84 81 79 73 67 62 61 61 63 63 60 56 54 58 61 63 62 60 59 59 61 60 58 59
114 110 105 93 93 96 75 75 76 75 65 58 49 58 58 53 54 63 81 92 84 81 83 82 75 68 64 66 66 67 67 64 62 63 65 68 69 68 63 63 65 63 63 64
122 118 109 103 96 87 81 79 84 82 69 64 55 53 54 50 50 50 61 83 85 90 88 87 85 77 73 72 68 68 68 69 69 68 70 71 73 73 69 67 68 68 68 69
124 123 119 108 98 90 78 83 85 85 74 58 49 49 45 40 47 52 63 66 74 88 93 91 91 85 82 79 73 74 71 72 73 74 76 76 77 75 74 73 73 73 73 73
128 127 122 111 98 90 85 82 88 86 71 62 52 47 46 47 48 53 59 61 69 71 86 91 92 91 91 85 79 78 75 74 78 78 79 78 79 79 76 76 77 78 75 77
127 121 111 107 104 96 89 83 86 81 73 57 49 44 43 44 42 52 55 60 67 69 74 79 91 93 96 92 90 81 80 80 83 84 83 81 82 82 80 80 80 78 77 78
110 116 113 110 107 102 95 90 84 83 71 53 50 47 52 48 51 50 49 54 59 60 66 68 78 87 94 92 93 91 86 87 86 88 87 86 86 84 84 82 79 80 79 82
99 103 102 95 88 84 86 89 86 65 53 55 51 51 52 52 50 43 46 52 49 54 58 62 69 77 80 85 92 97 96 93 88 89 88 88 88 88 86 84 84 84 85 86
91 96 93 88 72 63 75 71 69 60 54 57 54 49 51 47 45 42 44 43 41 45 38 36 43 55 68 78 81 88 95 92 88 89 91 91 92 90 89 88 88 86 84 84
87 87 80 84 71 39 64 62 59 54 54 53 49 52 54 48 41 40 38 40 38 36 24 44 58 55 51 61 73 75 80 88 91 92 86 83 82 84 88 86 82 80 78 78

GFSCGP_250_spd_024.txt.gz
Wind_Speed
45 43 42 39 36 26 24 24 21 15 14 8 7 11 2 10 12 7 6 8 15 18 17 17 18 23 20 19 19 17 15 13 10 8 4 4 5 9 11 11 12 12 15 19
49 49 48 43 40 33 30 28 27 21 18 13 6 9 2 4 4 7 8 13 16 14 13 18 22 21 22 21 17 13 13 10 7 4 3 4 6 8 9 9 10 12 15 19
51 53 48 46 44 41 35 36 31 28 21 16 14 12 9 7 7 10 12 13 13 12 14 15 20 22 21 19 16 15 13 9 5 3 1 3 6 8 9 10 11 13 17 19
44 50 52 50 48 46 42 45 37 30 26 23 16 15 12 13 10 11 13 12 12 16 16 17 18 17 16 14 13 11 10 8 8 5 4 5 9 9 10 11 11 15 17 20
27 41 50 53 54 50 56 46 42 37 30 28 21 17 16 16 17 15 12 15 17 17 18 19 18 18 17 15 14 11 10 10 9 7 7 8 11 12 13 13 12 15 18 21
30 21 30 51 55 55 62 52 49 44 38 27 28 22 18 20 21 17 18 19 20 21 20 19 17 16 14 15 14 12 12 11 11 10 10 12 14 16 16 14 14 16 19 22
37 30 23 30 44 55 62 60 54 50 43 35 42 33 32 26 24 26 24 24 26 26 26 25 20 16 16 15 15 14 14 13 15 14 15 16 18 20 20 18 17 19 22 24
38 37 40 40 32 41 54 62 60 56 51 49 48 34 41 38 32 33 29 29 28 31 33 29 25 22 21 18 16 16 16 16 15 17 17 19 21 22 21 20 20 22 23 25
45 42 49 39 39 32 38 46 63 62 58 54 48 44 46 42 40 36 34 31 31 35 40 37 32 29 29 24 23 22 21 22 19 20 21 20 23 24 24 23 22 24 26 28
51 49 51 44 43 32 32 37 43 56 62 60 56 55 47 50 48 46 42 40 42 42 40 38 41 34 35 30 30 29 29 27 24 24 24 25 26 26 26 26 27 28 30 32
60 56 58 49 35 43 41 41 33 38 50 61 62 50 57 58 56 52 51 48 48 44 42 41 40 35 35 36 33 35 34 33 30 28 28 30 29 30 29 30 30 31 33 35
68 65 60 52 49 43 36 34 35 33 28 34 56 61 68 67 63 59 54 53 55 48 45 42 40 38 35 37 35 37 37 35 37 33 33 33 33 34 33 33 36 35 37 37
75 69 65 60 54 46 46 48 45 37 34 30 34 49 71 71 70 64 63 60 57 55 52 50 48 44 44 40 40 40 40 39 39 42 37 37 37 37 38 38 40 41 43 42
83 78 72 65 58 63 57 55 51 42 27 30 27 34 50 72 74 72 70 68 66 62 59 56 50 47 45 48 45 45 45 42 42 45 42 41 41 41 41 42 44 46 48 47
87 80 79 71 68 70 63 60 59 51 44 30 32 32 44 56 67 75 76 74 73 68 65 59 59 55 58 55 53 50 48 47 47 48 47 45 45 46 46 46 48 50 52 52
94 84 85 77 74 73 72 69 61 57 51 48 39 42 44 49 48 50 67 78 76 74 70 68 65 61 60 58 57 58 54 52 51 52 53 51 51 52 52 51 51 53 55 56
106 95 91 83 84 82 90 64 67 61 61 57 50 52 54 48 55 51 48 60 75 79 77 73 73 68 65 62 61 60 61 60 57 56 58 59 58 58 59 57 55 58 60 60
113 107 103 93 95 100 74 76 72 70 67 63 57 56 56 53 50 55 51 49 57 68 82 83 80 79 77 72 66 66 65 66 65 62 62 62 64 66 65 64 62 62 63 64
118 118 109 103 103 98 87 78 79 77 70 71 66 60 55 57 57 53 52 51 46 58 66 80 84 83 82 77 74 70 68 67 70 70 67 68 68 70 70 70 69 67 66 68
124 121 120 113 109 104 89 85 83 85 81 73 68 63 58 57 62 57 54 54 46 51 59 63 67 85 87 84 81 78 76 71 68 73 75 75 75 72 72 74 74 73 70 71
133 131 130 124 118 108 97 92 92 92 85 77 73 67 64 60 55 51 54 54 51 51 60 59 65 66 79 87 87 84 79 74 78 77 79 78 79 80 79 78 80 79 77 75
138 137 131 125 122 117 106 103 102 95 90 80 78 73 60 50 57 54 58 58 58 53 51 55 58 64 69 77 86 86 83 81 85 85 83 83 84 83 84 83 84 83 82 79
131 131 126 127 124 121 111 106 104 101 90 80 78 73 65 59 61 53 56 58 58 55 52 52 56 61 64 69 72 79 84 86 87 89 88 89 88 88 88 88 88 85 86 85
108 122 123 122 124 124 112 105 99 99 91 85 85 77 72 63 64 58 56 58 56 56 49 49 55 55 53 53 53 57 62 68 74 82 89 92 90 92 92 88 87 85 87 92
90 102 107 108 110 114 99 95 89 87 81 72 68 71 73 70 65 62 56 62 57 51 42 42 48 45 39 35 38 35 36 45 51 57 70 77 82 85 85 82 79 73 65 63
88 91 97 95 100 103 86 83 64 62 69 69 70 69 61 69 55 50 50 52 50 42 39 43 36 27 19 23 34 44 48 60 65 61 65 63 66 65 66 61 59 54 46 43

GFSCGP_250_spd_027.txt.gz
Wind_Speed
46 45 47 47 42 33 28 23 24 18 16 11 8 16 11 5 14 14 12 5 7 8 11 16 24 28 28 25 24 20 19 16 13 10 6 6 4 5 7 8 10 11 14 17
49 54 49 46 44 39 37 30 28 22 21 15 12 12 8 3 3 6 4 5 6 14 16 17 21 22 24 24 24 21 17 15 12 7 4 3 4 5 7 8 9 11 12 17
42 47 51 50 48 46 42 41 37 29 22 22 15 13 12 5 4 4 7 9 11 12 13 13 20 21 21 22 21 19 17 14 10 6 3 2 4 6 8 8 7 9 12 17
27 34 43 50 50 50 47 49 38 33 27 25 18 14 15 14 9 8 9 12 14 12 13 17 19 18 18 17 15 15 15 12 9 7 2 0 4 7 10 10 9 10 11 14
28 22 30 39 51 52 56 48 42 39 33 26 23 18 16 16 16 14 13 13 13 14 16 18 23 22 19 20 19 15 13 12 10 8 5 4 6 9 11 12 13 14 15 16
30 24 24 25 32 46 59 52 47 44 38 27 32 27 22 23 20 20 18 16 15 16 19 21 22 22 20 18 17 17 16 14 14 13 11 8 8 10 12 13 14 16 18 18
40 31 28 26 23 27 41 52 51 44 40 39 42 31 34 30 26 24 24 22 19 20 23 22 22 22 21 21 20 18 17 16 16 15 14 15 13 14 14 14 15 18 19 20
40 37 39 39 35 29 30 29 38 49 49 48 45 34 43 39 33 29 30 25 24 25 28 28 27 26 25 22 21 19 19 19 18 18 17 18 18 17 16 16 17 19 21 22
44 39 43 40 42 32 34 22 32 33 47 49 47 45 46 39 37 36 35 31 32 31 32 32 30 28 24 22 22 22 22 21 20 21 20 21 21 20 19 19 20 22 23 24
50 46 45 41 37 27 28 38 29 25 25 43 53 49 53 49 46 45 41 35 35 35 34 36 38 36 33 31 30 28 28 27 25 24 24 25 25 25 22 23 25 26 27 26
60 54 54 51 38 39 37 34 32 29 21 21 32 50 61 58 55 50 47 42 43 41 40 41 40 40 39 38 39 37 34 35 34 30 30 29 29 30 29 27 29 30 32 31
68 63 56 53 50 48 41 33 29 11 27 26 19 29 53 65 61 56 51 49 50 50 48 44 42 40 40 40 42 42 40 39 38 36 33 33 32 33 34 32 33 34 36 35
72 68 62 60 59 54 45 41 36 34 33 20 25 29 40 46 60 61 59 56 56 56 54 49 47 45 44 42 41 42 41 39 39 39 35 36 36 36 37 38 37 38 40 40
78 74 70 63 63 63 55 52 47 41 29 28 25 35 47 41 42 53 63 64 63 61 59 58 54 53 51 48 48 47 45 43 41 42 40 40 41 40 41 42 43 44 44 44
81 77 75 72 66 66 60 55 51 42 37 31 35 35 43 49 37 32 40 58 65 67 64 61 58 59 61 60 56 54 52 47 46 47 47 45 46 46 47 46 47 49 50 49
88 83 79 73 73 73 71 65 54 48 48 44 40 33 39 47 44 36 37 40 45 57 70 69 68 66 65 63 62 63 57 57 53 51 53 51 50 51 53 51 50 53 55 55
97 92 88 80 82 82 78 52 61 58 54 52 45 44 47 47 48 46 41 39 40 41 48 61 74 73 72 70 68 68 65 61 59 59 58 59 58 58 58 57 56 57 58 58
101 100 97 88 91 91 65 72 69 66 60 57 53 51 48 48 48 48 41 36 41 43 45 49 58 70 78 76 74 76 73 67 65 65 64 65 63 64 64 62 62 62 62 62
111 109 102 97 96 86 79 80 81 76 66 64 58 57 54 53 51 45 47 41 40 40 42 46 52 59 67 73 81 82 80 78 73 72 72 68 68 68 68 69 70 68 65 65
118 117 114 108 100 93 85 85 84 83 78 67 61 61 63 59 52 52 54 50 44 42 43 42 44 55 63 66 75 84 85 84 79 80 79 76 75 73 72 73 73 74 73 71
119 120 114 109 102 92 88 90 88 94 68 75 71 71 70 64 58 59 56 55 53 51 47 49 50 57 60 68 71 73 77 79 83 86 85 83 80 79 78 79 77 78 81 80
125 126 121 111 107 96 93 95 96 90 81 80 76 75 74 68 63 61 61 59 58 59 59 51 52 52 61 67 68 70 71 71 76 85 88 87 85 85 84 83 82 83 83 84
131 128 119 120 114 103 104 101 98 95 86 84 80 78 76 71 68 66 63 62 61 60 61 62 59 53 58 62 64 64 63 67 67 66 65 70 79 82 85 88 89 89 89 89
126 135 131 123 116 108 109 104 100 95 85 81 81 79 80 78 76 73 67 63 64 66 64 61 57 51 54 62 62 58 58 57 56 55 54 54 37 35 43 47 53 58 57 56
87 104 114 126 128 117 112 107 98 90 86 85 84 85 85 82 79 74 72 69 71 70 70 64 62 53 52 56 62 56 53 56 58 53 39 21 23 36 43 43 49 49 40 37
72 80 88 102 115 120 119 115 110 91 88 88 89 88 87 88 86 81 79 81 77 75 72 66 65 55 53 56 56 54 53 46 48 45 35 22 25 32 42 45 25 23 20 21

GFSCGP_250_spd_030.txt.gz
Wind_Speed
51 49 49 49 46 39 32 28 27 23 20 17 13 10 15 15 11 10 12 14 11 5 6 8 11 23 29 26 26 26 23 18 14 9 5 5 6 7 8 9 10 12 15 18
49 55 53 47 44 43 38 37 35 28 24 20 18 12 11 11 9 7 3 9 9 7 9 9 22 26 24 23 24 24 21 18 14 10 5 3 3 6 7 7 7 11 14 17
41 46 47 50 50 46 44 44 40 35 26 21 21 15 11 11 10 7 7 8 11 13 15 16 20 21 21 19 21 20 18 16 13 9 6 4 1 4 7 7 9 11 12 13
32 38 43 46 51 53 49 53 41 36 32 27 22 21 18 13 15 8 9 11 14 14 13 17 24 23 20 18 19 18 17 15 11 8 6 3 0 3 6 8 10 11 12 13
34 26 30 37 48 47 54 50 43 38 34 30 25 25 22 20 16 12 10 10 14 12 12 16 22 24 24 23 22 21 20 17 12 10 8 5 3 4 6 7 7 9 10 13
33 28 27 31 30 39 46 50 48 42 38 30 37 31 27 26 18 17 15 13 13 14 15 19 22 23 26 27 24 22 20 18 14 12 11 10 8 7 7 8 9 10 11 13
47 38 36 32 27 27 34 43 45 44 38 45 41 33 35 31 26 21 20 19 17 14 17 20 22 25 26 24 22 20 18 16 15 14 13 13 14 14 13 12 12 12 13 13
46 41 38 38 32 33 32 24 28 42 48 47 39 41 42 36 30 26 24 23 22 19 19 22 24 27 27 24 21 20 19 17 17 16 17 16 15 16 17 17 17 17 17 16
51 45 47 44 43 39 31 19 27 24 35 44 42 49 42 42 35 31 30 28 29 27 25 25 28 28 26 24 21 19 20 19 19 20 21 19 18 18 20 20 21 21 22 20
52 49 47 46 43 38 30 33 20 16 17 26 42 51 52 46 44 42 37 34 33 30 28 29 30 31 27 24 23 23 22 22 22 22 22 23 22 21 21 23 24 26 27 25
58 54 53 51 40 39 37 34 29 24 20 19 24 35 49 53 51 47 44 41 37 35 35 34 33 33 32 30 30 29 29 28 28 30 29 29 29 28 25 25 27 29 31 31
65 60 57 54 52 47 41 36 28 22 25 27 22 22 26 41 53 51 48 46 43 42 43 40 38 36 34 34 36 38 38 39 37 37 38 37 36 35 32 28 29 33 34 35
70 66 65 63 61 52 44 42 38 32 28 22 24 23 28 25 31 50 54 51 50 52 49 45 43 40 40 39 40 40 41 42 42 42 42 41 38 36 35 32 33 36 38 38
77 73 72 68 68 61 55 49 42 38 30 28 26 30 34 35 30 26 41 54 55 55 53 51 48 46 46 46 46 44 44 41 40 42 41 41 40 38 38 38 38 39 40 42
86 82 78 75 75 70 64 57 53 45 38 32 36 36 38 43 37 24 20 25 44 56 55 56 55 53 53 53 53 54 51 49 46 44 45 45 44 44 43 43 44 44 44 45
95 91 85 81 78 75 68 63 60 56 50 45 38 36 43 49 38 31 25 25 25 29 46 53 58 60 62 61 60 60 60 59 56 53 54 52 52 51 51 50 48 49 49 50
101 97 93 88 85 79 70 67 65 63 57 51 44 43 42 45 42 34 27 25 26 28 30 32 39 55 66 71 70 68 68 65 61 59 59 60 61 59 59 56 55 55 55 56
100 100 100 94 90 86 75 73 71 67 62 55 49 48 47 47 46 39 33 30 30 33 34 36 39 40 42 51 63 74 74 72 68 65 66 64 66 65 64 63 61 61 61 61
105 103 98 96 94 85 81 78 75 69 61 61 55 53 52 52 51 43 42 36 36 34 35 32 38 42 46 49 54 56 61 69 75 77 75 75 75 72 69 67 68 67 65 64
113 109 103 96 93 86 83 82 79 74 63 63 58 53 54 53 49 48 50 46 43 42 40 36 40 42 46 47 51 58 59 60 64 72 79 82 80 77 73 75 73 73 72 74
113 112 104 100 97 89 85 85 81 76 62 66 63 62 59 55 53 55 56 53 51 49 48 43 41 43 44 47 52 56 63 63 66 69 69 73 78 80 82 79 80 78 78 79
106 108 105 105 98 89 86 88 85 73 74 76 71 68 64 62 63 61 60 57 56 56 56 54 53 50 48 50 48 48 59 67 70 69 69 68 71 71 70 70 70 71 71 74
106 101 100 101 91 89 93 94 89 82 79 82 80 78 74 70 68 67 66 64 62 63 63 61 57 57 53 52 50 50 56 61 66 66 65 63 65 68 66 63 58 55 54 49
106 109 106 104 93 90 91 94 94 88 88 84 85 86 81 78 74 72 71 70 68 67 68 65 63 62 60 60 59 53 51 55 62 64 59 59 59 63 62 57 47 35 39 29
104 116 110 107 99 95 90 91 95 94 95 91 90 87 84 80 77 75 74 75 76 73 70 71 70 70 67 65 63 60 56 58 60 59 54 56 59 61 57 47 39 33 20 4
86 95 103 109 106 101 99 96 97 94 88 86 88 89 84 82 81 81 80 80 77 77 75 78 78 77 75 69 66 66 65 65 65 55 50 55 54 52 46 48 43 24 15 17

GFSCGP_250_spd_033.txt.gz
Wind_Speed
44 49 53 49 46 39 36 32 33 29 22 20 17 12 7 8 9 7 10 10 9 8 10 14 16 14 18 25 24 23 23 20 18 16 13 11 11 8 9 11 12 13 16 17
48 53 49 47 49 44 37 36 37 35 27 22 19 16 11 8 6 4 10 11 8 6 12 17 17 13 23 25 24 22 20 17 15 13 13 10 10 9 9 9 9 9 11 13
46 44 45 45 47 50 45 46 43 40 33 27 21 20 15 11 11 3 6 9 12 9 14 18 17 24 24 21 22 22 19 16 14 12 11 9 9 8 8 8 6 6 7 8
40 39 40 41 46 50 50 53 47 42 36 32 26 22 19 17 16 6 6 12 15 16 16 22 23 24 23 23 22 21 18 15 11 9 7 6 5 5 5 5 5 6 6 7
42 36 34 33 39 42 52 47 47 41 38 33 31 30 24 21 20 12 11 14 19 18 14 20 27 26 25 25 25 23 21 18 14 11 10 8 5 3 2 1 1 3 6 8
41 40 31 37 33 36 43 46 48 45 41 35 43 39 31 29 23 22 18 18 19 18 15 17 25 26 25 25 26 25 21 18 15 12 11 11 10 8 6 5 5 4 5 8
46 45 39 36 34 32 32 40 43 43 44 50 52 41 43 34 27 24 21 20 18 16 16 18 22 28 27 26 24 22 22 20 18 15 14 15 14 13 10 10 10 10 10 11
53 50 48 40 39 34 29 26 29 41 50 56 47 48 43 40 30 26 24 23 21 17 18 20 21 24 26 28 27 25 24 22 20 19 17 17 16 15 14 12 14 13 12 13
55 51 52 48 46 37 31 24 31 30 40 47 51 54 48 43 37 31 29 25 27 26 22 22 25 24 26 27 25 24 24 24 22 21 20 17 16 17 16 16 16 16 18 18
58 56 56 57 55 45 37 33 21 20 22 34 50 57 56 49 45 39 33 30 29 28 27 24 26 27 28 29 27 25 25 24 24 24 22 20 17 17 19 20 20 20 21 24
64 59 60 58 49 47 44 39 32 30 24 23 27 45 55 53 48 44 42 38 35 31 30 30 28 26 28 29 30 29 29 29 28 27 27 25 24 23 23 24 25 25 26 26
71 65 61 60 57 55 51 47 38 34 32 31 33 36 45 51 51 49 46 41 39 35 35 33 33 30 28 30 33 34 34 35 33 33 32 31 32 31 32 32 31 30 30 29
78 72 70 66 61 56 51 47 40 41 40 32 30 31 28 24 34 51 52 50 46 43 42 40 38 36 35 35 36 38 40 41 39 40 38 37 37 39 39 38 37 35 34 34
81 78 75 71 67 63 55 50 46 42 36 35 31 36 35 30 27 31 47 54 53 52 50 47 44 42 41 40 41 42 42 44 44 44 42 42 41 37 35 36 36 37 38 38
87 82 76 73 74 67 60 56 51 46 40 32 39 40 39 36 33 26 28 40 51 55 55 53 51 49 47 47 47 47 48 47 44 43 44 45 41 41 40 39 39 40 43 43
93 88 81 75 76 72 66 60 55 53 45 41 41 43 42 42 36 31 30 27 25 35 52 57 56 55 55 55 55 55 54 54 52 50 51 50 49 48 49 48 48 48 49 50
100 94 88 81 77 76 71 63 61 60 54 47 43 45 48 45 39 37 31 29 26 28 29 29 39 53 59 60 60 58 59 59 58 57 56 57 56 57 57 55 55 57 56 56
103 101 96 90 83 79 70 72 68 65 60 53 50 48 47 48 45 40 37 33 33 34 30 29 30 31 33 37 46 52 54 58 61 64 63 63 63 64 61 61 61 62 61 62
104 105 102 99 91 80 78 76 73 69 65 60 56 56 52 52 53 48 43 40 40 38 37 37 36 37 36 37 39 40 43 48 52 59 64 66 66 69 68 68 70 69 67 69
106 105 105 102 97 87 82 83 78 72 65 63 62 62 59 56 51 51 49 47 44 44 43 41 39 38 40 37 36 39 43 46 50 53 55 54 56 59 59 62 66 68 70 72
99 104 102 103 99 92 89 86 82 78 70 70 65 66 64 59 58 61 59 53 51 48 47 46 44 44 44 40 37 41 40 40 42 44 48 52 54 55 55 56 56 56 61 63
94 95 98 103 99 92 89 92 87 82 80 77 74 71 67 68 69 67 64 60 55 52 53 52 50 48 47 45 43 42 44 45 44 44 44 47 53 57 56 55 56 53 52 60
94 89 94 96 94 95 96 91 93 93 88 84 80 77 72 69 71 72 69 64 59 55 54 53 53 54 53 50 50 48 48 48 48 47 47 47 49 53 56 57 52 53 57 58
97 99 88 88 88 94 94 95 93 91 89 87 83 82 77 74 73 72 72 69 67 64 61 59 59 58 57 56 54 53 54 53 52 53 51 52 51 51 52 54 47 44 37 59
106 100 97 87 84 91 94 96 96 93 88 86 84 80 78 80 79 76 76 73 71 70 68 66 64 64 65 64 63 61 61 60 60 58 56 55 57 57 56 58 56 45 54 66
100 109 104 94 97 89 92 100 97 96 94 90 86 80 79 78 79 78 77 78 78 76 75 74 73 71 71 70 69 69 69 68 67 64 63 61 61 61 59 58 56 53 54 54

GFSCGP_250_spd_036.txt.gz
Wind_Speed
39 38 43 42 44 43 38 34 33 32 27 20 18 18 18 14 12 6 8 10 15 16 12 12 18 18 17 18 22 23 23 22 21 19 17 15 14 13 13 13 13 14 15 17
45 46 40 41 45 45 41 38 38 35 31 25 22 21 20 16 13 6 9 13 17 17 13 13 22 20 16 20 23 23 22 20 19 17 16 14 14 14 14 11 11 10 10 12
49 40 40 42 44 46 47 48 47 44 36 31 26 23 21 19 16 9 8 11 15 18 13 14 23 25 21 25 25 23 22 20 17 17 15 13 11 12 12 11 9 7 7 8
47 43 43 42 44 47 48 52 51 47 40 36 31 28 23 21 19 13 10 12 11 17 17 20 26 28 27 28 27 24 21 18 15 13 12 11 10 9 9 8 7 7 6 5
51 46 42 40 42 38 47 45 45 51 43 39 34 32 31 26 22 16 13 12 10 17 19 23 27 27 30 29 27 28 25 21 19 17 13 11 8 6 5 4 4 4 4 5
52 48 40 40 38 40 37 38 41 46 48 37 42 42 34 34 25 20 16 13 15 19 19 26 28 30 30 30 28 28 27 23 19 14 12 11 9 7 5 3 2 2 2 4
53 49 46 43 40 37 34 35 39 41 44 43 56 46 45 39 31 25 20 16 18 20 19 21 25 27 27 26 25 25 24 21 20 17 13 13 13 11 9 8 7 7 6 5
61 55 52 47 43 43 35 32 31 40 50 60 55 43 51 44 36 28 23 19 22 24 22 21 26 29 30 29 27 26 26 25 24 21 18 16 15 14 13 12 13 13 12 11
65 59 57 54 51 44 36 25 36 33 41 49 52 56 50 43 38 33 29 25 24 29 26 25 28 32 33 31 30 27 26 25 23 21 21 18 16 15 14 15 15 15 16 17
68 67 61 61 59 46 36 37 22 23 30 41 50 58 56 47 43 38 35 31 30 29 31 27 30 31 34 34 33 30 30 27 25 25 24 23 20 18 18 16 13 14 17 22
71 68 66 67 58 49 46 38 30 27 26 29 43 53 56 53 49 44 41 40 37 33 32 32 29 31 31 31 34 35 35 33 30 28 28 27 24 22 20 19 18 19 22 24
79 74 69 65 66 59 57 54 45 36 31 33 34 41 46 51 53 50 47 45 42 39 34 32 32 28 28 31 33 36 35 35 33 32 32 31 29 28 27 26 27 27 28 31
80 77 75 71 69 62 56 55 50 42 39 32 30 32 31 39 49 53 52 51 48 46 41 37 36 38 37 36 36 36 38 37 36 36 34 34 33 32 32 33 33 34 34 34
83 84 79 72 71 69 62 58 54 50 46 39 35 38 32 28 36 51 57 57 54 49 47 44 42 40 40 41 41 41 41 41 40 39 40 39 38 37 39 39 40 42 41 39
88 86 84 83 75 67 61 61 58 53 53 47 44 44 43 35 32 37 50 54 55 54 52 51 49 48 44 41 41 42 42 43 42 42 43 45 44 44 44 44 43 42 41 40
93 90 87 84 79 74 69 63 60 57 56 53 50 50 49 42 37 36 37 43 51 54 55 54 53 51 49 48 48 47 46 46 43 44 46 44 45 43 45 45 45 46 45 46
96 93 89 89 86 82 73 65 63 59 59 57 53 53 55 51 42 41 41 37 39 47 54 57 57 57 56 56 55 53 52 49 50 51 50 49 50 50 50 51 53 53 53 53
98 95 94 93 90 84 71 74 69 65 66 64 58 54 55 52 46 38 34 38 38 38 37 42 43 44 49 54 58 58 55 55 55 55 55 56 57 56 56 57 58 58 57 57
101 98 97 95 88 84 83 76 73 68 67 67 62 55 54 53 52 42 39 39 41 40 39 37 36 35 35 37 42 48 54 56 58 61 61 58 57 55 53 54 56 56 56 55
100 101 99 97 92 88 87 82 77 73 72 73 67 61 57 57 54 52 48 45 38 38 38 42 40 39 39 37 36 36 37 35 36 37 38 36 36 37 37 40 41 42 43 44
95 98 99 99 95 92 91 86 79 80 83 80 75 68 61 59 56 58 58 51 46 42 42 44 41 43 42 41 39 37 36 38 37 34 35 35 35 35 37 41 42 43 44 37
90 93 97 101 97 95 92 89 85 87 81 80 78 72 65 62 61 60 62 58 52 49 46 47 45 44 44 43 42 40 38 40 38 37 37 39 40 39 39 37 39 42 44 45
89 89 93 97 97 94 96 94 89 85 82 81 81 77 72 71 68 66 65 64 61 55 51 52 51 48 48 48 48 46 44 44 46 45 45 44 44 44 43 42 43 43 45 47
92 91 88 91 93 96 94 92 95 93 89 85 83 82 80 76 73 73 70 69 68 64 60 58 57 56 54 54 53 53 53 53 51 52 51 48 48 47 47 47 49 50 50 52
100 95 91 88 91 98 100 98 99 99 97 92 88 86 83 81 76 75 75 74 71 71 69 66 64 62 59 59 58 57 57 57 58 59 58 57 56 57 54 52 53 53 57 55
103 102 95 88 92 93 97 100 100 100 98 95 91 88 87 85 82 79 78 78 77 75 73 72 71 71 68 65 62 61 62 63 64 64 65 65 64 64 61 59 59 57 60 59

GFSCGP_250_spd_039.txt.gz
Wind_Speed
48 47 42 45 44 45 42 38 36 33 29 26 23 22 19 15 14 13 13 10 13 14 15 12 16 14 13 18 20 21 21 21 19 17 15 14 13 15 16 15 17 17 17 18
47 50 47 41 40 42 39 38 36 35 34 30 27 25 21 18 16 15 12 14 15 17 16 14 18 17 17 20 20 21 23 21 18 16 15 14 13 13 14 13 12 13 14 13
51 52 42 41 42 44 42 42 43 41 41 34 30 28 23 20 18 17 15 14 18 18 19 20 20 21 23 23 23 22 23 20 17 15 14 13 13 12 11 10 9 10 10 10
54 49 47 46 45 47 45 47 47 46 44 40 35 32 26 23 21 19 16 18 14 14 16 22 23 26 26 25 24 25 25 21 18 15 13 12 10 9 8 5 5 6 8 6
55 53 53 47 51 44 48 47 45 47 43 46 36 34 33 30 26 21 18 20 16 13 16 22 21 27 30 31 28 27 27 25 20 19 15 12 10 8 6 5 5 6 6 6
59 57 49 50 42 44 45 42 42 40 41 41 42 41 41 37 33 24 22 20 18 16 16 20 22 32 38 36 32 31 30 27 23 19 16 13 10 8 7 4 3 2 1 2
58 55 55 50 47 46 43 43 44 42 37 36 48 47 50 47 37 32 26 22 21 16 18 20 24 30 38 35 33 30 29 25 22 19 17 14 13 11 9 7 5 5 4 2
64 60 56 52 48 47 44 44 41 36 40 47 57 53 53 50 44 36 31 24 23 20 23 22 25 34 32 30 29 29 29 27 25 22 20 19 17 15 14 12 11 10 9 7
67 63 65 59 57 53 48 37 43 40 40 43 51 54 62 50 45 40 34 29 28 24 28 24 27 31 32 33 33 30 28 29 30 27 25 22 19 18 16 16 16 13 11 11
75 72 67 64 60 52 45 47 37 35 32 37 44 52 58 54 50 45 39 34 32 31 33 28 29 32 35 36 37 35 34 32 30 30 28 26 24 20 18 18 16 14 13 14
81 76 72 69 56 55 50 41 33 34 32 38 45 51 56 54 48 46 44 43 39 35 35 34 32 32 34 35 35 36 36 34 33 33 31 29 27 24 21 20 19 18 18 17
82 78 74 62 66 64 57 51 46 38 34 36 39 49 44 48 52 51 47 45 43 40 37 35 33 28 30 37 39 40 39 38 38 35 33 30 29 27 25 24 24 23 22 23
90 77 74 75 73 66 56 53 49 45 43 40 38 33 43 47 51 56 53 49 48 45 41 37 37 35 34 37 38 38 37 38 37 36 34 33 30 30 29 28 28 28 29 30
87 83 77 75 64 71 66 59 56 50 46 40 37 32 31 36 47 52 56 54 54 50 47 44 38 36 39 37 36 35 35 36 38 39 38 36 32 31 32 32 32 33 35 35
96 89 84 84 86 80 71 67 61 55 53 44 43 41 39 35 37 45 56 57 58 55 51 49 47 42 39 39 42 40 39 39 39 41 40 39 35 36 36 36 36 38 39 40
95 91 91 90 86 75 69 66 63 63 62 61 53 49 48 43 38 37 46 57 59 60 57 54 51 49 46 44 41 41 41 41 40 42 42 40 40 40 40 40 40 42 43 42
87 95 94 87 85 77 75 69 66 67 67 66 59 56 54 50 45 42 42 47 56 60 60 58 56 53 52 49 48 45 44 43 45 43 43 42 42 42 42 41 43 45 46 46
95 94 91 89 90 82 74 79 75 73 73 72 67 63 59 57 54 45 41 39 41 50 58 59 59 58 56 55 52 52 49 48 47 47 47 47 46 46 46 47 49 50 52 53
97 96 93 94 91 83 83 84 83 78 75 75 73 68 65 63 59 51 47 47 45 41 43 51 56 59 59 59 59 57 55 55 52 52 52 51 49 50 51 53 53 55 56 54
102 99 98 97 95 91 90 94 86 81 75 75 74 73 67 64 62 61 52 47 42 39 37 35 37 42 50 56 59 59 59 57 58 59 55 53 50 47 46 46 41 35 31 31
102 103 102 101 99 95 98 96 90 86 87 82 79 75 68 62 64 61 57 49 48 45 44 41 37 37 38 38 40 43 45 48 51 49 46 40 36 35 33 29 29 29 32 31
93 95 100 104 103 101 98 93 95 94 88 82 76 71 66 62 62 64 62 55 51 48 44 42 39 39 39 40 41 41 40 41 35 37 37 37 35 32 30 30 31 33 33 36
92 88 95 101 103 102 101 96 96 94 88 83 76 74 70 65 66 63 64 61 58 52 49 46 43 42 44 44 44 43 44 40 38 38 38 37 37 38 38 39 40 37 38 39
98 93 92 93 93 95 96 90 91 90 90 85 80 79 78 75 73 71 65 63 62 59 55 52 48 46 46 48 48 48 47 46 45 46 46 45 44 46 47 48 47 46 45 44
102 97 88 88 93 99 98 91 87 86 90 90 87 85 85 82 79 76 72 67 66 65 61 58 55 52 51 54 55 55 53 52 53 52 51 52 53 53 53 54 54 55 54 52
102 99 94 87 96 97 99 97 94 92 94 96 95 90 86 83 82 79 77 73 71 69 67 66 62 59 57 55 57 59 59 58 57 57 57 58 59 59 58 58 57 58 59 58

GFSCGP_250_spd_042.txt.gz
Wind_Speed
52 46 41 46 47 45 41 39 35 36 33 29 29 25 23 19 16 21 15 12 13 11 16 15 13 14 8 12 18 20 20 18 17 16 15 15 18 19 18 19 20 22 20 18
50 49 51 49 46 44 44 43 40 42 40 35 33 30 25 24 19 17 14 12 12 13 13 14 12 16 10 14 20 19 21 20 18 15 13 13 15 16 16 15 15 17 17 16
57 59 53 50 48 46 43 42 42 43 45 38 36 32 29 27 22 18 14 14 12 13 15 14 10 16 16 18 23 23 22 20 17 14 13 12 13 13 11 11 10 11 13 13
63 63 56 53 51 52 48 47 44 41 45 44 42 37 34 30 27 23 18 15 14 13 18 21 17 16 21 24 25 24 25 22 18 15 12 12 12 11 9 8 7 7 8 8
61 64 60 54 59 57 53 51 42 39 42 43 42 40 35 33 33 28 23 18 17 15 14 19 18 16 26 29 29 26 26 24 21 19 16 13 12 11 9 10 9 7 8 7
69 66 60 55 59 54 57 51 44 40 41 38 44 43 42 41 41 33 26 22 19 16 14 16 14 21 32 32 34 32 30 26 24 21 18 15 13 11 10 10 9 7 5 4
69 60 57 55 53 52 51 49 46 42 40 35 45 46 45 48 47 39 31 25 22 19 15 18 19 26 34 36 39 36 34 29 24 21 19 17 16 14 11 9 7 6 4 3
73 67 63 62 57 56 53 48 44 45 45 48 49 43 51 57 51 44 36 30 24 22 18 22 20 23 30 37 40 35 31 29 27 25 23 21 18 15 13 11 10 8 6 6
77 70 74 68 64 60 53 45 49 47 43 41 45 54 57 58 52 45 39 34 30 26 23 25 20 22 32 41 40 38 33 32 29 27 25 22 19 17 15 15 14 12 10 10
79 82 74 71 71 65 56 58 53 40 41 40 44 47 54 57 53 49 45 40 35 31 28 25 23 23 34 42 40 37 36 36 34 34 31 27 24 21 19 18 16 15 14 13
88 85 80 79 69 60 56 53 45 46 43 43 45 46 50 55 54 52 47 44 41 36 31 27 27 27 34 39 39 39 39 37 37 34 32 31 29 25 23 20 19 18 17 14
89 86 85 78 68 68 63 57 53 45 41 41 44 50 43 48 49 50 50 48 47 41 36 32 33 29 33 36 37 38 38 38 36 33 35 33 32 28 24 22 21 21 19 18
100 88 81 81 75 70 64 58 56 55 51 47 48 49 41 46 48 47 52 54 53 48 42 38 34 35 34 35 38 39 39 37 35 36 35 33 30 27 27 26 25 23 23 23
86 91 87 78 67 67 65 64 60 56 49 47 47 47 39 42 48 50 53 56 57 53 48 44 39 36 39 37 37 40 40 38 36 38 37 36 34 31 30 29 27 27 26 27
89 95 92 84 80 78 72 69 65 57 55 50 50 50 40 36 40 49 54 57 57 54 51 50 48 43 40 40 39 36 36 39 40 40 41 40 37 35 34 32 30 29 29 30
92 93 92 88 88 88 79 73 67 65 61 59 54 54 47 41 39 43 49 54 59 59 57 56 53 46 45 44 43 39 38 40 39 42 43 39 38 37 36 34 33 35 34 35
96 99 93 86 89 86 82 74 67 67 67 63 60 54 53 47 45 41 41 51 59 62 60 57 54 52 51 49 46 45 45 40 40 41 38 37 35 35 36 36 37 38 38 39
97 93 90 93 96 95 81 75 72 70 69 65 68 66 60 56 48 42 38 40 48 57 59 59 56 54 51 50 48 47 44 43 44 43 42 40 38 38 37 37 39 40 41 42
97 93 94 102 99 90 83 76 76 76 74 77 73 73 72 59 52 49 45 44 40 44 48 55 57 55 54 51 48 47 46 48 46 45 45 43 42 41 41 43 44 45 46 47
96 98 97 103 101 92 88 87 89 87 84 84 82 80 72 64 58 58 55 43 34 31 29 34 47 54 55 55 56 55 53 52 50 52 50 47 45 47 48 47 48 48 49 47
99 100 99 102 100 99 97 96 96 94 96 87 84 84 78 75 70 63 53 46 45 41 38 35 34 39 48 56 56 54 57 55 58 55 51 50 52 52 52 52 54 53 44 38
103 102 102 101 102 107 103 103 102 101 96 91 87 82 78 76 72 64 57 51 50 51 47 45 41 38 36 34 34 40 45 51 52 51 53 53 50 48 44 41 37 35 34 34
104 103 106 108 105 109 106 108 102 99 96 91 84 79 74 71 67 61 59 64 61 53 50 52 51 50 44 40 38 38 38 35 35 34 34 34 35 35 34 35 34 34 35 36
102 101 104 104 101 108 107 101 93 93 89 84 79 74 72 72 67 64 70 68 67 64 57 53 54 52 50 46 44 45 44 44 42 41 39 37 37 38 38 39 39 38 39 39
100 95 92 90 94 97 94 87 79 83 87 83 79 77 74 75 77 75 70 66 68 69 66 56 57 56 53 51 52 49 49 48 47 44 42 42 43 44 45 44 43 43 44 45
99 96 91 89 90 89 89 83 77 74 83 85 84 86 86 82 80 77 75 69 66 70 68 65 60 59 55 55 54 51 50 49 49 47 47 47 48 49 49 48 47 48 49 51

GFSCGP_250_spd_045.txt.gz
Wind_Speed
56 53 49 51 48 49 44 39 38 33 30 31 32 29 28 22 14 7 13 16 14 10 3 12 12 12 8 11 15 16 17 19 20 20 18 20 20 19 21 20 19 18 18 18
58 51 58 55 51 48 45 43 38 38 34 35 37 36 38 28 20 18 15 16 13 11 5 11 15 14 12 13 20 21 20 20 20 20 18 19 19 17 18 17 17 16 15 13
61 65 60 54 51 48 45 43 44 42 42 40 40 40 37 33 27 25 25 17 18 13 8 11 15 16 12 15 22 23 23 21 20 19 19 18 17 15 13 14 12 13 14 12
64 67 60 54 48 51 47 48 50 48 47 43 45 43 40 37 32 27 25 24 27 22 14 15 15 14 15 16 26 27 27 26 23 21 19 19 18 15 11 11 11 11 10 7
66 69 64 58 58 56 57 57 54 52 46 46 44 43 44 42 36 33 31 31 24 21 15 17 18 18 18 22 29 28 29 28 26 24 22 20 20 18 14 11 12 11 11 9
76 76 70 63 64 58 65 62 56 51 45 41 42 40 41 42 43 42 37 31 31 19 26 19 19 22 25 24 31 32 32 30 29 27 24 23 22 20 17 14 14 13 11 10
80 76 70 68 66 65 65 62 55 48 43 38 46 41 44 47 49 45 40 35 30 33 29 24 19 20 26 25 32 34 34 33 30 27 25 24 23 21 19 17 14 12 9 7
81 78 70 71 67 66 65 64 58 52 47 50 58 46 44 50 51 46 40 35 33 33 30 25 21 20 26 24 33 37 38 34 31 28 27 25 23 22 20 18 15 11 9 8
85 77 82 80 74 69 65 57 57 57 57 58 55 49 52 50 49 49 43 38 35 33 29 27 21 17 22 26 31 40 40 38 34 30 30 27 25 22 21 19 15 13 11 9
92 95 91 84 84 75 65 66 60 55 53 46 49 49 53 45 45 46 45 42 42 38 34 29 21 21 23 28 31 42 45 43 37 34 31 29 26 24 22 19 16 13 12 11
99 96 90 93 83 67 69 63 58 59 54 51 49 48 47 42 44 44 47 48 47 43 37 31 27 24 24 29 32 44 48 45 41 37 33 30 28 25 22 18 15 14 13 13
104 95 97 88 73 73 72 68 65 57 55 53 54 50 45 43 43 42 45 49 51 47 42 37 32 26 25 28 34 43 49 46 44 39 36 35 30 26 23 20 18 18 18 18
103 100 95 88 88 84 73 66 61 61 62 55 54 51 43 42 41 40 46 50 52 54 49 43 36 30 28 27 33 41 48 46 43 40 39 36 32 28 27 26 24 23 22 21
94 96 93 86 76 77 71 66 65 64 59 58 54 53 45 45 45 42 43 49 54 58 54 47 42 35 33 31 32 39 41 42 41 40 39 36 33 32 33 31 28 26 26 25
92 88 89 84 80 75 76 75 69 61 60 57 58 52 48 46 45 45 48 49 54 59 57 52 46 41 36 37 38 39 40 41 40 40 39 37 35 34 33 31 29 28 27 27
92 91 89 89 86 84 82 77 70 67 65 63 62 54 51 51 46 45 45 47 55 59 58 55 53 49 45 42 43 42 42 41 40 41 42 38 36 35 35 34 34 33 31 33
93 92 84 87 90 92 81 73 71 71 69 64 59 56 54 53 49 47 46 50 53 60 62 61 57 53 47 43 42 43 42 41 42 42 42 40 39 40 39 37 37 38 36 36
93 93 85 94 97 89 81 80 74 69 72 69 68 69 60 59 59 50 48 48 53 58 60 61 58 54 51 48 45 42 44 42 42 42 41 40 37 35 34 34 37 38 38 36
94 93 92 98 96 85 86 86 82 81 78 75 78 79 72 71 60 47 45 44 44 49 54 58 55 51 51 49 47 44 42 42 43 44 42 38 36 35 34 36 37 37 39 36
96 94 98 96 91 94 98 91 85 86 83 80 83 83 79 70 60 48 44 42 39 34 37 44 52 56 55 53 51 50 49 48 47 46 44 40 38 37 37 39 37 38 38 38
98 98 100 97 97 99 95 93 89 93 92 86 87 89 88 64 51 44 42 43 39 32 32 35 47 55 57 58 57 55 52 52 53 49 44 41 40 42 43 41 41 42 42 43
103 103 102 100 99 97 101 100 97 94 95 91 91 95 78 59 50 45 46 45 41 37 36 35 35 41 51 57 58 58 56 55 53 49 48 47 48 47 45 45 46 47 45 46
104 105 103 107 110 105 106 103 99 99 97 93 92 93 77 58 54 52 51 52 54 49 45 42 38 35 34 37 46 54 60 61 58 55 54 54 54 52 51 51 50 46 38 34
105 105 106 101 105 105 107 105 102 103 98 95 91 84 72 59 58 60 58 60 61 59 57 53 46 43 40 37 35 39 42 43 49 52 54 56 55 53 48 41 38 35 35 37
104 105 103 102 102 98 101 100 98 100 99 94 86 79 72 68 64 63 64 64 63 69 62 57 53 51 47 45 47 47 42 41 41 40 40 41 42 41 39 37 37 39 39 41
93 101 100 96 97 95 96 97 94 96 93 91 84 79 74 70 71 70 68 70 72 79 66 62 60 58 56 53 55 55 52 51 48 47 47 47 46 45 43 41 41 44 45 45

GFSCGP_250_spd_048.txt.gz
Wind_Speed
60 56 50 53 51 52 51 46 39 34 32 30 31 23 23 24 19 16 16 10 9 8 2 11 13 12 12 7 12 16 18 21 19 21 24 25 25 27 24 24 19 13 20 15
63 53 62 61 57 54 48 48 41 40 37 34 33 30 24 28 24 19 14 12 10 10 3 8 15 16 14 11 13 17 20 23 24 22 24 25 25 24 24 23 20 18 16 13
67 69 69 65 62 58 50 46 46 48 44 39 38 36 31 32 30 25 23 19 12 10 8 8 16 19 17 15 13 18 20 23 26 24 26 25 24 23 20 19 18 16 15 13
72 77 70 66 62 59 54 53 53 56 49 44 41 38 37 31 31 31 29 24 24 13 13 9 14 20 21 18 19 24 24 25 27 27 27 26 24 21 20 17 15 16 14 11
71 79 76 68 63 62 59 60 56 59 53 51 46 45 36 32 29 36 35 33 30 27 18 15 17 21 23 21 21 26 28 29 29 28 28 26 24 22 19 17 15 14 12 10
82 87 80 70 76 71 72 66 63 63 56 50 47 43 40 30 35 40 37 36 33 30 21 19 22 23 21 25 24 30 32 32 31 30 27 27 26 22 19 17 16 15 13 11
88 85 82 81 80 74 76 73 67 62 53 42 48 42 42 38 41 42 38 37 35 31 30 26 29 21 30 29 24 29 30 33 33 30 29 27 26 24 20 17 17 15 12 9
94 94 84 81 80 77 74 71 63 56 50 47 54 39 51 49 43 41 37 35 35 31 35 25 31 20 26 31 30 30 32 35 32 30 29 28 26 24 22 20 17 15 12 11
99 93 93 90 86 84 80 69 70 66 60 58 54 54 58 49 45 40 36 33 36 37 36 37 31 27 25 30 33 29 36 37 36 33 31 28 26 24 24 23 20 17 14 11
103 95 95 89 93 89 77 80 75 65 61 58 55 57 55 53 52 46 39 35 42 41 41 42 36 31 28 29 33 33 38 42 40 38 33 28 27 28 26 24 21 19 15 13
104 97 97 101 95 81 80 75 72 73 69 61 60 57 63 59 55 50 41 41 46 48 44 43 37 33 31 27 32 36 39 45 46 41 36 32 31 30 28 26 24 21 17 14
102 101 106 100 85 84 86 83 81 73 63 59 60 66 63 57 50 45 40 39 45 49 46 44 42 36 30 26 32 39 40 48 48 44 39 36 35 31 29 27 23 22 19 16
101 102 105 98 96 95 91 80 74 70 70 63 61 68 57 54 50 47 45 41 43 52 51 49 45 41 34 29 32 42 43 47 50 49 44 40 37 34 31 29 26 24 22 20
102 101 103 103 98 95 85 77 70 67 66 64 62 64 55 52 50 49 48 45 46 51 51 54 49 45 38 33 33 39 42 44 51 51 48 43 39 36 34 34 31 29 26 26
103 95 101 104 100 93 83 77 75 67 62 60 73 64 58 56 55 54 52 51 46 50 56 54 54 50 43 38 35 36 42 42 48 50 49 44 41 40 38 36 33 32 31 31
100 99 93 93 97 91 84 79 77 73 68 67 74 68 62 61 59 57 55 49 48 48 55 60 58 54 47 42 37 35 40 42 46 50 47 44 43 42 40 38 37 37 36 34
100 97 91 92 98 93 88 86 82 75 77 76 77 72 67 67 62 58 56 49 46 44 49 56 59 56 51 47 41 37 39 41 45 46 45 46 44 42 39 38 38 35 35 35
94 93 93 95 98 96 91 89 81 81 85 79 78 80 76 71 65 58 53 43 42 42 44 49 59 60 58 52 44 38 37 40 43 43 42 42 42 40 39 39 38 37 37 37
94 95 98 99 95 93 94 92 88 84 83 83 83 80 72 68 60 55 47 40 43 44 43 47 54 62 60 55 50 45 41 40 42 44 45 46 44 42 41 40 41 39 38 37
97 97 97 97 97 97 98 95 93 86 85 86 88 84 76 69 61 52 45 43 45 44 42 43 48 56 61 60 55 50 47 45 43 43 45 43 40 40 40 37 37 37 39 37
95 96 100 100 99 97 96 93 96 95 90 87 89 85 74 61 52 48 44 46 46 46 43 41 45 52 58 60 60 57 53 52 51 48 45 42 42 41 40 40 41 41 41 40
93 98 99 96 98 96 94 95 96 92 85 83 84 84 66 52 50 46 47 46 48 49 44 39 40 46 54 60 59 59 58 56 54 51 46 44 43 40 40 41 39 40 41 41
92 97 99 100 97 91 93 91 95 88 87 86 84 83 66 57 54 52 49 48 47 49 44 40 39 42 49 53 58 60 59 58 57 53 49 49 50 50 50 47 46 46 46 46
90 96 97 95 93 92 93 94 91 92 89 89 88 83 71 64 59 56 55 52 52 51 48 43 41 41 40 45 52 57 61 62 62 60 57 55 54 54 53 52 51 49 50 50
88 92 93 93 90 92 93 93 93 92 91 93 87 83 76 68 65 60 58 59 59 59 54 50 46 45 42 39 40 44 52 57 61 63 63 62 62 61 59 56 55 55 54 54
77 91 96 98 97 95 93 90 90 89 90 95 90 86 80 74 71 70 67 65 65 65 63 59 55 52 47 45 44 44 44 43 45 49 52 55 58 62 60 58 56 53 51 49

GFSCGP_250_spd_051.txt.gz
Wind_Speed
62 60 54 60 62 59 56 52 49 45 37 32 30 30 27 23 20 17 14 10 15 7 6 6 8 8 10 9 11 14 14 19 24 23 25 28 28 26 29 25 14 18 15 13
65 54 66 66 63 63 58 56 51 51 42 37 32 34 29 26 21 22 17 12 12 7 7 8 8 13 11 13 11 15 16 19 24 24 25 28 28 21 24 16 12 20 15 12
69 71 71 68 66 65 62 57 57 56 49 43 40 32 31 30 25 26 23 14 15 14 12 7 8 12 14 13 14 15 18 20 24 25 26 29 28 22 20 18 18 17 15 12
75 77 71 71 67 66 63 61 62 64 56 47 42 33 32 30 30 27 25 21 20 16 12 9 8 11 15 15 17 18 21 22 26 25 27 28 28 25 22 19 17 16 15 11
75 81 75 71 68 70 68 65 64 65 65 58 46 39 36 38 34 32 27 28 25 20 21 18 12 12 17 20 20 22 22 24 28 27 27 28 27 27 24 22 19 17 15 12
87 88 81 77 81 75 78 74 71 71 68 58 46 40 35 34 40 35 29 32 31 27 23 25 18 18 18 21 23 25 25 27 29 30 29 26 27 25 23 21 19 19 15 12
97 89 88 87 84 80 81 80 74 72 64 46 48 42 37 39 41 43 36 34 32 33 24 21 20 22 21 21 26 25 25 29 32 31 30 30 27 23 20 19 17 16 15 13
101 98 92 88 86 83 81 81 71 64 58 46 50 40 45 44 46 49 39 35 31 31 28 27 27 27 21 24 24 28 25 27 32 31 30 31 28 25 21 17 17 17 16 13
106 98 101 97 90 90 83 78 74 72 67 58 52 51 59 50 49 45 41 34 33 34 31 30 37 35 33 26 25 32 29 29 32 33 34 32 28 28 24 21 20 20 18 15
112 102 104 99 100 100 90 84 82 71 67 59 55 52 58 51 51 49 45 41 38 38 36 33 37 35 30 28 24 33 36 32 31 36 36 34 31 30 29 26 24 22 19 16
112 109 110 106 106 98 92 85 79 78 73 59 57 51 62 56 57 53 48 46 39 39 39 37 36 39 33 33 26 30 39 37 38 41 40 37 34 31 30 29 27 25 22 19
110 110 116 110 104 100 96 94 89 78 65 60 58 56 67 62 61 56 50 48 43 40 41 38 38 37 39 38 30 34 37 43 44 38 40 38 35 34 33 32 29 27 25 22
112 109 112 112 110 108 101 96 85 78 76 67 61 63 71 69 62 55 50 47 47 44 42 39 39 39 40 38 32 34 38 44 44 40 41 42 40 37 35 34 32 32 28 26
110 111 113 114 113 111 101 95 89 83 81 71 62 80 75 67 61 56 54 51 53 52 46 42 42 46 43 43 38 35 40 42 44 44 44 46 43 40 36 36 36 34 31 29
108 110 113 112 112 109 100 94 89 84 75 70 72 78 72 68 67 63 58 52 53 56 50 45 42 46 48 46 42 39 37 40 42 45 46 47 47 43 40 39 38 36 34 31
103 109 112 107 106 103 100 100 93 85 79 74 78 75 76 75 69 61 55 53 55 58 52 49 47 46 48 49 47 42 39 37 41 47 48 48 48 47 43 41 40 38 36 33
103 107 108 107 104 102 106 103 95 92 85 79 78 80 76 72 66 59 56 56 56 59 55 50 49 49 49 52 52 47 43 36 38 46 48 49 48 49 46 43 42 40 38 36
101 103 106 113 106 104 105 103 99 93 86 80 81 81 76 69 63 60 58 56 53 54 52 48 49 48 50 53 55 51 45 40 38 41 49 49 50 48 46 46 43 42 41 39
93 100 107 114 110 104 103 103 102 95 88 84 87 82 75 68 64 60 58 56 52 51 51 50 49 48 49 51 54 53 48 43 39 38 48 51 50 49 46 46 44 42 40 39
89 103 108 111 106 102 102 102 100 95 91 87 87 82 74 70 62 56 56 54 49 51 53 50 49 49 48 50 55 58 53 49 46 41 42 44 45 43 44 43 42 40 42 42
87 100 104 107 104 100 99 99 100 100 92 90 88 83 77 71 63 57 54 52 51 54 55 52 51 49 47 50 54 57 57 54 52 47 43 44 47 48 47 45 43 43 44 46
89 98 103 106 101 99 96 95 97 95 95 90 86 86 78 69 64 59 56 52 53 56 56 53 51 49 48 50 54 57 63 61 56 51 47 44 44 44 44 42 42 47 47 46
85 96 101 103 99 97 97 90 91 93 94 90 86 84 75 67 63 60 58 55 56 58 57 54 52 51 50 51 52 56 61 63 60 57 54 52 46 44 41 41 43 45 44 44
79 92 99 95 99 99 92 85 83 87 93 91 86 84 76 69 65 63 61 59 59 60 58 56 54 52 50 48 49 54 58 63 64 62 59 56 53 51 50 47 49 47 44 45
74 90 93 95 94 94 87 86 81 84 88 89 87 82 77 72 68 65 65 63 61 61 59 56 55 51 49 47 48 52 58 62 65 65 64 62 57 56 54 54 53 52 52 52
68 83 91 99 96 92 88 88 84 83 90 87 84 82 78 75 73 70 69 67 66 64 62 59 56 53 48 47 47 50 54 58 59 63 62 61 61 61 59 57 57 56 57 57

GFSCGP_250_spd_057.txt.gz
Wind_Speed
64 59 57 62 56 53 50 48 43 40 37 32 30 25 23 20 18 14 11 8 8 8 2 3 3 4 2 4 7 13 17 16 18 16 18 22 20 20 18 16 16 14 13 13
68 61 70 64 60 58 53 52 51 46 43 38 34 30 24 23 17 16 15 13 11 7 3 2 3 3 4 5 8 12 17 18 19 18 20 25 23 20 17 14 12 11 9 9
71 73 73 71 67 62 59 57 60 56 50 46 40 34 29 26 24 21 17 15 11 8 7 3 3 1 5 4 7 11 16 17 17 17 19 23 23 19 15 12 9 7 6 6
78 78 77 75 72 68 63 66 67 64 55 53 46 40 34 28 26 21 21 17 16 12 11 6 4 5 4 6 6 12 15 17 19 20 21 23 25 21 17 9 7 7 3 3
88 86 82 78 79 77 73 72 68 69 63 59 49 45 40 32 29 29 27 23 20 17 13 8 8 8 7 8 7 11 14 18 21 24 25 24 23 19 16 10 7 11 6 3
96 94 90 83 87 84 87 79 75 76 71 60 55 47 45 37 42 37 30 28 25 20 15 15 13 14 10 8 11 13 15 17 20 25 26 25 26 21 15 14 11 11 8 6
102 101 98 94 92 90 89 85 82 80 74 54 59 52 48 46 47 41 36 31 28 22 21 18 16 13 16 14 11 17 16 18 21 22 23 25 26 25 21 17 15 13 10 9
101 107 104 103 98 94 93 91 86 80 72 62 63 52 49 51 53 46 40 37 29 28 25 21 16 16 18 19 16 16 18 16 22 23 24 24 23 24 24 22 18 15 13 13
105 104 108 109 107 105 97 92 85 87 80 69 63 58 57 56 56 49 43 40 36 34 30 27 23 21 23 22 20 20 17 18 19 23 22 25 24 24 25 23 21 18 16 16
107 107 109 113 113 112 105 95 102 91 84 72 68 61 59 63 62 55 51 44 43 40 35 30 29 23 25 24 23 23 20 18 19 18 25 26 26 24 25 25 23 19 19 16
106 107 110 113 117 116 110 109 102 93 86 77 70 63 64 62 67 63 56 53 49 44 38 33 32 27 23 24 28 26 23 19 21 24 28 29 27 27 29 27 25 23 20 18
107 106 110 113 117 121 118 114 107 100 86 79 75 68 74 69 66 66 59 56 51 46 42 36 32 28 23 24 26 32 31 26 23 26 27 30 31 31 31 30 29 28 25 23
102 107 108 114 119 123 125 118 113 102 92 85 79 71 78 75 71 68 63 59 53 48 41 35 32 29 28 25 25 32 33 29 26 23 24 30 34 35 34 33 32 29 27 26
94 103 109 114 121 125 125 123 117 108 99 88 81 78 82 80 75 71 68 61 53 48 41 36 35 30 31 26 27 31 33 32 29 26 23 28 36 37 36 35 33 31 29 28
85 94 104 114 117 121 123 123 117 109 101 91 83 78 83 81 81 77 71 62 55 47 42 41 39 36 34 30 30 29 30 34 34 29 28 28 31 35 37 38 37 34 32 30
78 86 98 108 115 118 123 124 121 112 104 95 87 82 85 85 83 78 69 62 55 48 44 42 43 42 37 35 33 32 31 33 34 33 32 27 28 31 40 41 40 38 35 33
70 78 89 102 111 113 118 119 117 113 104 100 92 87 86 89 85 81 72 64 58 50 46 46 49 48 45 41 38 36 37 35 36 36 34 30 30 30 32 36 41 42 40 38
64 73 81 98 104 107 111 115 115 113 107 103 98 94 92 91 86 81 74 66 60 54 51 52 51 50 50 46 41 39 39 41 39 38 37 35 34 33 31 34 37 42 43 42
61 69 76 87 95 102 103 109 111 111 109 105 102 97 93 91 87 85 75 67 60 56 55 55 55 53 50 46 42 40 39 40 41 40 41 41 39 36 36 34 35 36 42 46
57 64 70 77 85 93 96 103 107 109 111 107 105 101 98 94 89 85 76 69 64 63 65 63 61 54 48 48 46 43 41 42 43 44 45 45 43 41 40 38 34 34 38 42
47 54 60 67 74 83 96 99 102 109 106 108 103 104 101 95 89 83 76 73 69 69 70 67 59 56 53 51 49 47 46 47 46 45 46 45 45 45 43 39 36 37 38 42
40 47 52 61 71 83 92 96 101 102 106 107 106 104 101 96 90 86 81 77 71 71 72 64 60 58 55 53 51 49 49 49 49 46 44 44 43 45 46 44 41 41 40 42
39 45 50 58 67 79 89 92 94 99 105 107 108 103 99 96 91 88 87 80 77 77 71 66 62 58 56 55 53 49 48 50 48 45 43 44 44 47 49 48 45 43 42 42
35 44 50 59 70 78 84 90 95 97 103 106 106 102 99 96 93 89 86 83 80 79 75 70 67 61 58 54 50 48 49 51 48 47 45 44 45 46 48 50 49 47 46 43
37 44 52 59 65 74 82 89 94 96 102 105 101 101 101 97 94 90 85 79 79 80 77 74 71 65 61 56 53 52 52 52 49 47 44 45 46 48 48 50 53 53 50 47
39 44 52 59 65 72 70 85 92 94 100 101 96 97 101 98 95 90 86 77 76 71 76 74 73 69 65 61 57 54 53 52 50 47 43 43 45 49 52 53 55 59 54 52

GFSCGP_250_spd_060.txt.gz
Wind_Speed
61 59 59 62 57 51 50 49 48 44 42 41 38 34 27 22 20 18 17 15 13 7 2 2 1 4 4 2 5 13 18 19 20 20 17 15 15 17 18 16 15 14 13 11
64 63 67 65 61 58 54 52 50 47 41 37 32 29 25 24 21 23 20 20 15 8 5 3 3 5 4 7 7 15 19 21 21 18 20 20 17 15 15 15 14 13 11 10
69 70 70 69 67 64 61 57 57 55 48 41 34 31 31 28 26 26 20 19 13 8 7 2 6 7 4 8 5 10 17 19 18 18 21 21 19 16 13 12 11 11 9 9
76 74 72 73 71 69 67 66 63 61 55 49 42 38 34 30 30 26 23 18 17 12 10 6 5 7 9 5 9 7 15 17 18 18 21 22 21 17 13 10 7 6 7 7
85 84 79 76 76 76 74 75 68 68 62 57 46 41 38 34 31 30 29 21 19 16 14 10 6 9 11 9 7 8 9 17 19 21 23 25 22 17 12 9 5 5 5 4
92 90 87 85 82 80 83 82 76 76 71 62 52 45 43 38 38 39 32 26 24 22 16 13 10 9 12 10 9 10 11 13 20 22 23 23 23 22 15 11 7 7 4 4
92 93 95 92 91 88 85 85 83 83 77 58 59 53 49 46 46 44 37 31 28 24 21 18 13 12 16 14 11 8 11 14 18 23 23 23 23 23 20 14 13 10 7 7
94 94 96 98 95 96 94 91 86 85 81 64 68 57 56 54 52 48 42 37 32 31 26 23 18 19 16 18 16 14 10 14 15 19 23 25 25 25 24 20 15 13 11 10
95 98 96 98 99 102 99 101 85 91 90 78 73 66 63 61 58 54 48 41 37 36 33 27 24 22 21 19 18 19 16 16 16 13 16 23 25 27 25 23 22 19 14 13
103 104 101 100 101 101 108 100 101 95 92 84 78 71 63 65 65 61 55 46 45 42 36 34 32 29 25 20 20 20 20 19 18 15 14 19 21 23 23 24 21 19 20 17
100 106 110 103 101 104 107 109 109 102 93 87 83 75 71 70 73 65 61 56 55 51 46 42 36 33 25 20 19 19 25 24 21 21 20 22 23 22 23 24 23 23 22 20
93 99 108 109 112 108 107 111 114 110 96 90 90 86 76 73 74 69 67 62 60 56 51 46 40 33 29 27 23 20 23 29 28 25 22 22 23 25 26 27 26 26 24 23
89 95 100 107 114 116 116 117 116 116 108 98 94 85 76 76 77 75 73 66 63 60 55 49 42 37 35 31 24 21 26 29 32 25 24 23 24 29 32 30 30 28 28 27
80 86 94 105 116 119 117 120 120 116 109 100 96 90 84 83 81 81 77 72 65 61 57 52 46 42 38 35 29 26 28 29 34 33 27 26 26 29 31 33 32 32 29 29
76 79 86 98 109 113 115 116 116 115 112 107 101 92 87 89 89 82 81 76 67 64 59 54 50 47 43 38 33 30 32 31 33 35 33 32 27 26 26 30 34 35 32 31
70 74 81 90 103 110 113 116 119 118 110 110 104 95 93 95 86 83 78 76 71 66 61 56 52 49 45 42 37 34 32 33 34 35 37 35 28 24 26 30 35 37 36 35
63 68 74 88 98 103 108 110 114 117 112 113 107 100 97 94 91 89 82 81 75 70 64 59 53 51 48 47 43 41 38 36 36 35 33 35 34 30 29 30 36 39 39 38
56 62 71 83 91 95 98 112 116 119 116 114 114 108 100 99 93 88 86 81 78 74 67 62 56 55 55 53 49 44 40 38 38 36 33 32 34 35 33 30 32 34 36 40
47 54 63 76 82 86 92 101 105 112 115 112 114 109 103 101 96 93 89 83 81 76 70 64 60 60 58 57 54 49 46 43 39 36 36 37 35 35 35 36 34 30 30 32
39 48 57 68 72 77 83 91 101 108 112 109 115 112 109 103 99 95 90 85 81 76 72 66 64 61 62 61 58 55 50 47 42 38 37 36 35 36 37 39 38 35 32 29
30 41 52 60 63 70 73 83 94 105 112 112 118 115 113 108 104 93 85 84 83 80 75 71 69 68 69 66 63 58 55 50 48 41 39 37 37 38 37 36 37 37 37 35
25 35 45 49 55 60 67 75 86 97 107 111 118 117 113 107 104 98 93 85 83 81 79 76 72 73 72 69 64 60 56 54 49 44 43 40 39 40 38 37 38 40 40 40
21 29 37 45 53 60 63 72 79 96 105 109 117 117 113 108 104 101 95 87 81 80 79 78 77 77 76 70 61 58 58 55 50 47 45 42 39 40 42 41 39 41 43 43
24 27 33 41 47 54 58 63 77 96 103 107 116 117 113 110 104 102 95 89 85 82 80 78 78 81 77 66 61 60 59 57 53 49 47 44 43 42 43 43 42 44 43 45
23 29 33 36 43 51 56 64 81 97 103 105 112 115 112 111 104 102 97 91 88 84 77 78 82 79 72 66 64 64 61 59 57 54 49 46 46 45 43 42 43 45 46 46
19 27 33 36 41 47 54 66 80 94 102 110 112 113 109 112 106 102 96 93 89 86 82 80 78 75 71 69 67 66 64 62 60 55 52 50 48 46 45 45 46 46 47 48

GFSCGP_250_spd_063.txt.gz
Wind_Speed
62 61 60 63 59 55 51 52 53 53 49 47 44 35 27 37 38 42 33 22 18 14 8 4 4 4 3 4 5 13 23 19 19 20 17 15 16 16 16 18 18 18 17 15
64 62 66 67 64 60 54 54 54 52 48 46 43 40 46 47 38 31 27 24 19 15 9 4 5 5 7 7 8 14 22 22 22 22 18 16 13 12 13 15 15 16 14 11
67 70 70 68 67 64 61 61 59 55 49 46 42 36 32 17 30 31 29 24 19 16 11 6 6 4 9 9 10 15 20 21 23 21 19 16 14 10 10 11 12 12 11 10
72 73 73 71 69 70 68 68 64 61 51 48 43 38 29 34 32 33 29 24 20 19 15 11 8 6 9 11 14 15 16 20 20 19 19 19 17 14 10 8 8 7 8 9
80 79 75 75 74 73 72 73 70 67 58 55 46 40 38 35 35 34 31 27 23 19 17 13 10 7 10 11 14 15 15 17 20 19 23 23 21 14 10 6 4 4 3 5
86 87 83 82 79 77 77 76 76 72 69 57 53 47 42 37 36 38 35 29 27 23 19 16 15 9 9 11 11 17 18 17 21 22 25 26 21 17 14 9 4 5 3 2
89 91 90 89 86 85 80 80 78 79 77 60 61 54 48 45 44 43 41 35 32 27 23 21 20 14 15 12 12 8 17 21 21 23 23 25 24 23 20 13 8 6 6 5
88 88 93 93 91 90 88 86 82 79 79 66 69 58 53 54 51 47 45 39 35 30 28 28 23 20 17 16 13 15 12 18 21 22 22 23 25 24 24 17 12 9 9 9
92 93 90 90 94 95 89 96 83 84 83 78 75 72 64 62 58 55 47 45 38 39 37 32 27 25 23 19 19 16 19 18 18 17 17 23 24 24 23 21 19 15 12 13
97 93 98 95 93 91 98 94 95 93 87 81 82 78 68 67 64 62 59 52 50 47 43 36 34 31 27 23 18 18 19 22 22 19 16 20 24 25 24 25 26 23 21 19
103 97 98 97 93 97 99 96 103 100 95 87 84 82 78 74 71 69 65 63 57 55 49 44 41 34 30 26 23 18 21 23 24 26 24 20 22 23 23 24 25 24 23 20
103 100 105 102 99 103 105 101 104 107 101 94 89 91 86 83 77 73 74 69 63 60 56 52 47 40 35 32 28 23 23 24 27 29 30 28 23 22 23 24 23 23 24 22
101 93 100 108 107 108 104 101 103 100 103 102 97 91 91 89 82 77 78 73 69 65 62 57 50 41 39 36 32 29 28 26 28 30 30 29 27 24 25 26 26 27 25 24
91 94 96 104 111 117 113 111 111 112 107 106 102 101 99 91 85 81 83 79 76 72 67 61 54 47 43 40 38 34 31 28 28 30 31 31 29 29 28 24 26 28 27 26
86 88 93 97 106 108 108 108 112 106 107 106 107 109 102 95 91 88 92 85 83 76 69 65 57 53 49 45 41 37 33 31 31 31 32 32 30 29 28 27 26 28 29 28
73 77 88 91 99 99 102 109 111 112 106 108 105 106 108 104 98 99 99 95 81 75 72 66 65 60 52 49 47 43 39 36 35 35 37 39 35 31 31 32 30 30 31 32
67 70 78 83 94 97 102 104 108 113 113 110 109 104 111 108 102 103 102 93 81 80 72 71 68 61 57 54 51 49 45 40 38 37 35 35 32 31 32 30 30 31 33 32
58 67 76 79 88 94 88 96 104 111 115 114 112 117 116 116 114 101 98 90 87 86 79 77 74 67 61 57 53 51 47 45 43 40 37 35 34 37 37 33 32 32 31 32
52 60 69 76 85 83 82 100 103 106 109 114 117 118 116 119 117 101 100 98 96 88 83 79 76 70 65 62 60 57 53 50 46 43 40 38 36 36 37 39 38 37 34 33
45 52 60 70 73 78 83 87 93 99 106 117 120 120 121 123 117 109 109 106 100 92 87 81 78 73 70 68 65 61 58 54 52 48 45 41 39 37 37 37 37 36 35 34
32 45 53 60 65 70 78 82 82 89 101 109 115 116 117 119 117 119 110 106 101 95 89 84 80 76 75 71 68 65 62 59 60 55 47 43 40 38 38 37 36 35 35 36
21 34 45 51 59 62 62 64 72 80 93 102 111 120 119 121 113 112 110 105 101 97 92 87 83 79 78 75 71 70 67 68 63 58 52 48 43 40 38 38 36 37 36 38
17 22 30 40 46 51 57 66 71 76 85 95 108 117 120 118 115 119 113 108 103 100 95 90 85 82 81 77 73 72 71 67 62 59 55 52 46 43 41 39 39 39 39 38
11 18 22 29 38 45 53 60 67 73 81 91 104 111 115 114 122 123 116 110 105 103 97 92 89 84 81 78 75 73 69 68 64 60 58 56 50 48 46 44 42 42 41 40
6 10 19 25 30 37 47 57 64 71 78 84 94 108 112 120 125 123 117 112 107 101 97 93 90 87 82 80 77 76 73 70 66 62 61 59 56 55 51 48 46 44 43 42
9 7 14 20 26 33 38 49 60 67 73 83 97 106 112 118 122 122 117 113 110 101 98 95 92 87 84 81 79 78 74 70 65 64 62 62 60 57 55 51 50 49 47 46

GFSCGP_250_spd_066.txt.gz
Wind_Speed
61 62 62 64 61 57 54 54 52 53 52 48 44 36 33 38 36 44 32 25 22 20 16 13 10 8 8 5 8 18 19 18 20 19 19 18 17 16 17 19 17 15 17 13
63 61 66 67 66 61 57 56 54 53 53 51 49 44 38 31 25 24 37 30 26 14 15 11 9 8 10 7 11 18 24 19 20 19 19 19 17 16 16 17 17 15 13 12
65 68 68 67 67 67 63 61 60 56 53 51 49 45 41 41 25 30 39 33 23 19 17 11 8 7 9 7 12 16 23 21 19 20 19 19 18 16 16 14 14 13 12 12
69 71 71 70 67 68 67 68 65 60 54 50 49 46 43 35 32 39 29 40 26 24 18 13 8 7 9 9 13 15 18 23 20 22 19 18 16 15 14 12 10 11 11 11
75 74 73 72 72 71 69 72 70 67 60 53 47 44 44 41 42 52 30 29 26 25 19 15 11 12 11 11 13 18 16 21 22 23 22 19 17 14 12 10 8 6 7 8
82 81 78 75 75 75 76 72 73 70 68 56 50 45 42 40 51 44 37 35 29 27 24 21 17 13 11 11 12 15 21 20 23 23 24 23 18 15 12 10 7 5 4 4
87 86 85 84 81 79 78 76 75 74 75 58 59 52 47 45 58 47 33 33 32 30 28 26 23 17 16 15 11 13 18 23 24 24 25 25 22 18 16 13 7 4 2 0
86 87 92 89 87 86 83 81 81 76 72 63 68 57 53 52 50 56 46 23 41 32 31 31 26 25 20 20 18 15 14 21 25 24 24 25 26 23 19 16 8 5 4 4
85 88 91 92 93 92 88 90 79 80 78 72 74 68 64 61 59 57 54 45 42 38 34 35 30 28 25 21 20 19 16 17 21 22 21 24 27 26 24 21 16 11 8 7
93 88 92 91 94 91 97 87 91 88 82 75 76 74 70 67 63 60 56 53 45 44 41 35 34 31 30 24 20 22 20 19 18 21 23 23 25 26 24 24 23 19 16 15
94 94 96 96 89 89 90 93 98 95 91 81 78 76 75 74 70 68 62 61 53 49 34 51 44 40 35 28 27 23 22 23 23 24 28 27 27 27 26 25 23 23 22 21
96 96 94 98 94 95 97 95 101 104 98 92 86 82 82 80 78 73 70 67 56 65 61 55 61 53 43 36 31 26 24 26 27 25 27 29 29 28 26 27 27 26 24 22
100 102 101 100 102 103 98 94 100 100 101 99 93 87 84 88 86 80 77 73 76 67 61 55 31 43 47 40 35 32 30 27 27 27 28 29 30 32 31 29 27 26 24 23
97 105 105 103 104 115 110 104 107 106 102 101 97 94 95 93 92 89 84 80 74 72 67 67 56 36 43 45 41 37 34 30 29 28 28 29 32 33 33 32 28 26 25 24
88 95 102 103 107 113 112 107 107 102 101 98 96 100 98 100 99 97 92 89 89 88 83 73 70 42 38 55 47 42 39 37 34 32 30 32 32 31 31 32 30 29 26 25
83 87 93 98 103 111 107 107 106 109 100 102 98 106 107 110 103 99 97 98 96 97 89 82 80 73 53 46 46 46 45 42 40 37 35 32 32 31 32 30 28 29 29 29
72 76 85 90 96 108 111 108 107 108 107 104 104 99 105 112 111 105 102 102 100 96 90 83 79 73 62 50 47 50 55 46 44 44 40 36 34 33 35 31 29 31 35 34
55 61 79 83 93 100 93 103 106 109 108 109 105 103 108 109 115 110 106 101 100 98 90 85 83 78 66 47 34 56 60 50 50 47 44 40 37 38 39 40 36 33 35 36
53 52 67 75 83 87 91 100 109 113 113 114 121 114 116 116 114 118 116 108 102 101 99 91 88 82 77 76 63 42 52 53 54 53 50 46 41 39 38 36 36 35 33 32
42 47 52 64 74 81 84 93 99 105 108 116 112 110 120 123 123 125 122 115 105 101 102 93 91 89 87 87 88 72 62 60 59 60 55 48 44 40 39 37 35 36 38 38
31 41 48 54 66 72 84 83 93 97 103 110 113 115 123 127 126 122 117 116 109 103 103 98 93 90 89 86 81 72 68 66 66 63 55 49 47 44 41 40 35 34 36 36
24 33 42 49 56 64 66 78 86 87 93 103 109 114 123 129 124 116 112 111 113 108 105 99 94 93 90 86 83 77 72 71 69 63 59 55 51 48 44 43 39 37 37 36
20 24 33 42 49 52 58 70 79 84 90 98 105 110 119 124 124 122 118 119 114 111 109 107 103 99 93 87 84 80 76 74 69 65 62 59 55 52 48 45 42 40 40 39
13 18 22 31 38 43 50 58 62 68 79 90 98 104 112 117 121 125 124 121 115 114 114 114 107 102 97 90 87 83 79 75 71 68 66 64 60 57 53 49 47 44 44 43
5 9 17 22 29 36 42 48 53 56 66 80 87 92 100 112 119 126 127 125 117 112 115 117 109 102 99 92 89 87 82 76 73 72 71 68 64 61 58 55 54 51 49 48
3 6 12 18 23 30 37 42 46 53 63 75 80 84 93 109 118 125 128 125 116 114 119 119 111 104 100 94 90 87 84 80 76 76 74 70 66 65 62 61 59 55 53 53

GFSCGP_250_spd_069.txt.gz
Wind_Speed
59 59 61 62 60 60 61 59 56 53 52 48 45 42 38 40 30 16 20 28 22 15 21 12 8 11 6 6 11 18 19 18 16 17 17 16 15 14 14 15 13 17 11 12
61 59 63 64 64 62 59 58 58 58 56 54 50 47 44 42 32 27 19 31 30 25 28 13 11 9 5 8 11 22 22 19 16 18 17 16 16 15 13 12 11 13 9 10
65 67 68 65 65 65 63 60 60 58 57 54 52 52 48 43 36 30 27 29 28 22 16 15 13 8 4 7 9 18 24 21 18 18 18 16 16 15 15 12 12 11 9 9
67 71 69 68 66 66 66 66 64 60 54 50 51 50 50 47 41 35 30 38 40 30 19 18 16 11 7 9 8 14 26 21 20 19 19 18 16 14 15 13 11 11 10 7
70 71 69 70 70 68 67 70 69 65 57 53 48 46 51 49 48 45 43 35 26 29 19 22 18 13 8 7 9 12 23 24 19 21 21 20 18 15 12 13 11 10 8 5
78 75 72 70 72 71 71 70 71 69 64 56 52 48 46 49 48 47 38 41 31 29 19 26 21 14 10 8 9 11 15 24 24 25 24 21 19 17 13 11 9 8 8 8
85 83 81 78 76 75 74 74 72 71 69 58 62 56 51 51 49 52 47 40 36 28 22 26 23 18 15 11 9 12 15 17 23 24 26 24 21 19 15 11 8 8 5 5
87 86 87 88 82 80 79 79 76 73 68 64 71 60 57 56 51 52 60 48 31 23 26 27 26 23 18 15 13 12 15 19 20 21 23 26 25 22 19 15 10 6 5 3
81 83 87 88 89 88 84 79 75 77 75 73 72 66 63 58 53 52 60 55 41 34 30 30 30 26 22 19 14 13 15 18 20 21 20 25 28 26 21 20 16 8 7 6
83 86 89 89 88 86 88 84 87 82 77 74 72 69 67 67 59 58 59 55 51 44 37 34 33 29 26 22 20 18 18 17 19 20 23 24 26 29 27 25 23 19 14 12
90 89 91 90 88 93 95 95 96 89 82 76 75 70 72 75 69 65 65 56 58 57 54 50 39 36 37 30 27 22 22 21 20 20 22 26 28 29 31 30 28 25 23 21
88 93 95 96 93 93 91 93 96 96 90 85 79 71 76 80 80 69 67 62 62 52 54 51 49 46 44 40 33 30 25 25 22 20 22 26 28 31 31 32 31 29 27 27
91 93 95 97 100 101 101 97 98 101 97 91 88 77 87 86 84 77 72 71 77 61 59 60 57 45 40 47 39 34 31 26 26 24 23 25 28 31 33 33 33 33 31 30
98 100 100 98 101 107 103 101 102 103 102 96 93 85 90 92 89 86 82 79 77 75 65 57 60 53 44 40 52 38 36 35 30 29 27 25 28 30 30 29 31 31 30 28
91 99 106 108 107 113 109 105 102 104 99 96 97 91 99 98 96 93 91 85 77 78 74 72 67 62 55 48 49 45 41 41 37 32 33 29 28 28 30 31 29 26 29 28
84 88 93 98 108 115 110 110 109 106 100 94 95 94 111 109 101 94 95 91 84 77 80 80 75 65 60 43 38 44 45 44 40 38 35 33 31 31 32 32 30 28 27 24
78 81 88 85 96 107 111 106 109 106 102 100 100 102 110 111 108 104 98 96 92 88 89 79 72 57 47 43 37 38 42 47 46 46 40 37 37 35 33 33 31 30 29 24
66 65 75 80 91 97 94 104 109 111 107 109 107 114 120 111 113 108 104 100 98 96 92 91 80 77 64 40 32 47 42 48 52 52 44 41 42 40 38 35 35 34 34 31
58 58 58 68 82 88 91 97 101 107 112 113 114 115 116 110 112 113 110 103 100 100 98 95 91 87 84 64 43 46 43 40 52 57 52 45 45 45 42 40 36 35 36 36
42 46 49 54 71 76 89 93 92 97 103 112 114 116 116 112 117 114 115 109 105 102 103 100 100 98 85 92 72 68 59 64 61 57 58 57 51 49 47 42 38 35 38 39
31 33 42 45 54 65 77 83 87 91 96 104 114 119 119 118 118 117 118 113 111 106 105 106 105 102 94 99 99 77 77 72 61 60 60 61 57 56 50 44 40 39 38 36
18 24 34 43 48 51 62 73 79 85 93 100 107 115 120 122 119 117 118 118 118 118 114 110 110 108 105 103 100 86 75 74 75 64 62 66 58 60 50 46 43 41 40 38
15 19 25 34 42 45 56 66 74 79 88 97 105 109 113 116 121 117 117 120 121 123 118 114 114 116 113 113 106 95 86 56 77 73 66 57 57 56 53 50 47 43 43 41
16 19 24 25 32 41 47 55 64 70 79 90 99 105 106 108 118 122 118 121 123 122 123 120 116 117 117 115 112 108 107 92 89 88 72 68 64 59 57 56 52 49 47 46
17 17 21 22 26 32 40 47 55 63 70 76 85 95 98 101 111 119 124 120 125 124 123 125 122 120 118 115 113 111 110 108 102 103 98 82 73 68 64 60 57 54 52 50
14 18 19 21 24 28 33 39 46 54 59 63 71 80 90 99 109 114 120 126 123 126 126 125 128 122 119 119 116 112 109 107 105 104 99 86 78 76 69 64 61 59 57 55

GFSCGP_250_spd_072.txt.gz
Wind_Speed
63 61 61 63 66 66 64 61 60 57 56 49 45 43 41 39 41 36 32 26 23 18 19 20 12 11 5 5 7 15 18 15 15 15 14 11 9 10 9 10 10 10 16 15
63 63 67 65 64 65 64 62 62 62 59 54 51 50 47 41 42 38 36 30 22 17 24 19 12 12 6 8 8 16 22 18 17 16 16 14 12 12 10 8 7 6 10 12
66 69 68 67 65 63 63 63 66 64 59 57 53 52 50 47 43 41 38 34 24 25 25 16 12 14 11 10 10 18 23 22 18 19 18 16 14 13 11 9 8 7 9 9
68 70 69 67 67 67 65 65 65 65 59 58 56 56 55 51 48 47 44 38 33 30 24 20 19 17 14 13 11 16 26 25 22 21 21 18 16 15 13 10 10 8 8 6
71 72 71 70 69 67 69 69 68 66 59 55 53 54 58 56 55 53 51 43 34 29 32 32 24 23 16 14 10 15 29 27 25 23 22 20 18 15 13 11 9 7 6 4
77 76 75 74 72 68 70 68 70 68 62 57 56 53 52 58 59 58 53 48 40 34 31 30 21 26 17 17 11 14 24 31 28 27 25 23 20 17 14 12 10 8 6 3
78 77 77 78 77 76 75 73 72 70 67 62 64 57 55 58 60 61 58 52 46 41 33 37 25 28 20 19 13 15 21 29 28 27 26 25 23 21 16 13 11 8 6 4
84 83 82 76 75 76 75 77 75 71 68 68 71 61 60 61 56 56 59 54 54 51 41 35 27 29 22 19 18 16 22 28 31 27 27 26 25 24 21 16 12 10 7 5
86 89 87 84 83 79 79 77 77 75 73 72 72 67 69 69 62 58 57 57 56 49 46 45 36 32 32 22 21 17 20 25 28 29 28 28 26 25 23 19 16 12 9 7
84 89 88 90 90 87 87 84 82 78 76 75 73 71 73 76 71 65 58 55 56 52 49 46 41 37 35 29 22 22 18 19 26 27 28 28 28 28 25 24 21 17 13 10
88 91 91 93 93 94 93 95 89 82 78 77 72 73 84 78 76 70 63 54 59 53 55 43 40 37 37 33 30 26 24 20 21 26 28 28 26 29 31 29 26 24 22 18
91 93 94 93 94 96 96 98 96 91 86 83 78 84 87 84 80 76 69 64 59 66 56 44 43 42 42 36 33 32 28 27 23 20 24 27 29 28 29 31 32 30 27 26
90 91 95 96 98 98 98 98 98 95 93 92 86 86 91 89 85 79 75 68 62 62 68 60 55 47 45 43 42 38 34 28 26 24 23 23 26 30 30 29 31 33 32 30
90 92 94 98 103 103 100 102 101 98 96 95 95 92 95 95 88 82 78 74 71 66 67 67 56 51 45 49 46 45 39 35 32 28 26 27 24 24 24 25 28 29 29 30
91 91 94 96 101 105 106 103 105 101 98 98 102 100 102 100 92 85 82 80 79 75 66 64 61 57 57 55 52 47 46 41 36 34 28 29 28 25 24 24 27 26 26 29
91 97 99 101 104 107 106 107 109 105 104 107 105 105 101 101 97 91 84 85 82 80 71 73 71 74 73 67 60 47 46 44 41 39 32 31 33 31 29 25 26 25 26 24
80 88 94 103 109 111 110 108 110 111 115 111 107 104 101 103 104 98 91 85 85 82 79 83 79 75 75 70 59 47 43 39 47 41 44 36 38 37 33 28 27 26 27 26
73 80 88 92 98 105 103 112 111 112 115 113 110 107 105 102 107 105 99 90 89 88 87 86 85 79 74 73 64 64 54 44 42 50 56 46 40 44 37 33 29 28 27 26
63 70 76 82 91 92 91 103 112 111 115 111 112 110 108 106 108 110 106 99 93 93 92 90 92 85 75 75 66 64 55 55 56 52 48 49 48 46 43 39 35 29 28 30
53 59 60 65 73 77 88 95 101 105 108 112 110 113 113 113 110 114 112 106 102 99 99 99 99 95 85 79 63 68 56 57 52 45 45 51 54 53 47 40 38 36 31 32
42 45 46 51 57 62 69 81 93 97 100 103 109 114 116 117 113 115 114 112 109 105 104 105 107 104 97 88 79 75 69 53 55 50 51 60 58 56 54 46 43 42 37 35
32 35 37 43 48 52 59 66 80 89 95 99 99 109 118 117 119 119 119 117 114 111 111 111 112 110 103 98 84 72 71 70 63 58 52 52 59 59 55 51 48 49 41 37
18 23 25 34 40 43 49 54 63 76 84 90 93 99 112 118 121 122 123 120 119 116 118 115 113 113 108 103 95 86 82 76 72 64 55 54 54 50 54 54 55 56 46 41
16 16 17 21 28 34 41 45 54 66 70 78 83 92 101 114 121 124 124 123 123 122 120 121 117 117 112 108 103 98 98 85 88 78 72 67 63 59 50 61 55 59 51 47
20 18 21 25 25 28 34 39 46 55 62 67 76 83 93 105 117 120 126 125 126 126 123 123 122 120 118 116 114 108 109 104 97 90 83 83 70 66 63 66 67 58 56 55
22 23 23 25 26 29 29 33 39 47 53 62 67 72 84 98 107 116 121 128 127 128 126 124 126 124 122 122 123 119 117 114 111 104 98 94 77 77 74 64 66 61 58 57

GFSCGP_250_spd_075.txt.gz
Wind_Speed
65 65 67 70 69 68 64 62 59 55 51 50 47 46 45 44 41 39 36 32 28 23 20 21 19 20 11 12 11 10 13 14 13 12 11 13 7 10 7 13 10 14 11 12
68 68 69 68 69 69 67 68 65 61 56 53 51 49 48 46 48 44 41 39 35 28 20 18 16 14 11 13 12 12 14 16 15 15 13 11 8 9 8 6 8 8 9 11
72 75 70 68 66 67 68 72 70 65 60 58 55 55 53 51 48 45 42 42 38 29 29 25 19 16 13 11 15 13 16 17 17 15 14 12 11 10 12 10 7 8 7 10
75 75 73 70 69 68 66 71 72 69 65 62 59 58 57 53 53 50 47 44 41 36 29 28 22 17 18 14 13 17 17 21 19 18 17 16 12 11 10 9 8 9 7 9
75 76 76 74 73 71 73 71 69 63 65 64 61 60 61 60 59 57 52 47 44 40 35 29 22 25 21 23 16 15 18 23 23 21 20 17 17 13 10 9 10 9 7 8
79 77 77 78 76 72 74 73 72 66 61 61 62 61 62 67 67 64 57 52 47 44 39 37 32 27 25 19 21 13 16 24 26 22 23 20 17 14 13 10 9 7 6 5
81 80 78 78 77 77 76 75 75 72 66 64 62 62 66 71 66 63 59 52 50 46 45 39 35 27 25 18 23 13 15 26 28 25 24 22 21 19 16 14 11 8 7 6
84 82 82 81 80 78 79 77 75 73 70 69 68 66 70 68 65 64 59 60 56 50 48 45 38 34 27 24 25 18 16 23 31 28 26 25 25 22 19 17 13 10 9 7
88 85 84 83 84 83 82 80 78 76 74 72 73 73 74 70 64 61 57 58 58 55 53 49 42 38 30 26 28 24 19 19 30 31 29 27 26 26 23 21 18 15 12 9
91 91 89 88 87 87 86 83 82 80 79 77 78 80 73 72 66 60 56 56 56 58 54 53 47 38 34 30 32 29 26 23 24 34 32 29 29 26 26 26 23 19 16 13
95 96 96 95 93 89 88 86 85 84 85 84 84 81 74 71 68 63 60 57 54 52 54 56 52 46 41 32 37 34 30 25 26 30 35 34 33 32 30 28 27 25 21 17
97 98 100 99 98 95 94 91 88 88 88 89 87 86 79 74 70 69 65 64 60 54 52 55 54 47 47 44 40 38 33 29 26 26 28 32 33 34 35 33 32 31 27 25
98 100 102 100 99 97 97 96 95 93 93 92 90 84 84 80 75 72 71 69 67 62 58 55 56 51 50 49 48 43 39 33 28 24 24 25 30 33 35 35 35 35 33 32
97 100 103 102 101 99 99 99 99 101 100 98 91 86 86 85 81 79 77 74 72 69 63 56 56 58 53 54 51 48 43 37 32 30 26 23 23 27 28 31 33 34 35 35
96 96 98 102 103 102 101 103 104 104 105 104 99 96 89 91 87 84 81 81 77 76 71 63 65 64 53 53 55 52 48 44 40 34 32 30 26 23 22 24 29 31 31 32
95 96 98 99 101 103 105 107 108 108 107 106 104 101 99 98 93 90 85 84 83 81 79 73 74 73 71 64 60 56 53 51 46 41 36 33 32 29 26 24 23 27 29 27
91 94 97 97 99 102 106 110 113 112 110 108 108 104 102 102 102 97 93 89 87 86 84 81 76 79 79 73 67 59 57 57 51 47 41 37 35 36 33 27 22 23 28 27
87 92 96 98 99 101 105 110 116 118 117 114 110 108 105 105 105 104 101 97 92 89 88 86 84 82 82 78 74 68 63 57 52 46 48 43 41 41 39 35 30 25 25 29
78 82 88 93 99 102 107 112 118 121 120 118 114 112 110 108 107 107 106 103 99 95 92 91 92 89 86 82 80 73 68 64 59 54 52 47 48 47 48 42 40 33 27 29
70 79 85 89 92 96 102 110 114 119 120 121 119 118 116 113 113 111 110 108 106 102 99 96 93 95 92 87 82 78 72 69 72 62 57 49 47 48 50 49 48 43 32 30
55 63 71 78 83 89 97 104 105 105 113 114 117 120 119 119 118 115 114 113 110 107 106 101 99 97 98 93 88 84 81 72 73 69 64 53 51 55 51 51 46 47 41 34
44 51 58 62 68 75 85 88 93 98 101 100 101 110 118 120 120 120 117 117 115 113 109 108 104 101 101 99 92 89 87 81 77 78 70 69 62 57 54 53 51 47 49 40
28 36 40 46 55 62 68 70 74 79 85 86 91 100 101 111 119 122 120 121 121 118 114 111 110 105 105 103 101 100 95 85 85 84 84 76 72 69 66 63 56 50 50 52
30 30 35 39 42 46 49 54 58 63 68 71 79 87 93 97 109 122 123 123 126 123 121 116 115 112 109 109 109 107 103 99 83 87 88 84 69 69 67 63 60 58 50 52
34 33 35 37 40 43 44 47 48 52 58 60 65 75 81 88 96 111 123 126 126 129 125 121 118 118 116 113 116 112 110 103 87 83 84 84 81 76 72 63 60 61 56 55
35 37 37 36 37 38 40 39 40 50 51 54 57 64 73 80 87 99 114 122 125 129 130 126 122 121 121 119 119 117 116 111 98 87 87 86 80 77 75 67 66 67 62 55

GFSCGP_250_spd_078.txt.gz
Wind_Speed
64 67 72 73 72 68 67 61 56 51 50 47 46 42 41 40 43 35 30 34 29 22 23 18 16 16 17 16 13 11 6 9 7 6 5 4 4 3 7 7 12 13 14 16
69 69 70 71 72 71 70 65 61 56 52 51 49 47 47 44 42 42 41 36 33 28 28 23 15 16 16 17 13 10 8 11 11 9 8 6 4 3 2 5 4 9 10 12
75 75 69 70 71 73 73 72 66 60 57 55 54 52 50 48 48 47 45 42 41 36 31 28 19 22 16 15 18 11 10 11 15 11 9 9 6 4 4 8 3 3 7 9
79 78 74 71 70 71 77 77 70 64 61 60 59 57 55 54 53 52 50 48 41 35 30 26 23 20 22 16 16 19 11 11 14 15 15 12 8 7 6 5 3 3 1 4
77 80 78 75 75 73 78 76 74 70 66 64 63 63 63 63 58 55 52 48 44 38 31 28 25 22 20 19 17 20 18 11 14 17 16 15 12 10 7 6 6 5 4 2
79 77 79 80 76 79 75 74 72 71 70 68 65 68 73 65 59 56 54 51 47 41 35 33 32 28 23 22 20 16 19 14 13 20 18 17 15 12 10 7 8 5 6 3
83 80 78 80 80 81 79 78 74 72 69 68 70 72 71 67 64 60 57 55 50 45 41 38 37 32 31 28 21 18 17 18 13 19 20 19 18 16 13 10 11 6 7 4
87 85 82 81 79 82 82 81 79 76 73 71 70 68 67 69 66 62 59 58 55 50 45 41 40 36 31 33 29 23 22 21 18 17 22 21 21 19 17 15 14 10 8 7
90 88 87 86 83 83 82 82 82 80 77 75 73 68 67 66 66 65 62 61 57 53 50 46 44 41 35 32 31 27 25 24 24 19 25 24 23 22 21 19 16 13 12 10
93 92 90 89 89 87 85 84 84 83 80 78 74 72 68 67 64 62 61 60 59 57 55 52 48 45 41 34 33 30 26 26 26 25 24 28 26 24 24 23 20 18 17 13
100 98 95 93 91 90 89 87 85 84 82 79 76 74 71 69 67 64 62 61 58 56 57 56 53 47 47 39 39 36 31 28 27 26 25 28 29 29 27 26 25 23 19 17
104 105 102 99 97 94 92 90 89 87 84 81 79 77 73 72 70 69 68 66 62 58 55 53 54 49 48 46 42 38 33 29 30 26 23 25 27 30 31 31 28 27 24 22
104 103 103 101 100 98 96 94 92 90 88 86 82 78 76 76 75 72 71 71 69 65 59 56 51 51 48 49 48 48 41 34 33 30 26 24 25 28 32 31 32 31 28 28
104 104 101 101 102 102 99 97 95 92 90 88 86 83 81 79 79 77 75 74 72 70 66 62 56 54 50 53 54 53 50 45 38 35 31 28 26 28 29 31 31 32 32 31
102 103 102 101 101 103 103 102 100 98 95 92 88 87 86 85 84 82 81 79 76 74 72 68 64 59 54 53 54 54 53 54 44 42 39 35 29 27 26 26 29 29 28 32
103 104 105 104 103 104 105 105 104 103 101 99 95 91 91 89 88 88 86 84 82 79 77 74 70 66 63 59 63 57 57 57 51 50 46 40 35 31 27 25 25 27 25 24
94 101 105 105 106 107 105 105 106 105 105 105 103 101 96 94 92 91 90 88 87 85 83 80 76 73 70 65 66 69 62 61 56 55 51 46 40 37 33 31 27 27 26 21
85 92 99 102 107 109 107 108 107 108 108 108 108 107 105 102 100 97 95 93 91 90 88 86 82 79 77 72 70 69 67 65 62 59 57 52 47 42 37 33 31 30 28 24
78 84 90 95 101 104 108 110 111 111 111 112 113 112 111 109 107 105 103 101 97 94 92 91 89 85 84 80 75 74 74 73 66 62 62 56 52 46 42 38 35 33 30 29
69 75 81 88 96 101 104 110 114 115 116 115 116 117 115 113 109 109 109 108 106 102 97 94 93 93 90 87 83 80 81 77 72 67 65 61 58 53 49 46 39 34 35 33
69 72 74 77 83 91 99 105 110 112 116 121 121 119 118 117 114 113 111 111 111 110 107 102 98 96 96 93 89 88 89 87 80 75 69 63 62 59 55 55 52 45 43 39
57 64 71 77 82 85 90 93 99 105 109 112 116 120 122 119 117 117 116 116 115 115 113 111 106 102 100 98 95 94 93 92 90 83 78 71 68 67 58 55 54 53 50 46
42 50 59 68 75 81 87 92 94 96 97 100 105 112 117 119 120 121 119 120 121 120 119 117 113 110 106 102 100 99 100 96 94 92 85 81 78 74 67 60 58 62 58 51
46 48 49 54 61 68 76 83 88 91 92 93 96 99 101 102 104 114 124 126 125 126 126 123 119 115 112 109 105 102 102 101 99 97 90 86 84 81 79 72 66 64 62 56
47 49 51 54 56 58 61 68 75 80 84 89 90 90 93 92 89 94 106 121 129 128 130 129 126 122 116 114 113 107 106 105 103 101 96 95 92 87 83 81 75 65 62 58
37 42 42 47 50 54 56 57 59 62 66 69 73 79 82 84 80 80 93 104 113 129 133 131 130 127 123 118 117 115 109 111 107 105 104 99 97 96 94 90 83 78 69 61

GFSCGP_250_spd_081.txt.gz
Wind_Speed
64 72 77 79 76 70 66 62 58 54 50 48 46 45 47 42 36 33 34 29 22 22 21 14 12 12 13 18 17 15 11 4 5 1 2 2 5 5 8 12 15 16 18 19
68 68 73 75 78 75 69 66 60 55 54 51 49 48 48 49 47 44 38 36 33 28 25 23 20 16 14 12 15 15 15 7 6 7 4 3 5 5 4 8 10 13 15 18
75 72 67 71 76 78 77 72 65 60 57 55 53 51 49 50 50 49 45 34 35 33 28 26 21 23 13 13 11 13 13 14 4 9 10 6 4 4 5 5 7 9 10 16
79 73 70 68 70 74 78 78 71 66 63 59 57 55 53 51 51 51 49 45 41 36 31 30 25 23 19 14 15 13 12 13 7 9 12 12 5 4 4 4 5 6 8 9
82 80 77 74 74 73 79 77 73 70 68 65 62 59 57 54 49 48 47 44 42 39 36 33 27 24 22 16 17 15 13 12 9 10 12 13 10 5 5 5 4 6 4 4
80 82 81 80 77 75 71 74 74 72 71 70 67 65 61 56 53 53 51 48 47 44 41 35 30 29 25 20 20 17 15 12 11 12 15 13 12 9 7 6 4 7 3 3
82 80 81 84 82 79 75 72 71 73 72 71 71 69 65 61 59 57 55 52 50 48 44 41 36 32 28 24 23 25 20 16 12 11 18 17 15 13 10 8 6 6 7 2
87 85 81 81 83 83 81 78 74 70 71 70 70 69 68 65 63 61 59 58 55 52 47 44 41 36 32 31 29 26 23 22 19 17 17 21 17 15 13 12 9 7 9 8
92 87 85 83 83 84 84 82 79 74 73 73 70 69 71 70 67 64 62 61 59 56 52 48 46 42 38 35 32 28 25 22 22 20 19 22 23 19 17 16 12 11 12 10
97 94 91 89 87 85 83 85 84 80 77 73 70 69 67 69 68 67 65 63 62 60 57 53 49 44 42 40 36 32 30 25 20 21 18 24 26 23 22 20 16 15 15 15
102 99 96 95 90 88 86 83 82 82 81 78 75 72 71 70 68 66 65 64 64 63 61 57 53 48 45 45 42 37 34 30 25 24 19 19 24 27 25 23 21 20 18 17
105 104 101 99 95 92 90 87 84 81 81 81 78 77 76 74 73 70 68 66 65 63 62 61 57 52 51 49 45 42 38 36 32 29 25 19 22 27 30 26 25 23 21 20
104 103 103 101 99 97 94 92 89 86 82 80 80 80 79 78 78 76 73 71 69 67 63 60 57 54 53 53 50 47 44 43 37 33 30 24 22 24 29 29 27 26 25 23
105 104 103 101 99 97 95 94 92 90 88 85 81 82 82 82 81 81 78 76 75 73 69 65 60 56 55 55 51 49 48 47 42 38 33 30 26 25 27 31 31 29 28 27
104 103 102 102 102 101 99 97 96 95 93 91 88 86 84 83 83 83 82 80 78 76 74 71 65 60 57 56 53 50 51 51 50 47 40 37 33 28 26 29 32 32 32 32
103 103 103 102 103 104 104 103 101 99 98 97 95 93 91 88 86 85 84 84 81 79 77 75 71 68 63 60 57 53 51 52 54 54 52 44 39 34 31 28 29 29 30 33
97 105 107 106 104 105 105 104 104 104 103 101 100 98 95 93 91 91 88 86 85 83 81 79 76 73 69 66 64 60 59 58 61 60 58 52 47 41 38 33 28 29 29 28
80 94 103 108 108 107 105 105 106 107 108 106 105 103 101 98 96 95 93 91 89 86 85 84 81 78 75 72 70 68 64 62 63 65 63 59 54 50 45 41 37 33 30 28
70 80 91 99 107 109 109 108 108 110 109 110 109 109 108 106 103 100 98 96 94 92 90 88 86 83 80 78 75 73 72 68 65 67 67 63 59 55 52 47 44 39 36 32
63 70 78 86 95 102 107 111 111 111 112 112 112 112 111 111 109 106 103 102 100 99 96 94 92 90 87 84 82 80 78 76 71 67 67 69 66 61 58 55 49 44 41 37
61 63 67 74 81 87 95 103 109 113 114 115 115 115 114 113 113 113 110 108 106 104 102 99 97 96 94 91 88 85 83 81 79 74 72 72 71 66 64 62 57 51 44 41
58 61 64 66 68 72 80 86 93 103 112 118 119 118 119 119 117 116 115 114 112 110 109 107 102 99 99 98 95 93 90 86 84 82 78 74 74 72 67 66 64 57 51 49
55 60 63 65 68 70 73 75 81 89 97 106 117 122 122 122 121 121 120 118 116 115 114 114 112 109 104 103 102 99 96 93 90 86 85 81 78 79 72 68 67 63 59 53
51 56 59 62 66 69 73 77 79 81 86 91 98 106 114 121 122 123 123 124 124 122 120 119 118 117 114 110 107 106 104 101 97 94 89 88 84 85 81 73 72 69 66 63
47 50 54 56 60 63 68 73 76 79 81 86 90 94 98 103 110 116 123 125 127 127 126 124 122 121 121 118 114 113 110 107 103 101 97 93 93 88 87 82 77 76 71 69
41 44 50 53 57 62 66 68 71 75 80 83 83 86 89 94 99 101 105 109 115 124 128 128 128 127 128 127 121 118 118 114 111 107 104 101 97 96 92 90 86 83 79 74

GFSCGP_250_spd_084.txt.gz
Wind_Speed
65 74 79 80 75 69 67 64 60 54 51 48 46 46 44 43 39 34 27 25 19 18 14 12 12 13 14 11 15 15 16 12 6 4 3 5 8 11 11 15 17 20 21 25
70 69 76 79 77 75 71 68 64 59 54 52 48 47 46 44 38 32 29 32 26 25 24 19 16 16 18 12 9 12 12 14 10 4 2 3 6 9 9 10 14 14 16 21
76 71 73 77 79 80 76 72 67 61 57 55 52 49 48 47 45 38 20 26 32 31 27 25 25 19 16 14 11 10 11 11 10 9 3 2 3 6 7 9 10 9 12 13
78 75 70 72 78 81 81 76 70 65 61 58 55 51 49 47 48 46 44 38 26 32 34 31 25 20 20 17 12 12 10 12 11 9 8 3 2 3 4 7 8 7 9 11
80 79 76 73 73 78 81 78 76 71 68 64 61 56 54 50 46 45 47 50 44 42 41 34 31 26 24 20 17 11 9 14 15 10 10 7 4 1 2 4 7 8 8 6
80 82 82 80 74 74 77 77 77 75 74 71 66 60 56 53 49 49 50 51 51 48 42 36 33 33 28 23 20 15 11 15 14 9 11 10 8 6 2 1 3 7 10 10
88 83 84 83 80 73 71 73 76 75 74 76 72 68 62 58 55 55 52 50 50 49 46 42 39 40 36 28 24 19 14 13 15 13 10 12 12 10 8 6 3 3 7 11
91 88 85 86 82 77 75 73 73 72 73 74 74 70 67 64 62 59 57 55 53 50 49 48 46 44 40 34 29 24 21 17 16 15 11 11 14 15 13 11 8 3 1 4
95 89 87 87 87 84 80 76 74 70 74 76 78 70 72 69 66 64 61 60 58 55 53 52 51 47 44 38 33 29 24 24 22 17 14 11 14 18 17 17 14 9 5 1
98 93 91 89 88 89 85 84 78 77 75 74 72 73 70 70 69 68 67 65 63 62 59 58 54 52 48 43 39 34 32 29 26 23 20 14 15 19 21 22 17 14 10 6
102 99 96 95 90 87 89 88 85 82 77 77 72 74 71 72 71 71 69 69 68 65 64 62 60 57 52 47 44 39 39 34 32 29 24 18 14 17 23 24 22 18 15 10
105 103 100 96 94 92 90 89 89 86 83 83 78 72 75 73 72 72 71 69 68 67 66 64 62 61 55 50 49 46 43 39 36 34 30 25 20 19 21 26 25 23 19 16
106 105 103 102 98 95 92 89 87 88 88 87 84 80 81 79 77 74 72 71 70 69 67 66 64 62 56 52 53 50 47 44 41 39 38 34 28 25 23 24 28 26 22 19
107 106 105 105 104 99 96 93 90 89 88 89 93 85 86 83 82 79 77 74 72 70 67 65 63 62 60 57 53 53 52 50 46 43 42 41 36 31 26 24 28 28 26 25
107 108 108 107 103 101 99 97 95 93 90 91 87 88 88 88 87 85 83 80 77 74 71 68 65 62 59 57 55 53 56 54 50 47 46 46 42 36 32 28 28 30 30 29
102 105 106 108 107 106 104 102 100 99 97 94 91 88 90 88 90 90 88 85 82 80 77 74 70 66 64 60 58 55 55 55 52 51 51 49 46 43 37 33 28 27 30 31
85 103 108 107 107 109 109 109 106 104 103 100 100 92 93 91 90 90 91 90 88 85 82 79 76 73 69 65 63 61 58 57 57 57 55 54 51 49 43 36 32 30 29 28
74 83 102 110 110 110 106 106 108 108 105 105 102 100 98 96 95 93 92 91 89 88 87 84 82 79 76 72 69 67 65 64 61 57 58 56 56 54 52 46 40 36 31 29
69 72 80 95 110 110 110 109 108 108 108 108 106 105 103 101 100 98 96 95 92 90 89 87 86 84 81 78 75 72 71 69 67 63 59 57 60 62 58 55 50 42 38 34
67 68 71 75 88 104 112 113 112 111 110 111 111 110 108 106 106 100 100 101 100 98 96 93 91 88 86 83 80 78 76 75 73 71 66 61 60 63 63 59 55 51 44 41
66 67 68 71 74 81 95 109 113 115 113 114 113 113 112 112 112 107 109 106 105 104 103 101 98 95 92 89 85 83 81 80 78 77 74 70 65 66 65 66 63 57 52 47
60 65 68 70 73 74 80 91 104 112 116 117 117 116 116 115 116 115 114 114 111 109 108 106 105 102 98 95 92 89 86 85 84 82 80 78 75 72 69 67 67 63 60 57
56 59 62 67 69 72 76 79 86 95 106 115 119 120 120 120 121 122 121 118 119 117 115 113 110 108 105 102 99 97 93 90 88 87 86 83 81 79 76 71 72 71 67 64
54 57 60 62 66 70 74 75 78 83 90 96 104 113 122 124 124 124 125 124 123 122 121 121 118 115 113 109 106 104 101 98 95 92 91 89 87 85 83 80 74 75 73 67
46 51 55 59 61 65 69 73 77 80 82 87 93 101 107 114 122 127 129 128 128 126 126 125 124 122 121 119 115 112 110 106 103 101 98 95 93 90 88 87 83 78 79 76
44 49 50 53 58 62 64 66 69 75 80 85 87 90 93 100 106 113 121 127 131 132 131 129 129 128 126 125 123 120 118 115 111 108 106 103 99 97 94 92 90 87 82 81

GFSCGP_250_spd_087.txt.gz
Wind_Speed
64 62 66 74 78 75 73 68 65 57 56 52 50 44 39 37 35 30 33 21 17 17 11 9 11 11 14 17 12 17 17 14 9 10 10 10 14 13 16 18 21 23 25 25
66 66 66 72 77 73 72 71 68 61 61 56 53 49 43 41 35 32 35 31 26 22 18 16 14 15 15 16 13 12 14 17 11 11 11 10 11 12 13 15 18 20 20 22
71 72 70 67 73 77 77 73 71 68 64 59 55 51 47 46 44 39 33 30 29 26 25 21 19 21 20 17 13 15 12 15 14 11 9 10 8 8 10 13 15 17 16 20
79 73 70 68 69 76 80 78 74 69 66 62 58 53 50 47 48 45 36 31 32 25 25 26 27 24 20 18 18 13 6 12 14 12 8 7 8 8 8 10 13 14 14 14
82 75 73 73 70 74 81 79 75 73 68 65 61 55 41 52 48 46 46 45 33 32 28 26 29 29 27 27 22 13 10 8 11 12 10 6 7 6 5 7 11 14 12 10
89 82 78 78 76 73 79 76 77 76 71 68 65 62 60 57 51 49 47 48 47 37 34 32 35 37 36 27 23 18 15 11 6 8 11 10 7 6 6 3 6 11 13 10
89 85 81 79 78 75 69 76 78 79 76 70 70 70 63 62 55 52 51 49 51 52 52 47 47 47 40 30 28 24 19 17 11 6 8 9 10 9 8 5 1 5 10 11
96 94 85 81 80 78 74 74 75 75 77 76 76 71 64 64 61 57 54 53 52 49 46 46 46 46 42 36 32 29 24 22 19 13 8 7 9 9 11 10 6 2 4 8
100 98 91 84 83 79 79 74 75 77 78 83 80 73 70 66 65 64 60 56 54 51 49 46 44 40 41 38 38 36 29 26 24 21 16 10 10 10 12 13 11 8 4 5
104 99 95 91 86 86 84 83 80 76 75 77 79 78 78 76 71 69 66 62 59 55 52 49 43 39 40 45 41 37 36 32 29 27 23 17 15 13 12 15 15 14 11 6
102 100 98 93 88 88 87 87 83 79 80 78 77 79 70 73 76 75 73 70 66 60 57 52 43 33 49 52 50 49 45 40 36 33 28 23 18 17 15 15 19 18 16 12
104 105 102 102 95 90 87 89 88 86 83 80 82 83 73 80 77 77 76 75 71 66 63 54 38 31 41 40 46 54 48 44 41 37 34 31 27 26 21 18 19 21 21 20
103 106 106 100 98 96 93 94 93 89 90 85 86 80 79 79 77 75 74 74 74 70 67 64 54 60 67 58 50 56 48 46 45 43 39 36 34 32 28 22 22 23 24 24
103 109 107 111 110 104 100 94 94 93 91 90 98 85 79 81 78 76 75 73 72 72 70 69 68 68 71 66 59 43 51 51 47 45 42 40 38 36 34 28 25 26 26 28
102 110 110 108 104 101 99 98 95 96 97 100 102 90 83 85 82 79 78 77 74 73 71 70 71 71 70 67 57 47 39 39 41 48 50 44 41 40 37 33 31 29 29 30
86 106 110 111 108 106 103 101 100 99 97 101 100 92 82 85 87 86 84 81 78 75 72 70 69 69 67 66 64 61 59 51 44 40 43 47 47 45 43 39 33 33 31 31
73 89 103 109 111 111 108 106 104 103 102 103 101 95 95 94 94 91 88 86 84 81 79 76 73 70 68 66 64 62 60 60 59 58 54 50 51 51 49 47 40 36 32 31
69 75 94 106 106 107 111 107 108 105 105 107 102 92 96 97 97 97 96 94 91 88 85 83 80 77 74 72 69 67 65 63 60 57 54 50 50 52 52 50 47 39 37 33
69 72 78 94 107 113 106 108 110 109 109 110 106 100 101 101 99 99 99 96 95 93 91 89 87 84 81 78 76 73 71 69 66 63 60 57 53 52 53 53 53 48 44 39
70 73 74 80 91 105 115 111 111 112 112 110 109 108 105 105 106 100 98 96 95 94 93 92 91 90 88 86 83 80 77 75 72 69 66 63 61 57 55 53 56 55 51 46
69 73 75 78 81 93 97 111 116 117 120 110 115 111 111 113 109 99 104 103 102 100 98 96 94 92 91 90 89 87 85 82 79 76 72 69 66 65 60 57 57 57 60 55
67 71 74 78 80 82 79 96 113 116 117 116 118 118 118 117 116 111 111 111 109 106 104 102 100 99 96 94 91 89 88 86 85 81 79 76 73 71 69 66 63 61 60 60
61 68 72 76 78 76 81 86 89 101 114 120 120 121 122 123 122 120 119 117 116 115 112 110 108 105 103 100 98 96 93 90 88 86 83 82 80 76 75 73 71 68 65 64
57 62 68 73 75 78 79 83 86 88 91 103 115 123 124 124 125 126 125 125 123 123 121 118 116 114 112 109 106 104 102 98 95 92 89 87 85 83 81 79 78 75 73 70
50 56 61 66 71 76 80 81 84 85 88 90 94 102 113 122 127 127 127 127 128 127 126 126 125 123 121 118 115 113 110 108 103 101 98 95 93 89 86 85 84 82 79 78
40 48 56 60 64 69 74 80 84 86 87 90 92 93 96 102 111 121 128 131 131 129 129 129 130 130 129 127 126 122 119 116 114 110 107 103 99 97 95 92 89 87 86 84

GFSCGP_250_spd_090.txt.gz
Wind_Speed
66 64 58 57 66 80 73 70 64 57 43 48 47 43 38 32 29 28 29 31 26 14 10 9 11 12 14 18 20 23 25 27 22 16 18 17 18 20 22 22 25 28 28 28
68 64 63 62 62 78 76 71 67 60 60 44 50 43 44 38 32 33 30 26 27 20 18 16 14 14 14 17 17 23 21 22 23 19 15 16 14 18 19 20 21 22 24 25
72 71 68 64 62 69 75 72 67 67 64 51 52 32 44 45 40 39 38 29 28 27 28 24 19 22 17 17 16 20 21 17 19 21 20 11 13 13 15 14 17 17 19 21
78 76 71 67 64 62 73 81 73 67 69 66 56 62 49 47 43 40 38 30 32 32 30 26 24 22 24 20 17 19 20 17 15 18 19 15 9 13 12 12 15 15 15 18
84 80 75 69 65 66 69 80 80 76 70 71 68 56 54 48 47 45 43 43 33 31 30 26 22 28 22 19 20 22 18 18 15 13 16 17 10 4 8 11 14 13 14 13
88 86 80 74 71 71 72 78 79 79 74 71 69 67 61 43 42 53 51 50 41 37 33 24 26 30 22 21 22 25 22 19 17 14 11 14 15 9 7 8 9 10 10 11
91 89 83 80 77 77 74 70 74 78 75 71 72 69 66 51 42 39 60 57 50 43 32 30 29 34 30 29 29 32 27 22 17 16 12 11 12 13 8 2 7 5 7 8
88 92 88 86 82 79 75 72 68 73 75 74 75 75 63 58 36 25 48 57 44 48 55 43 32 33 34 35 36 34 31 26 21 17 15 15 13 13 12 7 7 4 4 5
88 92 97 95 90 85 76 74 68 74 78 81 85 71 64 62 72 42 44 47 47 34 33 37 39 39 39 37 34 33 33 29 25 21 18 17 18 15 15 11 9 6 4 3
87 89 97 96 92 83 80 79 79 75 81 84 85 77 76 74 76 79 63 53 53 58 51 43 36 39 39 37 39 41 39 36 27 23 21 20 20 18 16 14 13 11 4 4
85 83 92 99 94 92 86 83 82 82 79 80 83 83 82 73 84 79 76 70 64 57 53 48 29 38 28 36 29 30 25 28 36 32 28 24 23 22 22 20 20 17 10 11
84 89 94 100 99 96 93 91 92 88 79 82 81 86 81 81 89 82 80 77 69 59 58 54 52 44 33 43 37 35 32 35 49 42 37 29 25 26 26 26 25 25 16 16
83 85 88 96 102 99 93 92 92 87 90 91 86 86 86 90 91 86 81 77 71 66 64 62 59 62 58 48 40 45 44 40 27 27 33 28 23 28 28 29 29 28 26 20
81 86 93 101 108 107 103 99 95 91 91 91 97 90 89 89 89 88 84 81 77 72 70 68 63 59 56 49 46 43 40 41 32 16 22 32 31 28 28 31 31 30 31 28
80 87 95 98 103 106 104 103 102 94 94 105 92 93 84 81 80 79 81 83 81 78 75 73 69 65 61 57 54 58 53 42 47 38 47 39 35 46 43 32 34 35 33 31
78 85 91 95 101 102 107 108 100 97 99 107 103 96 91 84 76 79 78 79 78 78 77 76 75 71 66 66 64 67 68 63 44 34 35 37 28 48 43 44 37 40 40 35
70 80 86 94 101 106 107 106 103 101 103 111 103 98 96 86 88 82 82 82 81 79 78 78 77 76 74 74 76 78 81 80 76 69 63 48 39 50 48 46 42 43 45 41
67 72 77 85 97 104 110 110 109 109 110 116 104 102 97 91 89 86 88 87 85 82 79 78 79 78 78 80 82 83 83 84 82 79 67 52 51 60 67 64 52 47 51 49
64 67 73 81 89 95 106 110 111 113 115 115 109 104 103 95 93 96 97 97 93 89 85 82 81 79 78 78 79 82 84 84 84 82 77 75 68 62 62 63 60 55 53 49
64 66 71 77 85 93 105 110 111 114 118 113 111 109 106 99 106 103 100 98 96 93 92 90 88 86 84 83 81 79 78 77 77 76 74 74 73 74 72 69 62 55 53 50
66 69 70 74 78 90 97 102 110 114 117 115 113 113 109 106 104 98 100 103 103 102 99 97 95 92 91 89 87 85 84 82 81 79 77 75 72 70 68 66 64 59 54 54
67 71 73 74 77 86 81 90 101 114 118 117 114 115 114 113 112 106 105 107 105 104 103 103 102 100 98 96 95 93 92 90 89 86 84 81 79 76 72 70 67 65 61 58
65 68 72 76 78 75 73 79 86 101 113 119 119 119 122 121 118 112 111 111 111 108 106 105 104 102 101 101 101 99 97 96 94 93 91 89 86 84 80 76 73 71 68 64
60 62 71 75 78 80 80 80 86 90 97 106 117 119 123 124 124 119 117 117 115 115 113 111 110 108 106 103 103 101 99 98 97 96 94 93 91 90 87 84 81 78 75 72
50 59 65 68 71 77 81 85 85 88 89 93 99 109 120 123 124 124 124 123 122 121 121 119 117 116 113 112 110 108 106 104 103 101 99 97 95 93 91 89 87 85 82 79
43 48 56 64 66 71 75 81 85 88 91 91 94 94 100 111 120 126 126 126 127 127 127 127 125 124 122 121 119 117 115 113 111 109 107 105 103 100 97 94 91 89 86 83

GFSCGP_250_spd_093.txt.gz
Wind_Speed
67 66 64 67 66 72 74 68 65 56 48 31 37 45 42 33 29 26 22 22 22 11 8 6 7 10 12 20 23 25 27 26 25 18 19 20 27 22 20 22 23 26 28 30
69 66 68 70 69 68 73 71 68 63 45 28 26 42 43 38 33 28 26 28 24 26 21 10 13 14 14 19 23 23 26 23 24 19 16 16 18 20 20 15 19 24 24 24
72 73 71 69 71 69 68 73 68 66 58 58 41 39 51 48 43 34 29 30 23 22 19 20 18 18 15 16 17 17 22 21 20 19 16 11 14 17 18 16 14 17 19 21
79 76 73 71 71 71 66 72 76 70 69 68 55 28 41 50 39 40 34 31 28 25 21 20 18 18 13 11 14 15 20 21 18 18 17 13 11 12 13 17 16 12 14 17
81 81 76 72 69 72 69 69 77 78 75 74 62 34 41 44 44 41 40 38 37 28 26 25 26 21 15 12 11 15 20 23 19 18 16 14 12 10 9 11 12 15 12 10
85 85 81 77 74 69 78 72 74 81 81 71 69 66 45 33 27 34 42 41 41 35 31 30 29 23 19 16 16 14 20 22 23 17 15 14 11 11 8 8 9 14 14 8
85 86 85 82 76 74 78 75 70 77 82 75 79 72 69 50 42 41 34 31 38 38 36 34 31 26 24 19 20 20 21 21 22 19 16 13 10 10 14 10 5 9 10 10
82 85 86 85 79 77 78 78 71 69 79 81 82 80 75 65 60 51 39 38 43 43 43 40 35 30 18 23 23 25 27 28 23 21 18 16 12 10 11 13 8 4 6 7
79 85 91 88 87 90 85 78 76 74 79 87 91 77 77 76 71 57 47 38 38 37 51 47 33 34 29 29 26 27 30 29 25 22 19 16 14 14 11 9 9 9 7 8
84 85 86 91 96 89 84 78 80 76 74 86 88 82 77 76 74 68 61 52 47 37 40 47 49 45 42 31 32 32 26 29 30 27 20 19 16 17 15 11 9 13 13 9
79 83 89 89 90 90 86 84 78 78 79 81 80 83 79 76 72 68 66 69 51 48 45 39 32 23 19 28 27 25 19 22 16 31 22 21 27 20 20 16 13 11 13 15
77 77 80 75 84 90 91 90 88 84 83 85 80 83 81 74 77 72 69 62 58 54 52 47 38 35 43 26 28 24 14 19 29 20 23 26 29 17 19 19 18 15 14 15
80 85 81 83 84 90 96 94 92 89 94 94 85 78 84 79 77 81 76 73 62 56 53 57 53 51 40 33 48 42 26 19 32 26 20 24 29 28 18 18 22 23 17 15
86 83 81 82 81 88 92 95 94 95 98 97 89 80 75 79 92 92 84 80 83 77 76 71 61 55 47 46 47 46 37 20 23 34 19 28 19 23 31 30 25 21 21 18
91 88 87 83 82 83 86 93 97 102 104 96 90 85 86 96 92 90 86 87 87 82 78 79 76 70 65 59 60 54 50 32 35 42 39 36 25 24 29 30 32 23 21 22
95 91 90 84 81 81 84 86 95 106 111 103 96 91 89 90 89 89 89 88 87 86 85 80 80 76 70 68 65 62 61 48 39 42 45 39 33 34 32 29 25 26 28 30
86 91 93 93 85 81 83 92 96 103 112 105 99 95 91 94 90 86 89 93 93 92 89 87 88 81 75 73 70 66 64 57 51 56 54 51 49 47 40 32 26 28 31 32
73 77 83 86 85 84 86 90 95 101 111 109 103 98 96 96 96 93 87 89 95 97 95 93 91 87 82 79 76 74 71 69 60 57 66 67 64 62 56 54 38 38 38 38
67 71 75 78 80 85 92 93 97 106 113 106 109 105 101 97 96 93 94 88 86 88 95 98 95 92 89 86 83 79 77 75 71 69 71 74 71 73 70 60 53 55 59 59
64 67 69 73 78 85 89 89 91 104 106 108 111 109 106 101 101 100 98 95 94 91 92 90 90 90 89 88 87 84 83 81 80 79 80 80 76 77 79 79 74 66 67 67
59 64 66 69 73 80 82 88 97 102 109 106 110 114 113 107 105 104 103 102 100 97 96 93 90 90 89 88 87 87 87 88 87 88 89 90 90 92 92 89 86 83 76 71
58 63 67 70 74 76 77 85 90 98 103 105 111 115 112 111 109 108 110 108 107 104 101 100 97 94 92 93 91 89 89 90 93 95 96 97 98 97 97 97 93 90 84 81
61 66 68 69 72 71 71 79 85 92 99 105 109 111 116 119 118 118 114 113 111 109 107 105 105 102 102 100 98 95 94 94 93 94 96 98 99 99 98 95 90 84 79 77
59 62 69 72 73 71 72 76 80 85 93 104 109 111 115 119 121 121 118 118 116 115 113 111 108 108 107 107 105 104 103 101 100 99 98 97 96 96 95 94 91 88 85 82
54 59 64 69 74 74 73 75 79 84 90 95 101 107 110 116 121 123 124 123 121 119 118 116 115 113 113 112 112 110 110 108 107 106 105 104 103 101 99 98 96 94 92 89
49 52 61 68 70 71 74 79 82 83 85 88 93 100 105 109 115 121 123 124 127 125 124 123 122 121 119 118 116 115 114 114 114 114 113 112 111 109 107 105 103 101 99 98

GFSCGP_250_spd_096.txt.gz
Wind_Speed
70 71 69 71 73 74 71 70 67 61 49 42 43 40 39 36 30 27 22 17 13 13 6 7 2 8 15 17 18 21 20 21 20 17 16 18 19 19 20 20 24 20 25 30
69 71 76 75 75 73 72 70 68 65 60 42 36 50 39 39 37 31 26 23 23 24 12 15 17 13 13 15 15 14 19 20 20 19 15 14 13 17 19 18 17 20 22 25
74 79 75 76 76 75 75 69 72 68 68 59 36 34 41 44 42 38 34 28 28 26 24 16 14 14 12 7 12 12 15 18 19 18 16 11 12 14 17 17 16 17 19 22
81 78 74 75 76 77 75 72 76 72 71 68 62 49 42 41 47 43 36 34 32 30 26 19 14 13 13 5 8 9 10 19 19 16 16 14 11 11 12 14 15 16 16 19
85 81 77 74 76 77 77 80 77 79 74 71 60 42 43 36 41 47 44 37 34 31 30 25 17 20 17 12 7 8 11 15 20 18 13 15 13 10 10 10 13 16 15 14
87 86 83 80 79 76 84 79 81 78 79 73 66 48 43 36 37 44 50 43 39 33 35 30 23 24 19 13 10 10 14 14 18 20 15 12 13 14 13 10 9 12 12 12
89 86 85 85 81 80 83 80 78 81 82 78 78 75 57 40 41 40 50 48 44 43 37 32 33 27 22 18 13 13 15 18 18 21 15 12 10 11 14 13 10 9 10 11
88 90 88 87 85 84 81 80 78 72 80 88 84 82 78 50 47 42 43 51 49 47 43 41 36 31 26 21 20 12 17 18 23 22 19 12 11 10 9 11 10 10 8 10
90 90 91 90 89 87 84 80 78 78 78 87 87 82 75 59 55 48 46 50 47 48 47 43 39 36 29 25 26 19 20 23 24 27 26 17 12 11 10 10 11 12 11 10
87 88 90 90 92 94 90 82 81 82 79 83 90 86 79 74 60 52 50 48 48 42 40 40 38 37 37 32 33 30 24 25 26 24 21 21 16 12 13 11 14 12 12 13
83 86 90 89 87 93 91 86 85 82 83 84 85 91 82 84 72 60 59 52 53 43 37 36 38 39 37 33 31 31 35 24 28 24 21 23 20 20 16 12 13 17 14 12
78 83 89 87 87 91 95 92 89 87 86 87 82 85 87 86 85 83 76 67 59 51 38 35 29 35 33 31 31 29 28 22 21 25 14 18 28 19 26 21 11 15 19 16
80 81 83 84 85 84 93 95 94 92 91 89 87 80 87 92 92 87 85 76 70 64 59 52 51 43 40 40 33 44 39 25 25 21 20 15 15 19 20 26 27 18 20 19
79 79 80 83 86 84 84 94 98 97 96 91 88 84 83 91 92 91 88 85 79 76 72 66 61 48 49 50 44 44 34 44 41 30 25 23 21 25 21 14 16 27 28 24
77 80 80 84 84 82 81 89 98 100 98 92 90 87 86 85 90 92 93 85 81 79 73 69 66 63 56 58 50 41 41 41 43 34 35 30 32 28 24 24 26 25 24 28
80 78 78 82 81 80 82 84 90 99 104 99 94 86 86 86 85 95 91 88 87 80 76 71 62 65 63 67 56 49 46 45 51 48 37 36 37 35 38 32 32 31 27 34
84 84 85 83 83 85 85 87 92 94 101 99 97 91 89 89 88 90 95 98 89 85 82 79 73 73 76 76 62 57 51 51 47 53 46 36 40 44 39 41 37 36 28 30
89 90 90 89 91 86 88 88 91 91 94 97 97 95 95 92 90 91 89 96 96 91 85 86 83 81 82 83 69 64 61 57 58 61 62 57 44 42 45 46 46 46 33 38
85 88 90 92 91 88 88 89 91 90 89 94 95 98 99 98 96 94 95 90 91 99 92 96 94 98 92 93 86 81 77 79 74 69 71 70 59 55 59 61 54 53 51 49
70 80 93 96 95 96 94 93 93 91 91 91 94 95 102 103 103 102 99 100 90 89 101 100 105 105 103 100 96 94 90 89 83 80 77 77 70 66 69 69 71 70 64 61
53 62 74 84 95 100 97 98 100 96 92 89 91 94 98 105 109 109 107 105 105 97 97 101 106 110 111 105 101 97 95 93 88 86 85 84 81 74 74 78 78 75 77 74
51 52 60 69 76 85 93 103 101 91 91 90 90 92 99 104 109 111 113 113 111 110 111 109 106 108 111 113 112 109 108 105 102 98 94 91 89 87 82 83 85 82 85 83
54 56 58 61 67 72 81 90 94 93 97 96 95 95 95 104 111 115 119 119 116 114 111 111 109 107 107 110 112 114 111 110 109 107 103 99 97 95 93 91 89 93 90 86
55 60 60 61 63 66 70 78 83 87 90 93 95 97 101 106 114 115 117 119 120 120 116 115 113 112 112 110 109 111 112 113 114 112 111 109 107 105 103 102 100 100 100 100
49 57 62 65 66 65 68 72 75 78 84 90 94 98 102 104 111 113 116 118 121 123 123 122 119 118 117 115 114 112 109 107 107 108 109 109 108 108 108 107 106 106 107 108
49 53 57 61 67 70 71 73 75 77 81 85 90 93 97 101 105 110 115 118 118 122 125 126 126 123 122 121 118 116 116 115 113 110 109 109 109 109 109 110 110 110 111 110

GFSCGP_250_spd_099.txt.gz
Wind_Speed
75 71 69 71 71 66 68 65 55 50 21 32 39 38 35 36 30 30 26 19 19 11 10 7 9 14 19 19 15 20 20 21 21 18 19 17 21 23 21 20 24 25 29 31
76 75 77 76 73 70 70 67 66 61 43 38 42 45 42 37 33 31 31 26 21 16 15 13 10 10 13 11 15 17 20 19 20 19 16 15 15 19 18 17 21 23 27 29
79 82 79 78 76 72 72 73 75 75 53 46 45 44 43 40 39 35 31 29 25 24 22 18 13 10 8 9 14 14 18 20 18 19 20 16 16 16 17 19 21 20 22 26
83 83 79 78 78 77 74 78 81 76 78 61 51 47 46 47 43 42 38 34 31 29 24 20 15 10 8 10 13 6 14 18 20 19 19 18 16 16 14 16 19 19 19 22
85 84 83 79 80 80 82 82 86 87 81 75 69 61 47 45 46 44 42 39 36 35 28 25 22 16 13 9 12 9 7 12 16 20 18 16 16 16 18 16 15 17 16 18
87 86 84 82 84 82 87 81 81 87 87 82 74 68 59 45 40 42 46 45 42 36 34 31 29 24 17 15 12 12 7 8 13 16 16 16 14 14 16 17 16 16 15 16
87 85 86 85 82 82 85 82 81 83 82 87 76 74 70 52 47 44 45 48 48 41 39 36 31 29 21 17 13 15 11 11 13 15 16 15 13 11 13 14 16 16 16 17
88 87 87 87 86 84 85 83 82 80 79 83 80 75 75 74 67 51 49 52 54 50 44 37 34 34 28 23 19 17 17 12 13 16 15 16 12 11 9 10 12 13 14 18
85 88 90 89 91 91 87 83 83 82 80 80 79 76 70 70 58 57 54 54 54 53 50 44 36 37 32 29 26 22 22 19 14 18 20 20 18 14 10 8 10 12 12 14
82 83 87 90 92 91 89 86 82 81 81 79 78 81 70 61 62 58 55 50 47 50 54 50 46 42 35 34 30 30 27 22 20 20 21 19 18 16 17 13 8 9 11 12
83 86 84 87 93 92 92 91 87 82 81 82 80 83 82 66 56 64 60 55 52 50 51 51 43 42 42 36 34 34 30 25 26 22 19 21 20 17 17 16 16 14 11 10
82 85 87 87 89 93 95 94 91 87 85 85 84 81 88 87 82 77 72 67 55 55 52 53 48 46 45 45 37 41 37 30 26 20 19 18 21 16 11 15 22 19 20 15
84 84 87 89 91 93 98 96 94 91 88 85 84 81 83 90 90 82 72 67 65 58 57 57 50 42 45 41 39 39 36 27 31 27 22 15 21 18 13 10 11 13 12 21
86 87 87 90 90 90 93 95 95 94 92 86 83 82 82 84 89 82 77 72 67 65 63 62 55 49 46 42 39 30 32 33 33 36 31 25 24 24 21 16 17 18 17 14
84 86 87 86 86 89 90 92 95 96 95 92 87 85 83 84 86 85 80 79 75 73 71 68 59 55 51 52 43 41 34 38 38 43 46 42 41 34 30 27 24 24 23 19
81 82 84 83 83 86 87 90 94 97 97 95 92 86 83 82 83 90 87 86 84 81 80 71 65 61 56 54 49 43 49 48 50 51 50 48 50 40 32 34 32 30 27 27
78 82 81 79 81 85 86 91 94 95 97 97 95 93 90 87 88 90 99 100 94 92 87 81 70 71 72 64 65 57 54 52 55 55 54 52 52 41 39 38 39 38 37 33
80 82 86 82 81 84 86 89 91 93 97 96 97 97 95 94 91 90 91 98 100 99 99 99 89 77 81 78 77 75 69 65 62 63 63 60 56 51 49 52 48 43 44 39
84 81 81 84 83 84 86 86 88 92 95 94 94 95 96 96 97 95 93 94 99 106 106 104 99 90 82 82 82 77 73 72 70 69 67 69 63 54 50 53 46 49 48 47
88 88 84 84 86 84 84 88 91 89 91 91 93 94 95 99 100 102 99 98 99 100 106 110 110 104 100 87 84 84 75 73 78 80 79 71 69 65 60 56 59 50 49 54
90 94 90 89 88 89 90 89 88 89 85 87 89 90 93 95 101 104 103 103 102 103 104 103 107 109 104 98 87 84 87 86 84 85 86 84 75 70 67 68 62 67 55 56
66 81 97 91 91 92 90 89 92 86 86 85 90 87 90 93 96 101 107 109 109 110 106 107 105 103 105 107 106 102 95 92 94 93 95 91 89 81 78 75 73 71 72 72
66 72 79 90 101 102 96 96 98 92 92 92 90 91 90 92 97 99 105 110 116 115 113 110 107 107 106 106 110 104 103 101 102 103 104 100 93 89 83 81 82 81 79 78
61 67 72 76 81 89 101 106 101 98 98 98 95 92 95 96 97 102 105 111 113 117 118 116 113 112 111 110 110 109 115 111 110 110 110 112 112 105 95 92 92 90 92 90
50 59 67 70 76 81 87 96 105 107 107 103 100 99 102 99 101 104 107 111 113 117 118 120 121 119 117 115 112 112 109 111 116 118 118 118 117 118 114 108 101 100 101 102
45 50 55 62 69 73 79 84 91 96 99 106 112 110 108 108 109 111 112 112 114 115 118 121 123 124 124 121 119 116 113 113 114 122 124 125 126 122 118 117 116 113 111 110

GFSCGP_250_spd_102.txt.gz
Wind_Speed
76 71 71 71 66 60 59 57 55 47 35 29 28 28 28 30 29 28 19 20 16 14 8 6 7 12 14 18 18 18 21 24 27 29 28 26 26 28 26 20 31 33 36 36
80 78 77 74 70 65 62 61 59 56 42 30 31 39 32 32 34 33 27 25 18 16 13 10 8 7 7 11 16 17 21 22 23 26 29 28 26 27 28 26 24 29 33 34
85 84 80 77 73 69 65 66 65 65 50 43 36 41 42 34 33 31 30 29 27 22 20 14 9 7 5 6 10 12 18 20 23 24 25 26 28 25 24 26 26 25 27 31
87 86 82 80 77 72 70 70 71 67 65 52 51 45 48 46 39 35 29 31 30 25 24 19 14 11 6 5 4 8 9 15 21 22 22 22 22 26 27 25 25 26 26 27
88 87 84 84 82 80 77 70 71 72 69 59 53 53 47 46 46 44 41 35 32 29 26 25 19 17 11 9 6 4 6 9 14 18 18 20 20 21 23 24 24 24 26 26
91 90 86 86 87 83 80 76 73 77 71 68 62 59 62 49 46 43 39 35 36 35 30 31 26 21 20 15 11 9 9 7 10 13 16 17 16 17 18 21 23 23 22 22
88 87 86 88 87 86 82 77 76 76 78 72 71 65 60 57 48 44 44 42 40 38 39 36 33 26 24 23 18 14 12 8 8 12 16 16 16 12 15 17 20 21 22 21
88 85 86 88 87 89 87 82 80 79 83 90 76 70 67 59 53 47 41 41 44 43 40 39 38 30 28 27 23 18 17 13 8 9 16 17 19 17 9 12 14 16 16 21
86 88 87 88 91 92 90 84 85 85 84 87 84 81 76 72 66 63 55 47 48 47 40 43 41 33 30 31 28 25 20 15 12 9 10 13 15 17 15 10 11 11 13 15
86 86 88 90 92 90 91 89 88 85 85 84 90 91 85 79 77 69 65 55 52 51 43 43 45 41 36 35 34 31 27 25 20 15 13 12 11 14 12 12 12 11 11 11
87 87 88 89 91 92 92 90 87 86 85 86 85 89 90 81 76 66 66 67 64 58 49 46 47 51 44 39 37 35 34 29 23 23 18 14 11 13 12 9 7 8 10 11
87 89 87 89 91 92 93 94 91 87 84 84 85 85 82 81 81 75 72 71 70 71 67 53 52 53 53 47 42 42 40 38 34 28 20 18 17 15 16 10 9 6 3 4
88 90 90 90 90 94 92 93 93 89 86 81 80 82 85 81 81 83 81 73 65 72 64 55 50 44 48 53 45 48 46 44 39 34 25 17 14 19 15 15 16 8 9 9
88 90 94 92 89 90 91 92 92 93 88 83 78 75 79 81 77 75 72 71 70 63 67 64 56 53 51 52 51 52 47 47 45 41 36 32 25 21 23 17 21 16 12 13
88 89 93 96 93 90 88 90 93 93 92 88 83 80 81 78 75 79 76 74 79 73 71 69 62 55 57 55 49 59 56 55 49 44 42 40 33 28 27 23 25 25 23 22
89 90 93 94 93 91 89 88 91 95 94 92 90 84 85 82 81 84 90 81 72 72 70 70 70 65 59 61 59 55 56 57 48 43 45 42 40 40 38 36 34 32 34 31
92 92 92 89 90 91 93 92 91 92 96 95 92 90 90 88 86 86 88 96 88 77 73 79 82 76 71 68 66 66 59 55 54 50 52 47 49 48 46 46 43 40 40 37
82 89 91 90 88 89 89 91 92 92 92 96 95 94 93 93 91 88 88 91 95 106 97 86 84 81 79 76 75 73 68 59 61 50 47 50 51 49 54 55 50 48 46 47
81 82 88 90 90 89 90 90 92 93 94 94 93 93 94 93 95 95 92 89 91 92 98 93 88 87 85 83 81 77 76 69 68 57 56 55 55 53 56 58 57 54 55 47
83 81 85 88 89 88 89 88 92 89 90 94 95 94 94 96 95 99 99 97 95 92 93 96 98 94 91 90 88 86 78 76 73 69 62 65 64 60 62 62 58 60 61 61
85 85 87 83 81 84 88 88 88 90 90 93 96 95 94 96 97 99 101 102 102 100 96 98 102 103 101 98 95 92 87 84 81 77 78 70 67 67 71 70 67 66 67 70
79 91 92 88 84 79 81 85 88 85 89 92 92 93 95 97 97 99 100 106 107 107 105 100 98 105 106 106 103 98 97 94 88 84 83 80 77 75 77 76 76 75 73 75
61 84 92 92 89 86 83 82 87 87 93 90 89 88 90 94 98 100 103 106 106 108 110 108 104 103 110 111 110 109 107 104 100 91 91 94 89 89 89 83 81 80 85 86
54 63 76 91 93 92 91 87 86 89 90 90 90 85 88 88 89 95 100 107 111 111 111 114 112 111 109 108 111 111 113 118 117 117 102 95 94 91 93 95 96 91 90 86
50 58 65 74 83 94 99 94 94 92 89 91 90 89 91 91 92 93 98 101 108 115 116 114 116 116 115 115 114 112 109 111 115 120 121 119 112 100 97 96 95 100 98 97
43 49 56 64 70 78 87 95 103 99 96 96 94 95 95 96 96 96 97 101 106 110 113 117 117 117 120 119 119 119 116 115 115 115 115 114 112 112 108 104 103 103 105 106

GFSCGP_250_spd_105.txt.gz
Wind_Speed
75 74 74 72 67 59 55 54 54 56 45 37 33 34 30 29 24 22 17 18 13 10 9 7 8 9 15 18 18 21 24 27 29 31 32 31 31 32 32 34 38 40 40 39
80 81 77 72 70 64 58 57 56 56 54 49 34 34 36 31 28 26 22 18 16 14 13 9 5 5 6 12 14 18 22 26 26 28 30 31 31 32 32 33 33 36 39 40
85 85 80 76 73 69 64 60 60 58 57 53 40 35 40 39 36 30 27 22 22 19 16 16 7 6 7 6 9 12 17 22 24 24 25 26 28 29 29 31 31 30 35 36
88 87 84 80 76 74 70 66 62 59 54 49 48 38 37 35 35 32 30 25 25 25 23 21 13 9 5 6 4 5 10 16 22 21 22 18 22 22 24 26 28 31 31 31
87 88 86 83 80 78 75 71 65 61 60 54 57 49 39 46 43 38 32 29 28 28 29 25 22 15 10 6 7 3 3 7 16 18 22 18 19 21 21 25 27 27 28 28
86 91 88 87 86 82 78 74 70 63 68 59 56 54 51 50 45 43 37 33 32 29 32 28 26 22 15 12 10 11 6 5 7 16 18 21 16 16 19 22 24 24 26 27
81 89 90 90 89 85 80 77 75 69 66 68 59 57 58 51 55 50 47 38 35 31 32 32 27 28 19 19 16 15 13 8 3 7 13 17 16 10 15 17 19 22 23 22
81 86 89 90 90 88 84 81 79 76 80 77 73 62 63 55 49 52 46 40 39 37 38 37 31 33 27 22 22 19 18 12 8 5 7 8 13 14 12 12 16 20 21 20
80 83 89 92 94 93 88 84 85 84 81 81 80 75 67 62 56 55 54 54 48 45 38 37 34 34 31 28 27 25 21 17 12 5 5 6 7 9 9 10 9 10 15 18
82 82 87 92 95 94 92 89 88 86 83 79 79 77 71 61 65 58 58 57 53 50 39 40 41 38 35 33 32 27 25 22 18 19 14 10 5 3 7 2 5 7 8 13
84 82 85 91 94 95 94 90 88 88 87 85 88 86 79 68 68 65 60 59 59 53 43 39 44 41 40 38 35 33 30 28 27 22 18 15 12 9 9 6 6 1 2 6
82 84 86 89 93 94 94 93 92 90 89 87 86 94 91 80 71 73 69 67 69 62 55 50 49 45 40 39 41 38 34 33 33 31 27 23 20 14 13 11 10 9 6 4
78 85 88 91 92 92 93 95 93 91 90 88 89 89 94 95 93 76 75 73 71 71 64 62 55 51 43 46 45 47 42 42 40 37 35 28 22 18 16 15 14 13 11 9
78 83 89 92 93 94 92 93 95 92 91 90 89 90 92 92 96 96 85 81 79 78 72 66 65 64 61 52 49 51 49 48 46 42 39 34 30 27 23 22 21 17 14 13
81 85 90 93 95 96 94 94 95 95 93 91 90 87 89 91 92 91 93 93 84 81 72 73 71 72 66 61 55 55 56 52 50 44 38 38 35 35 32 29 28 25 22 21
85 86 91 93 95 96 97 95 95 96 96 94 92 89 85 89 90 91 88 85 77 72 74 78 78 77 74 67 60 58 58 52 41 46 44 40 44 46 43 38 35 33 29 25
84 88 89 92 94 95 98 97 97 97 96 95 95 93 90 88 89 89 90 87 79 74 77 79 82 83 82 79 63 64 63 61 55 57 57 53 48 47 49 50 44 40 37 37
83 87 90 89 91 92 93 97 95 96 98 99 96 95 93 91 91 88 85 86 85 85 86 78 74 72 69 71 70 67 63 63 62 59 59 61 57 52 56 54 52 51 45 47
83 84 87 88 85 84 86 90 96 96 97 99 100 98 95 93 92 93 89 88 87 90 90 83 79 80 80 77 73 72 70 72 61 71 69 69 62 56 58 59 55 54 52 46
80 87 85 85 84 83 84 86 87 95 98 98 100 99 97 92 93 96 97 94 91 88 88 88 90 88 81 83 82 81 78 78 70 75 74 72 65 64 64 67 61 56 54 53
69 80 85 83 84 84 84 87 86 89 94 98 97 97 93 93 95 96 95 99 97 95 93 91 92 99 96 87 87 86 82 78 81 76 79 79 71 66 66 69 66 66 62 59
59 73 83 85 84 82 83 86 88 89 89 93 95 96 94 91 91 93 96 98 101 102 101 97 94 95 101 101 96 89 85 90 90 86 85 87 82 77 73 71 72 70 66 67
51 66 78 84 87 86 84 83 86 88 90 91 91 94 95 94 94 97 96 98 100 101 102 102 101 99 99 104 107 109 106 101 96 93 92 95 92 90 85 84 81 79 78 73
45 55 69 80 86 89 88 85 83 83 89 91 91 90 92 92 93 96 98 99 101 100 102 103 104 106 106 105 105 107 110 103 103 102 101 101 99 96 91 90 88 89 88 84
45 51 59 71 82 89 91 90 87 85 85 86 88 92 93 91 93 95 95 97 98 101 102 103 104 105 109 110 111 109 106 105 103 104 108 109 106 103 100 98 97 95 93 92
41 46 54 62 71 83 89 93 92 91 89 87 86 88 91 92 92 91 94 96 95 95 101 105 109 109 110 109 111 111 112 110 108 106 108 117 115 112 113 112 107 103 97 99

GFSCGP_250_spd_108.txt.gz
Wind_Speed
77 75 73 71 66 62 62 57 53 55 33 39 36 35 36 33 31 24 17 13 11 9 5 1 5 9 14 19 22 21 27 29 28 30 33 35 34 31 36 37 39 41 40 41
80 79 77 72 69 66 66 63 57 55 47 36 39 42 41 32 28 25 20 15 14 12 11 5 4 5 10 12 17 19 22 25 27 25 26 29 31 33 34 33 34 37 41 40
82 84 80 78 73 71 67 65 61 58 58 46 48 47 42 35 33 30 31 22 18 18 15 12 8 3 5 11 9 15 21 21 23 23 24 24 27 25 29 32 33 33 34 39
83 85 84 82 79 75 70 68 63 60 60 60 48 47 46 42 43 37 35 29 24 24 21 16 15 9 4 5 9 6 13 20 21 22 23 21 23 23 25 25 28 30 31 34
82 85 87 85 83 79 73 70 66 65 66 64 56 52 49 46 43 42 35 37 32 27 27 24 20 17 10 6 6 5 5 14 16 17 19 16 22 23 24 26 29 29 29 31
81 85 88 89 87 82 78 73 70 68 66 68 70 66 55 51 50 44 45 43 33 30 30 28 25 23 15 10 6 7 4 7 11 13 15 16 13 15 16 20 22 24 28 29
82 83 85 89 89 85 83 77 75 69 66 65 65 61 61 58 48 49 49 44 35 34 33 32 28 25 22 17 11 8 7 2 5 8 11 14 11 8 13 15 21 23 24 24
86 82 80 85 91 89 85 82 78 75 72 68 63 60 64 59 59 53 49 41 41 40 36 33 32 27 27 23 17 11 9 4 3 1 8 8 8 10 9 10 16 18 20 22
89 86 82 83 89 90 89 84 84 83 83 70 64 67 66 63 58 59 61 53 50 46 37 34 32 29 29 30 22 18 12 9 7 3 1 2 4 8 5 7 9 11 14 16
89 88 84 83 87 90 91 90 87 85 85 78 73 75 71 65 63 62 58 59 56 50 49 38 34 35 33 33 27 22 17 13 12 11 10 8 4 2 3 3 2 3 7 10
88 91 86 85 85 88 90 90 89 89 87 84 79 75 74 74 69 62 66 64 60 59 53 44 43 40 38 36 33 27 23 21 15 16 14 11 9 8 9 5 7 2 2 4
85 90 87 87 89 91 90 91 92 91 89 86 85 89 83 76 77 66 65 61 59 59 57 50 50 46 44 42 37 34 29 27 23 20 19 17 17 14 15 13 13 10 7 7
78 87 89 89 87 90 90 92 92 93 93 91 89 88 92 88 85 74 66 68 65 62 60 55 50 51 46 45 41 38 34 32 30 26 24 22 23 22 19 19 18 18 16 12
69 81 88 91 96 95 92 94 94 95 95 92 92 92 98 89 91 87 82 76 71 68 62 62 56 55 51 43 42 44 40 39 38 34 30 29 26 20 22 21 19 23 21 20
69 74 83 90 93 90 89 92 96 96 97 97 95 96 104 99 95 89 84 87 74 71 73 69 65 64 63 57 51 45 46 43 45 41 35 33 36 32 30 29 29 28 26 25
71 75 78 83 90 93 92 94 96 99 100 100 100 96 99 102 105 96 89 84 81 82 78 73 71 71 72 72 63 55 54 53 48 53 46 45 45 42 36 36 35 34 33 32
70 76 78 82 85 92 94 94 97 99 99 101 103 103 97 99 101 106 101 94 88 83 82 81 72 75 79 76 74 66 70 65 62 59 60 52 47 49 46 43 39 37 40 38
76 76 82 79 85 88 96 95 95 98 99 102 103 103 100 99 99 106 111 108 105 100 95 83 77 78 73 79 82 80 77 74 68 65 59 55 52 53 51 50 48 42 40 44
79 79 80 84 83 86 88 92 94 97 99 100 101 104 102 101 99 102 101 103 105 106 105 101 99 87 79 77 81 83 81 74 72 68 66 62 59 58 58 60 54 54 43 42
72 81 82 82 85 85 88 87 93 97 100 101 102 102 102 102 101 99 104 103 100 97 99 100 98 97 91 82 78 79 79 80 78 76 77 74 66 68 68 61 64 63 63 58
58 70 82 85 85 87 85 87 89 95 101 99 101 101 100 102 101 98 100 103 102 100 96 97 96 96 94 91 83 79 83 83 84 81 76 75 71 73 75 74 77 74 63 62
48 59 70 80 85 85 86 88 92 93 93 96 99 101 102 101 98 101 100 101 104 103 100 96 94 92 90 90 90 89 80 81 79 78 74 75 76 76 78 78 79 77 69 71
42 51 63 72 80 85 85 88 90 90 94 96 97 98 99 100 102 102 99 99 101 103 104 102 99 93 92 90 91 93 95 91 82 85 83 82 80 82 84 80 81 81 80 77
35 42 52 63 72 80 84 87 89 89 90 91 93 96 97 98 98 100 100 100 101 101 101 102 103 101 99 97 95 99 102 104 100 96 91 91 90 89 90 89 88 89 84 82
35 39 45 53 64 74 82 88 90 90 92 91 90 90 92 94 95 94 98 99 99 101 103 102 102 104 103 103 102 101 101 101 98 102 107 101 97 96 94 95 97 99 92 86
30 34 38 44 53 64 75 85 91 92 91 91 91 90 89 89 90 92 93 96 96 98 101 104 103 101 102 103 104 106 107 106 105 104 107 113 116 112 106 103 103 100 98 102

GFSCGP_250_spd_111.txt.gz
Wind_Speed
76 74 72 69 65 58 56 54 51 40 30 34 37 33 26 28 25 25 17 10 9 6 3 4 10 13 16 21 20 25 26 25 25 28 29 32 33 33 34 37 37 38 38 38
75 77 78 74 67 62 61 58 54 46 42 22 33 37 39 35 33 29 26 18 15 12 8 3 3 10 13 15 19 21 23 24 24 23 24 25 29 31 32 34 36 38 37 36
76 82 82 78 73 68 66 64 51 52 50 46 32 32 47 35 38 31 31 25 20 19 14 7 5 1 7 10 12 19 19 22 23 26 25 24 25 28 28 31 35 37 37 36
78 83 83 82 82 74 70 66 56 57 57 54 56 41 46 46 38 34 32 32 24 24 20 11 11 8 2 4 8 10 14 17 19 22 22 23 25 26 30 31 31 33 34 35
76 81 84 87 85 80 70 69 54 64 63 53 53 62 55 55 52 43 36 35 31 25 25 18 17 16 9 1 6 7 9 10 14 15 15 17 20 23 24 26 29 31 32 33
77 80 85 89 88 84 77 79 85 53 75 67 62 48 61 51 51 47 42 41 34 30 24 23 22 19 15 7 3 6 5 6 9 14 13 13 14 18 20 24 27 26 29 31
69 75 84 87 89 85 84 81 79 77 71 72 71 55 51 55 57 55 48 42 36 38 31 30 27 22 21 15 12 2 5 4 5 8 10 10 10 14 17 19 23 23 25 27
72 78 83 84 88 90 89 85 83 81 75 72 75 65 55 55 62 59 56 49 52 42 40 38 31 28 26 24 17 11 4 6 1 3 5 8 8 8 10 11 14 18 20 24
72 76 85 87 88 91 92 87 85 86 84 82 78 73 61 59 53 63 61 57 57 46 42 44 36 32 28 27 23 20 12 8 5 4 5 4 4 3 4 7 8 8 10 14
68 72 79 87 88 89 90 91 90 88 86 80 76 80 77 72 66 61 64 63 62 56 46 41 34 34 30 28 27 24 20 10 10 10 9 5 3 3 5 4 1 2 5 7
71 73 77 87 88 88 90 91 89 89 87 87 85 84 74 84 78 81 79 66 55 56 55 48 40 36 31 33 30 27 25 19 13 14 13 11 10 8 8 10 8 4 4 3
72 74 71 83 89 91 92 93 93 93 87 86 85 87 86 76 85 79 72 69 62 58 57 50 50 48 36 38 35 32 31 27 21 18 17 16 16 13 13 13 15 12 11 8
70 74 74 83 91 93 91 92 92 92 94 95 90 90 85 93 78 72 72 71 66 65 64 63 54 52 48 46 39 35 37 34 30 25 24 20 19 19 18 18 18 19 19 18
58 72 78 86 93 93 95 93 95 95 97 98 95 95 92 93 84 80 74 71 69 66 66 65 63 57 52 55 47 41 43 41 38 32 27 26 23 22 22 20 22 23 20 24
51 61 74 84 92 96 94 92 94 98 95 101 103 102 97 96 86 79 84 81 69 70 65 67 69 63 59 62 51 49 47 48 46 39 35 32 32 27 25 22 23 25 26 27
58 56 64 78 88 96 96 92 92 96 100 100 105 110 100 100 97 90 90 80 74 76 68 72 68 67 60 62 60 57 52 53 54 45 43 38 36 35 30 28 28 31 33 32
61 62 60 69 86 94 94 94 91 92 98 102 109 112 98 94 87 100 96 91 86 75 75 70 70 71 67 67 65 62 60 59 57 51 49 48 46 44 43 43 37 33 36 39
66 65 66 68 75 86 96 96 93 91 96 101 102 95 91 111 98 89 104 96 94 89 83 76 74 75 74 69 71 69 70 67 66 65 57 56 55 54 51 50 51 48 44 47
64 71 70 66 78 81 88 96 99 97 98 92 101 99 102 110 109 110 107 111 103 100 98 93 82 84 80 75 77 79 81 78 75 72 68 67 63 62 58 58 57 53 47 51
56 69 75 76 71 72 77 91 99 100 96 93 102 109 107 107 110 109 109 109 111 108 110 99 95 95 89 85 83 80 82 82 80 79 75 72 68 68 69 67 64 59 52 54
47 62 75 77 73 79 85 90 97 98 105 105 104 104 104 110 109 104 108 109 110 108 114 107 105 104 95 85 82 86 80 78 74 75 78 81 79 79 79 76 73 65 61 62
41 55 66 77 81 85 88 94 90 100 107 105 110 104 101 104 111 112 109 108 108 110 112 114 113 111 107 99 96 89 87 85 74 72 72 78 81 82 81 77 78 77 77 71
32 45 55 71 83 87 94 89 89 92 96 103 107 108 104 102 105 108 111 111 109 111 113 115 117 117 114 110 108 104 100 96 96 91 85 80 82 77 80 86 81 82 80 78
31 34 42 59 72 89 93 91 90 93 93 95 100 102 105 105 103 103 105 107 109 110 115 115 114 112 112 113 115 116 113 111 108 107 96 96 93 93 87 89 86 85 84 81
26 34 39 46 56 67 82 93 94 93 92 94 95 97 100 103 106 104 104 106 108 110 111 112 115 115 114 112 113 113 113 112 111 110 107 105 101 99 90 87 90 86 85 84
21 25 31 37 45 52 61 73 88 95 94 93 93 96 96 98 99 101 104 108 107 107 108 109 109 110 113 113 112 111 110 107 106 106 105 105 104 104 106 105 101 86 88 89

GFSCGP_250_spd_114.txt.gz
Wind_Speed
73 71 69 66 62 57 50 48 39 36 38 28 34 30 32 27 17 15 18 13 13 7 1 7 14 15 19 22 23 25 27 24 27 29 33 33 36 41 42 40 39 38 36 32
73 73 74 71 67 61 56 54 44 42 41 35 31 35 30 26 23 23 21 18 12 7 4 2 6 12 14 18 21 21 25 27 29 34 33 35 37 37 40 40 39 38 38 36
73 78 79 76 68 66 62 60 54 40 48 44 34 30 33 26 30 27 26 25 17 15 10 5 2 4 9 11 17 18 20 22 25 28 32 33 35 37 38 41 39 37 37 41
72 80 80 78 75 71 69 64 61 51 47 43 41 42 38 39 35 32 36 33 25 20 17 10 5 3 3 9 8 13 13 15 19 25 26 28 30 33 36 38 41 38 39 41
71 79 81 80 81 78 72 69 61 50 54 46 38 49 50 43 37 34 37 34 27 23 22 15 11 7 7 3 8 7 10 13 14 16 20 24 27 32 35 34 35 35 38 40
70 78 83 82 83 82 76 73 70 71 61 58 44 37 51 48 53 50 38 35 27 25 27 24 19 12 9 7 1 6 6 9 12 12 15 15 12 23 29 30 33 34 38 37
68 69 78 81 87 85 78 75 77 75 60 66 58 48 41 44 49 57 47 42 36 43 36 31 24 17 11 12 6 1 3 4 7 8 8 8 14 11 18 22 27 30 31 34
72 71 75 82 86 86 82 82 83 73 80 72 63 54 53 40 54 51 50 52 47 50 46 37 26 20 17 16 13 7 1 3 2 6 6 7 6 7 10 9 14 17 19 22
72 77 80 83 88 89 87 85 85 81 74 80 67 44 54 60 61 58 54 50 48 49 42 40 35 27 23 24 18 12 10 5 6 7 7 4 3 2 5 8 8 6 12 14
68 70 73 82 87 88 86 90 89 85 83 74 77 61 58 58 60 62 57 54 50 50 49 48 35 34 27 29 25 19 13 11 10 9 9 7 6 4 3 1 6 6 9 5
66 68 72 74 85 87 86 89 89 89 87 78 89 89 76 71 61 56 57 58 56 56 57 48 46 37 31 34 30 23 19 15 14 15 14 12 9 9 8 7 3 6 5 3
70 73 74 75 78 89 91 90 93 95 94 94 86 100 87 81 78 61 67 63 60 60 59 50 52 44 36 40 34 25 26 24 19 18 19 16 14 13 12 12 9 8 10 10
65 68 70 74 79 84 90 94 92 96 101 100 100 93 89 87 86 77 63 63 60 59 54 56 51 48 42 48 43 34 21 11 26 24 24 21 19 18 16 13 14 13 13 13
66 72 75 76 77 84 87 94 92 97 103 102 101 97 96 93 90 88 69 68 61 53 53 58 50 41 32 36 36 37 37 41 46 33 33 29 25 24 21 19 18 16 16 18
61 71 77 76 75 78 80 88 94 94 98 101 102 102 96 94 95 93 89 83 77 74 66 64 58 52 55 60 54 49 45 46 45 43 37 39 33 29 25 23 22 20 18 19
54 63 74 75 74 77 77 82 91 96 93 101 104 107 100 93 96 91 93 87 77 83 85 78 75 76 67 70 69 64 59 57 54 51 46 43 38 30 27 27 28 28 26 23
54 56 62 70 81 81 80 86 88 94 96 97 104 112 105 104 95 76 81 88 82 76 76 81 75 71 72 70 69 67 64 63 62 58 59 49 46 43 35 34 29 33 32 22
58 59 60 64 70 77 87 85 87 91 103 102 108 109 99 99 87 88 78 78 98 84 75 75 73 66 70 70 69 71 69 73 65 62 64 61 51 50 51 46 47 46 42 43
54 57 64 64 61 68 82 90 93 91 90 98 100 94 94 93 91 95 93 85 91 100 96 89 89 81 77 74 74 75 71 78 67 65 67 66 61 59 54 55 56 55 53 51
50 55 60 69 76 77 70 78 89 92 91 98 98 93 88 96 96 101 104 101 65 79 104 98 88 87 90 84 81 77 81 79 73 72 68 71 71 66 66 62 59 62 61 58
37 48 58 71 76 74 76 80 78 87 93 96 100 95 84 81 102 69 112 117 116 93 92 105 100 100 92 87 76 82 84 84 81 86 81 75 74 74 71 70 72 72 70 65
32 33 51 64 75 81 79 75 77 80 92 97 102 93 82 90 93 107 85 101 103 87 111 103 102 101 110 98 93 85 87 87 88 86 82 82 81 82 77 80 79 76 77 73
38 42 44 54 46 85 86 90 82 78 87 95 101 103 103 94 105 104 91 81 110 97 87 96 127 106 107 114 103 99 96 84 81 94 93 86 88 89 88 88 83 82 85 79
40 43 45 49 67 77 91 94 86 80 84 92 101 108 107 100 102 112 126 99 81 96 116 115 95 116 105 114 111 111 109 106 102 96 91 87 85 79 77 72 79 87 89 86
27 38 38 42 48 66 80 92 95 87 88 91 95 102 106 112 109 114 112 119 126 119 110 98 110 115 117 117 115 121 118 117 114 111 112 112 105 98 92 89 82 82 85 83
19 23 28 37 41 54 66 82 94 94 95 96 94 93 101 107 116 115 113 115 118 119 121 121 119 117 116 122 122 121 124 127 125 121 124 125 124 115 115 109 104 101 95 94

GFSCGP_250_spd_117.txt.gz
Wind_Speed
61 66 67 69 65 60 46 49 48 42 31 43 41 28 30 33 32 28 18 13 10 2 5 10 17 20 22 25 28 31 35 38 40 42 44 46 44 43 43 42 42 34 26 29
61 65 72 74 67 65 61 51 49 44 46 47 30 33 34 31 30 23 18 12 10 3 5 3 9 17 20 19 23 24 30 34 37 40 42 41 45 47 45 44 38 33 29 26
65 69 75 77 72 68 64 56 51 47 47 39 41 37 34 33 29 28 18 12 14 8 6 1 4 11 16 15 16 20 25 28 30 34 40 40 40 40 41 45 43 35 31 29
71 71 76 79 77 73 66 61 60 52 48 46 42 35 41 35 30 29 22 19 19 12 13 5 2 4 10 15 13 17 19 22 24 27 32 36 37 40 37 41 42 40 39 36
74 72 75 78 79 76 73 69 67 57 51 56 48 42 44 41 33 32 30 26 23 20 17 11 5 1 3 8 12 11 15 16 18 17 23 27 29 33 36 38 40 40 40 39
74 74 77 79 83 81 76 75 69 66 51 57 53 49 43 40 36 31 31 29 26 29 20 14 8 5 3 3 3 6 9 10 14 11 12 11 21 24 30 32 35 36 35 36
74 74 75 81 83 79 80 76 74 74 61 57 58 56 50 42 43 38 32 33 36 36 22 19 12 11 8 3 3 1 3 6 7 7 9 10 15 19 23 25 27 24 25 29
78 73 72 77 80 83 83 82 78 73 68 61 59 50 52 51 45 45 38 41 37 33 28 20 19 17 13 6 6 6 3 5 4 3 6 6 7 11 12 12 11 20 24 25
73 77 80 81 85 85 89 86 82 76 71 59 64 62 49 41 47 45 52 52 42 36 38 27 26 22 24 17 13 11 9 7 6 5 5 5 2 4 7 9 9 13 9 14
71 67 70 73 80 87 86 85 83 79 76 68 65 68 62 50 47 50 50 52 58 49 42 37 33 27 28 25 19 17 14 13 12 11 11 8 4 2 2 3 5 8 8 9
68 72 71 74 76 86 87 87 85 82 81 80 74 70 63 65 54 55 49 51 59 54 43 43 40 33 32 25 29 26 20 20 16 15 15 13 10 6 3 4 6 8 7 8
67 70 71 70 73 85 88 89 89 89 86 83 87 81 63 62 61 52 52 55 54 55 51 43 38 38 34 34 36 29 25 27 23 22 21 20 17 13 9 7 5 8 9 11
68 72 73 74 78 86 90 91 92 95 97 92 87 89 75 66 64 57 55 54 48 48 48 44 44 42 38 39 35 32 31 30 30 27 27 25 20 16 13 11 9 11 12 12
66 71 76 74 73 77 83 88 87 93 97 101 93 94 94 76 59 65 64 57 54 53 52 46 45 42 44 44 34 35 37 41 32 33 37 26 22 21 16 15 15 13 14 13
63 70 75 75 74 78 81 82 88 97 97 96 99 100 93 82 72 70 72 64 58 58 57 50 53 50 46 40 37 43 47 45 38 21 31 25 25 25 21 19 17 19 19 17
53 65 73 76 77 75 81 85 87 96 95 99 103 103 93 84 84 77 66 65 58 60 62 57 57 56 55 54 55 43 40 35 52 48 42 40 36 24 27 27 22 25 23 20
52 58 67 75 75 76 82 83 86 91 93 95 103 102 96 89 85 89 84 77 53 66 76 65 62 50 56 64 58 48 44 41 46 45 44 44 43 44 42 37 35 29 29 29
56 60 63 68 76 80 81 80 85 91 91 95 99 95 101 99 92 92 89 85 69 36 57 71 58 51 47 47 45 58 53 57 56 53 56 52 51 53 52 46 42 39 40 33
60 61 65 68 73 76 81 82 85 87 90 91 99 89 98 103 104 92 82 92 90 82 60 61 75 77 74 77 80 76 68 71 76 74 74 69 63 66 64 60 54 54 47 47
52 61 70 71 75 77 82 83 85 88 91 90 90 97 91 102 109 111 108 97 95 96 97 91 77 75 69 76 79 81 77 78 81 83 78 78 74 71 69 67 60 62 60 58
55 57 59 70 72 77 81 83 88 90 92 93 95 92 95 102 102 109 113 112 106 101 103 104 94 94 91 86 88 85 79 75 76 77 82 80 70 72 70 71 66 66 68 68
40 52 58 58 66 74 78 81 86 91 92 95 96 101 91 91 105 106 108 111 113 112 111 101 98 98 93 95 94 92 88 83 87 83 83 78 70 69 72 77 78 75 78 76
34 43 47 55 59 68 76 82 84 88 92 97 96 96 94 94 95 104 111 106 109 114 118 121 116 108 107 103 94 96 94 91 95 91 91 87 86 83 83 81 79 82 81 82
38 44 48 41 49 59 72 78 83 89 90 92 90 91 96 94 94 98 106 111 114 114 112 115 119 116 112 115 111 102 104 98 99 99 94 97 92 92 90 95 92 88 87 86
30 44 45 38 42 51 65 77 83 89 89 89 91 89 86 91 103 98 101 110 113 113 113 119 119 118 119 116 109 100 111 115 110 108 104 98 94 98 93 91 90 91 94 90
22 31 34 36 42 49 49 60 75 83 88 88 88 88 88 85 84 101 104 102 104 110 115 114 117 122 124 124 120 115 109 102 114 127 116 116 110 107 104 111 103 102 96 96

GFSCGP_250_spd_120.txt.gz
Wind_Speed
59 52 55 66 69 61 56 49 53 47 42 32 38 34 32 22 18 22 11 7 5 4 5 13 19 20 24 27 32 37 38 40 42 44 45 43 40 36 32 28 28 33 30 23
65 62 62 66 70 66 65 53 47 56 44 48 44 39 35 28 25 27 17 15 7 1 2 7 13 19 21 22 24 29 34 35 41 40 38 40 41 36 32 31 27 29 33 31
81 80 68 66 72 71 70 68 58 53 53 48 47 43 38 34 33 28 24 17 9 11 4 3 8 13 18 19 18 23 27 30 36 39 40 42 42 42 44 38 37 35 39 36
91 81 73 66 72 75 74 71 63 56 56 48 46 47 49 40 33 30 26 21 16 13 9 5 3 8 11 15 15 18 19 27 30 33 33 39 40 41 41 40 41 40 41 42
95 88 79 67 74 77 76 73 66 64 60 53 48 50 42 41 36 32 32 27 21 18 12 10 7 5 7 10 11 11 14 16 20 24 26 30 34 36 36 35 36 37 37 41
87 87 80 73 76 79 78 73 67 68 65 54 53 54 48 44 39 41 39 29 22 21 18 14 13 7 3 3 8 6 7 8 10 14 19 24 26 28 30 30 31 34 36 38
89 86 84 74 75 78 79 79 74 70 67 60 56 57 53 49 47 43 41 31 31 26 26 19 17 13 8 6 1 2 4 5 5 11 12 14 20 19 23 27 27 27 29 32
88 86 80 74 72 78 83 84 86 71 65 66 63 54 56 53 51 50 38 35 29 27 29 22 20 15 12 8 6 3 2 0 2 4 7 7 8 12 10 14 14 17 23 23
87 86 89 83 79 80 84 88 84 78 71 65 69 65 62 59 56 54 43 41 34 29 28 26 25 17 12 12 9 6 7 4 5 5 3 3 4 5 7 8 10 13 12 14
81 80 77 75 75 78 81 86 85 83 82 73 71 71 65 61 58 53 50 47 41 32 35 35 31 25 14 15 14 7 8 9 9 8 6 3 4 7 5 5 5 8 7 8
73 75 75 78 78 77 83 85 90 87 86 81 74 72 69 67 62 58 55 53 44 35 39 40 38 30 22 17 19 15 14 12 13 14 11 11 11 9 8 5 2 2 3 6
74 73 74 78 77 76 84 90 93 89 89 84 80 74 72 67 67 64 59 58 49 48 46 39 40 34 31 25 24 21 19 22 16 19 20 18 16 16 14 11 8 6 6 5
70 73 74 75 76 79 82 88 91 90 89 84 82 74 73 66 62 65 59 50 51 49 48 53 49 46 42 35 28 26 25 25 24 21 24 26 24 22 20 19 16 11 9 8
65 70 74 76 78 78 87 89 92 91 91 89 83 78 63 64 66 61 59 58 55 53 53 52 49 47 46 41 34 34 30 35 33 29 28 26 28 24 25 22 21 16 14 11
63 67 71 74 77 78 82 85 89 91 88 87 86 82 72 63 63 68 64 61 61 59 56 52 52 48 45 44 37 37 36 34 39 42 34 31 35 32 33 27 24 22 17 13
58 65 69 70 76 79 80 85 89 90 87 87 89 85 84 72 57 58 71 63 64 68 64 61 59 52 46 47 45 41 42 33 42 41 44 34 37 32 36 38 35 32 20 20
48 61 66 71 74 78 81 85 87 88 89 88 89 89 89 82 64 67 63 54 54 62 63 63 59 57 54 54 49 46 43 32 43 51 51 43 42 38 37 40 36 29 27 26
49 54 64 73 73 78 82 86 86 87 89 93 92 95 95 94 75 61 64 70 61 65 62 56 54 60 54 52 51 51 49 47 52 63 56 50 47 43 46 49 44 42 35 35
51 54 59 68 74 79 83 86 85 85 88 90 94 94 98 97 98 75 77 73 73 68 71 61 45 39 43 44 48 57 56 58 61 67 67 64 53 57 54 58 59 51 44 41
54 59 58 60 68 75 82 86 88 89 85 89 91 95 99 103 107 99 79 79 74 73 67 71 63 59 49 48 47 41 44 51 59 62 73 65 52 58 59 63 60 60 58 60
47 52 63 63 62 69 81 88 90 90 91 90 91 94 98 105 112 113 110 85 89 86 80 70 70 67 67 62 56 59 55 57 57 67 73 77 71 68 71 75 74 76 78 71
39 47 51 58 70 71 73 82 88 90 91 93 94 94 95 103 107 116 119 114 96 96 98 90 78 70 77 76 79 60 63 77 74 75 70 75 80 75 77 81 87 89 87 82
38 41 47 52 60 66 76 76 80 86 89 92 96 97 97 99 106 112 115 118 116 111 92 98 104 98 86 89 91 90 82 80 83 85 88 89 90 95 96 91 90 94 95 91
35 37 42 48 53 59 66 75 81 79 83 88 94 97 101 99 101 106 110 116 118 117 117 110 98 104 104 94 96 98 100 93 89 88 88 90 93 91 92 87 89 86 82 82
32 36 38 44 48 51 55 63 70 76 82 84 88 92 96 101 102 103 105 109 117 116 118 121 121 108 113 120 120 113 106 101 96 98 99 97 94 96 101 101 97 101 102 99
29 32 31 34 41 45 50 55 54 67 75 83 88 90 91 94 100 101 103 105 109 116 120 118 120 128 124 121 123 125 126 124 123 118 112 110 110 101 93 100 108 98 93 87

GFSCGP_250_spd_123.txt.gz
Wind_Speed
56 53 48 54 61 61 59 57 52 50 45 41 37 33 28 27 25 20 14 6 2 8 8 16 21 20 25 29 33 36 38 40 44 40 37 35 30 30 29 29 27 23 22 23
62 62 63 58 60 60 64 62 57 53 47 41 43 40 35 34 32 27 19 11 5 1 6 12 15 17 19 25 26 34 39 40 44 45 47 42 39 37 34 32 31 28 24 21
80 77 70 67 58 61 66 66 62 58 52 45 46 46 41 37 33 29 22 15 11 8 2 7 11 15 17 20 23 30 33 32 37 40 41 41 42 45 45 41 40 37 30 23
89 84 76 71 65 64 66 70 67 60 59 57 51 51 47 41 36 31 25 21 15 14 5 5 7 10 14 14 19 22 25 25 29 32 35 36 38 41 41 45 44 45 42 32
82 95 90 78 74 67 69 72 68 65 63 60 58 54 48 46 44 35 31 26 23 19 9 9 7 7 10 12 13 17 15 17 22 28 30 31 32 32 37 40 41 45 42 40
71 90 94 87 75 73 72 74 72 69 66 65 62 62 56 51 45 40 35 29 27 22 14 12 10 9 7 9 9 7 8 13 17 18 26 30 29 29 30 31 32 37 38 41
64 83 94 92 82 73 69 74 79 67 70 65 63 60 57 51 48 43 37 33 31 25 18 16 12 11 8 8 6 5 6 10 12 12 13 16 17 19 21 24 25 29 32 33
58 74 93 92 86 79 73 75 82 81 68 63 61 64 60 56 51 49 45 40 35 29 18 20 16 12 11 9 7 4 3 4 5 6 6 9 13 12 12 14 15 17 20 23
48 66 92 95 91 88 82 77 81 84 80 70 62 59 63 56 53 50 50 43 43 32 27 24 24 21 13 11 10 7 2 1 1 3 4 3 5 7 8 9 12 13 16 18
44 64 90 95 91 85 81 77 81 85 82 76 67 62 63 59 55 53 48 47 47 37 35 29 30 26 22 12 12 8 5 3 3 6 5 4 7 5 6 7 7 8 11 13
44 65 88 93 90 86 84 79 82 85 82 76 78 68 64 64 61 57 54 53 49 40 39 31 33 33 29 19 14 14 8 5 3 8 10 11 9 8 6 4 5 5 6 7
44 65 82 87 92 91 85 78 78 82 80 77 78 73 68 67 64 61 54 52 50 45 44 36 34 37 33 28 18 19 14 15 12 10 14 16 15 13 11 9 5 7 4 4
42 65 80 84 86 87 80 76 76 80 81 78 76 78 75 68 63 65 64 57 55 56 50 44 39 34 39 35 30 18 19 18 20 19 17 17 16 18 19 16 15 11 10 6
37 60 76 80 80 82 79 77 75 82 87 89 82 80 76 73 67 65 63 59 56 56 55 50 43 44 44 44 39 26 24 23 26 23 22 25 22 22 22 20 18 17 14 13
36 56 72 76 79 80 79 76 74 80 86 92 89 80 83 78 75 70 66 64 61 60 56 54 46 49 48 45 48 36 30 30 30 27 30 33 29 28 27 26 26 23 23 20
34 50 67 75 77 76 78 79 78 78 84 91 93 86 80 82 79 75 72 68 61 62 63 63 59 56 54 53 54 46 38 35 37 36 38 33 33 38 38 32 28 32 27 26
33 42 60 70 74 74 76 78 79 81 83 88 92 89 89 85 75 68 78 72 66 63 60 62 65 63 56 56 53 50 39 38 39 42 43 39 37 41 45 37 34 40 36 34
39 41 52 65 73 77 78 81 82 82 84 86 89 91 86 90 84 69 76 77 68 72 69 66 64 65 61 59 55 51 39 40 48 48 47 42 35 40 47 47 48 41 42 40
46 45 48 58 69 75 79 81 84 86 85 87 89 92 90 90 87 76 67 66 71 73 78 70 70 68 65 58 54 49 46 49 47 49 45 48 47 50 50 56 56 50 45 41
41 51 51 55 62 70 76 81 83 85 87 90 90 91 95 92 93 81 73 68 66 73 79 85 78 76 69 66 41 51 48 56 58 68 59 57 58 57 58 60 57 55 47 52
40 42 51 59 59 64 74 79 83 86 89 91 93 91 93 96 99 100 81 74 75 71 80 79 76 70 70 68 67 57 51 62 58 49 47 54 55 62 68 69 69 70 63 59
38 41 46 53 63 64 68 75 80 86 90 91 92 95 94 96 99 100 102 97 84 86 83 80 82 78 67 70 70 70 66 64 57 54 48 41 53 62 68 76 71 68 66 70
32 39 44 46 52 60 69 69 76 83 87 89 92 92 94 96 99 101 104 104 101 85 90 90 80 79 72 80 72 78 71 57 61 61 74 62 60 62 73 72 73 73 70 69
31 33 37 42 47 53 59 66 70 73 83 88 89 92 93 96 98 101 104 106 110 99 86 88 86 80 78 85 85 84 84 81 78 73 73 87 84 81 80 81 79 80 82 80
28 30 32 36 40 47 52 58 63 69 75 77 86 90 92 95 98 99 102 108 112 115 105 94 96 86 86 87 93 90 94 89 90 91 86 86 90 92 91 90 87 86 88 92
22 24 27 31 36 40 47 51 57 64 70 75 79 81 89 92 96 100 100 105 111 116 118 119 107 102 98 94 102 105 106 107 99 99 100 97 93 89 89 89 90 89 90 92